GFSMA_250_spd_000.txt.gz
Wind_Speed
42 44 48 49 51 49 52 53 54 55 55 54 53 53 52 51 48 46 47 48 49 50 52 55 57 60 60 62 63 64 64 65 67 70 70 72 72 71 70 70 70 70 71
40 47 50 51 54 56 58 58 56 56 56 56 57 55 54 54 53 50 50 53 55 57 58 60 61 62 63 65 67 69 70 71 73 75 76 76 76 75 74 74 74 75 74
41 44 47 48 48 53 54 56 57 59 59 58 58 59 58 57 57 56 55 57 60 64 66 66 68 70 72 74 75 76 77 80 82 83 84 82 80 80 80 79 79 78 78
41 43 45 49 52 52 55 57 59 60 59 58 60 60 62 62 62 59 60 61 64 68 71 75 76 77 79 81 82 84 86 88 90 90 88 87 87 86 85 85 85 84 84
42 45 48 50 52 54 55 55 56 57 59 62 62 63 64 65 64 63 64 67 69 72 75 77 80 83 85 86 88 92 94 95 95 94 94 93 93 92 92 91 91 92 91
44 45 48 48 48 49 53 56 59 62 64 64 64 65 64 63 63 66 69 72 76 79 81 84 87 89 94 96 96 97 98 99 100 101 101 101 100 99 99 99 98 97 97
42 44 46 47 49 53 56 60 63 62 62 60 59 61 64 66 70 71 75 78 81 85 88 90 94 97 98 100 104 105 106 106 107 108 109 109 108 107 105 105 105 104 102
41 43 46 50 54 57 59 60 60 60 63 64 64 64 65 70 75 78 81 85 88 92 95 98 102 104 106 108 109 111 114 116 116 115 116 116 115 112 111 110 109 108 107
45 49 52 54 56 59 61 60 62 64 65 69 73 73 73 75 76 83 88 92 95 99 102 107 110 114 117 119 120 122 124 125 126 123 121 120 118 115 115 113 109 107 104
49 51 55 56 59 60 61 65 68 70 72 74 77 82 84 84 83 81 89 95 100 105 109 112 116 119 123 126 127 126 125 128 129 127 127 124 120 118 118 116 113 111 108
50 53 55 58 60 63 67 70 73 76 79 81 83 86 90 95 99 100 96 104 108 113 113 114 117 120 123 126 128 129 130 131 133 135 133 132 131 127 126 122 119 116 114
51 54 58 62 66 69 73 76 79 82 86 90 93 96 100 103 107 110 111 110 113 112 116 117 121 126 130 133 136 138 136 139 141 140 142 141 137 134 132 130 129 124 121
57 60 64 68 71 75 78 82 85 89 92 96 100 104 108 112 115 116 117 114 114 114 118 120 129 134 139 142 143 144 145 149 148 145 142 144 144 139 136 137 136 129 124
64 67 70 73 77 81 85 88 90 94 99 102 106 111 113 115 116 119 124 128 130 131 128 126 133 139 142 142 138 135 136 139 139 136 136 136 139 142 140 139 138 139 139
71 73 76 81 84 86 88 91 96 100 104 108 111 112 113 115 119 126 132 139 143 137 132 131 135 136 129 123 119 114 113 113 116 118 119 122 121 119 121 123 121 125 123
78 81 85 86 87 89 92 97 100 104 108 110 111 112 118 122 127 131 137 140 147 151 139 130 120 109 107 105 104 103 103 101 104 107 110 111 110 110 109 110 109 106 104
85 88 87 88 90 93 96 102 106 107 109 110 114 120 123 128 133 137 142 146 147 149 143 116 104 102 99 96 96 94 92 91 91 97 97 97 98 98 99 98 98 97 96
84 83 88 91 95 98 102 104 105 107 109 114 118 123 130 134 139 146 146 146 143 128 120 107 97 92 89 89 84 85 87 86 85 87 87 86 86 86 87 86 86 86 87
85 89 92 96 101 103 103 104 105 111 115 120 126 130 136 142 144 144 144 139 124 115 110 98 87 87 83 82 77 78 81 81 79 78 78 76 77 77 77 74 75 74 75
89 93 99 103 102 102 103 106 112 116 122 127 132 137 142 144 146 141 133 120 114 108 99 92 88 84 83 81 73 72 74 75 74 72 68 65 67 66 67 67 67 67 65
94 100 101 98 100 103 107 112 118 121 126 132 138 141 144 143 138 127 116 113 107 101 95 89 86 83 80 77 73 69 66 70 68 66 61 61 59 58 57 58 59 58 59
101 96 96 98 102 108 114 119 122 129 133 138 138 140 140 135 121 114 113 105 102 97 90 83 76 73 72 69 64 62 59 61 63 60 49 53 52 51 49 46 46 48 51
90 94 97 103 108 115 119 124 131 135 138 139 138 138 131 121 113 109 101 98 97 94 86 75 66 66 64 62 56 55 51 52 55 49 43 52 44 45 41 41 41 41 43
94 98 103 110 116 121 128 132 136 139 139 138 136 130 119 112 106 97 93 93 91 86 78 72 64 58 56 52 50 48 46 44 44 43 44 44 41 41 38 37 34 36 38
101 106 113 118 125 129 133 138 140 139 137 133 127 119 112 104 96 89 87 85 84 79 73 65 56 53 48 46 44 42 40 37 38 39 39 37 37 38 35 32 32 35 39
107 114 120 124 127 132 137 140 138 135 128 119 114 110 103 97 89 86 82 79 74 70 65 60 50 44 43 39 37 36 35 32 33 33 31 32 35 35 33 32 32 34 36

GFSMA_250_spd_003.txt.gz
Wind_Speed
34 33 35 39 42 46 49 50 51 52 54 58 59 62 60 60 59 57 57 56 53 52 50 50 52 54 56 58 60 62 64 65 66 67 68 68 69 69 71 71 73 74 74
34 33 35 38 44 50 52 56 58 59 61 60 62 65 65 62 62 60 58 58 58 58 57 56 57 58 60 63 65 67 68 71 73 75 76 77 77 77 77 79 79 80 79
33 34 35 37 43 50 54 57 60 63 66 68 66 61 63 64 62 60 62 63 63 63 64 62 61 62 65 67 69 71 73 75 77 79 81 81 82 83 84 85 86 85 84
34 36 38 41 45 52 55 57 56 60 59 59 61 63 63 62 64 66 68 67 66 65 63 63 64 66 68 70 73 76 79 81 83 85 86 87 87 88 89 90 91 90 90
34 36 39 43 46 47 48 51 53 55 58 59 59 60 63 65 67 69 67 65 63 63 64 66 68 72 75 77 79 81 84 87 88 90 92 94 95 94 94 96 96 95 95
35 37 39 41 44 48 51 52 54 54 55 57 60 63 66 68 66 63 64 66 67 68 69 72 75 78 82 86 89 90 91 93 95 98 100 102 103 103 102 101 101 102 102
38 38 39 42 44 47 49 50 53 56 60 63 63 65 66 65 68 68 68 70 73 75 78 80 83 86 88 93 95 97 100 103 103 103 107 109 110 110 109 109 108 108 110
42 41 42 44 46 48 51 55 59 62 65 66 66 66 65 70 72 74 75 78 80 82 85 88 91 95 97 99 104 108 111 113 114 113 113 116 117 117 117 117 115 112 109
45 46 47 50 52 55 58 60 61 64 65 68 70 70 71 73 74 79 82 85 87 91 93 97 99 104 107 110 113 117 120 121 121 122 120 119 120 119 119 116 116 114 111
45 47 51 53 56 58 60 62 64 66 68 70 74 78 81 82 82 81 87 90 94 96 98 101 106 110 114 116 117 120 121 124 123 126 127 123 125 126 125 123 121 122 119
49 50 52 56 59 62 64 66 68 72 75 78 80 83 85 88 92 93 90 96 99 103 106 107 110 114 118 120 122 125 125 128 130 131 132 135 137 138 137 133 126 134 129
53 57 59 62 65 69 71 73 76 79 82 84 87 91 93 94 96 98 100 102 104 106 111 111 114 117 121 125 128 132 134 134 138 140 143 145 148 147 144 140 139 139 141
59 61 64 67 70 73 77 80 83 85 88 92 96 95 96 99 103 107 111 112 111 107 107 109 116 123 129 135 138 141 142 145 140 139 141 142 141 139 136 133 134 137 137
62 65 69 73 76 79 83 86 90 92 94 92 93 96 99 106 109 114 116 116 112 112 112 117 125 131 139 142 142 141 139 133 131 133 131 124 120 115 117 118 116 115 120
71 71 74 77 79 82 84 86 87 88 90 95 99 101 107 110 111 111 116 120 128 128 121 125 133 138 137 135 133 132 127 120 113 109 111 111 108 104 107 105 100 102 106
75 77 78 78 80 83 86 85 88 93 96 100 104 110 109 108 112 117 122 126 131 140 139 134 133 132 130 121 115 111 107 103 102 101 100 103 101 98 97 97 98 99 98
79 80 79 79 81 83 86 89 92 96 103 108 108 104 109 114 119 122 126 131 136 142 144 131 131 127 113 105 100 97 93 92 91 92 93 94 97 92 89 86 88 91 92
80 79 79 80 84 89 92 94 101 105 105 100 104 110 116 120 123 128 132 137 140 140 137 129 115 106 100 98 90 86 87 86 86 86 86 85 89 88 82 81 80 81 81
81 80 82 86 88 92 98 102 102 98 101 106 113 117 121 126 129 133 137 139 140 137 130 115 102 99 92 90 86 86 83 83 82 79 80 79 81 82 78 75 74 74 72
81 83 86 90 95 100 101 98 97 103 109 114 118 123 127 132 136 138 140 139 134 125 113 105 97 91 87 87 84 80 78 79 76 75 72 72 73 75 70 67 68 67 67
84 87 92 96 101 98 96 100 105 110 115 120 124 129 134 137 139 139 134 126 117 110 103 96 91 86 83 82 79 78 71 68 71 64 59 62 62 63 62 62 60 59 59
89 93 98 97 94 98 103 107 112 118 124 128 131 134 137 140 136 130 120 111 107 102 95 88 84 79 79 78 74 68 64 60 61 53 53 56 47 51 52 51 50 50 53
95 94 93 93 99 104 110 116 122 127 131 135 137 138 139 135 125 113 108 101 98 98 90 83 76 75 71 70 66 63 57 51 50 46 46 42 40 42 40 42 45 48 49
91 90 94 100 105 113 120 125 130 133 136 139 141 138 130 120 110 105 96 93 91 91 88 79 74 69 65 62 58 54 51 45 43 39 38 34 35 36 38 39 39 40 45
90 96 101 107 114 121 127 132 135 137 140 141 137 128 116 109 101 95 89 85 84 82 80 75 70 63 57 53 49 47 43 40 37 35 32 29 29 31 32 34 37 41 44
95 102 109 116 122 128 132 135 139 140 138 132 121 112 107 98 93 89 83 79 76 75 72 70 62 55 49 46 44 39 36 33 31 29 29 26 26 28 28 31 35 37 40

GFSMA_250_spd_006.txt.gz
Wind_Speed
42 42 41 39 37 37 38 41 44 47 47 50 50 52 54 56 61 64 65 68 66 68 62 60 58 58 59 58 56 57 60 62 64 65 67 69 70 70 70 71 72 72 73
40 41 42 41 38 38 38 42 46 49 54 54 58 58 64 66 66 69 70 69 67 67 65 60 61 63 65 63 62 62 63 66 68 69 70 71 72 73 74 75 76 76 77
38 39 42 42 40 39 40 42 46 50 53 57 64 68 72 72 72 72 71 65 67 67 64 66 69 69 68 65 63 63 63 65 68 72 74 76 76 77 78 79 81 81 81
37 38 39 42 42 41 41 42 45 51 56 61 65 67 68 69 69 67 67 69 67 66 68 71 71 68 68 68 68 69 68 70 74 75 78 80 81 82 82 84 85 86 86
37 38 38 39 42 43 43 44 46 50 56 58 60 61 63 62 64 65 66 66 68 70 72 71 69 72 72 75 75 77 77 78 82 82 84 86 87 89 89 90 91 92 92
38 39 40 41 43 43 44 46 49 51 53 54 56 58 60 64 64 66 68 71 73 73 73 73 75 77 78 79 83 86 87 87 89 90 91 92 94 96 96 97 97 97 98
37 39 43 44 44 45 47 48 49 51 54 55 57 60 63 67 68 71 73 74 75 76 76 79 82 83 86 88 90 93 95 96 96 98 99 99 100 103 105 105 106 106 107
39 41 42 43 44 47 49 51 54 57 59 61 62 64 67 72 73 75 75 77 77 79 83 86 88 91 92 94 97 99 102 104 104 106 106 108 110 111 111 113 114 113 113
43 44 44 45 46 49 50 52 56 58 62 66 68 68 70 70 72 77 79 82 85 87 90 93 95 98 100 102 104 106 108 109 111 113 114 115 117 118 119 120 120 120 118
46 47 48 49 50 51 52 56 59 62 64 68 72 76 77 77 78 76 82 87 90 92 96 101 103 105 106 107 108 113 113 114 117 120 122 125 126 127 128 128 127 125 124
47 48 51 53 55 56 57 60 63 66 68 71 73 77 80 84 87 88 84 90 94 97 96 99 102 105 109 113 117 119 122 125 123 123 123 125 125 128 131 133 131 129 128
51 52 53 56 59 61 64 67 69 72 74 77 79 81 83 87 90 90 86 84 86 93 99 102 107 110 115 120 121 122 123 123 126 127 128 130 132 135 136 140 141 143 139
58 60 61 62 64 67 69 71 75 76 79 81 81 83 86 87 87 90 94 94 95 98 104 108 112 114 117 119 122 124 126 128 134 136 137 138 138 137 137 140 141 142 141
63 64 67 68 70 71 73 76 78 80 81 82 83 83 85 91 95 98 103 109 104 102 102 104 109 115 119 125 130 134 136 139 140 141 141 139 136 131 128 127 129 129 127
68 70 72 73 75 76 78 80 82 83 83 83 86 90 93 95 102 109 112 112 113 105 101 108 115 122 128 133 137 141 141 141 139 135 129 125 120 115 112 111 111 110 108
74 76 77 79 80 81 83 82 83 82 84 87 90 94 101 107 109 108 109 113 117 122 118 118 124 130 134 137 138 136 131 127 118 113 109 107 104 104 104 102 102 101 98
79 81 82 82 84 86 85 84 85 86 88 92 98 102 105 104 105 110 114 118 123 130 135 129 134 133 130 125 120 115 106 99 98 100 102 101 98 95 96 95 92 90 88
83 84 84 85 88 89 88 88 88 91 95 101 106 103 103 107 112 116 120 125 131 136 138 134 126 121 113 104 100 96 95 94 93 94 90 89 88 86 85 87 86 85 85
86 86 87 89 91 91 90 90 92 98 103 102 102 104 110 114 119 124 129 133 134 133 130 123 109 103 97 96 93 93 90 91 88 84 82 83 82 81 81 83 84 82 77
87 89 91 91 92 93 93 96 101 101 99 103 108 113 119 124 128 132 134 135 130 122 113 106 102 97 94 93 91 84 86 88 84 78 76 76 74 72 73 74 74 72 69
90 93 92 92 93 96 99 100 97 98 104 109 116 122 128 132 135 137 134 124 114 109 105 100 95 93 91 87 84 84 76 76 77 70 66 72 61 66 65 64 65 65 63
92 92 90 93 99 99 95 97 101 106 112 118 123 129 133 136 137 131 118 111 111 109 101 92 89 85 84 80 77 75 71 65 68 61 59 59 54 57 52 54 54 56 57
90 91 96 96 93 93 98 103 109 114 120 127 132 134 136 134 122 112 109 108 106 104 97 88 80 79 75 73 70 67 62 58 56 54 52 47 46 45 45 45 46 48 52
94 94 91 90 95 100 105 109 116 122 127 132 136 137 128 116 112 110 105 100 96 93 88 82 77 70 68 65 61 57 54 52 47 44 40 40 38 39 38 39 40 43 46
89 87 93 97 101 106 111 116 122 126 132 135 134 127 116 112 109 104 96 87 85 84 81 75 69 64 60 55 50 48 44 44 41 38 35 33 33 33 33 35 36 38 41
89 94 98 104 108 113 119 124 128 133 131 128 121 115 112 107 102 95 87 81 77 75 72 70 62 56 52 47 42 40 39 37 35 32 30 28 26 25 26 28 30 34 37

GFSMA_250_spd_009.txt.gz
Wind_Speed
37 41 44 45 43 42 43 43 44 43 44 47 50 54 54 57 55 54 56 60 62 65 67 69 70 72 74 72 66 66 64 64 65 65 64 63 65 67 68 70 71 73 74
39 43 44 45 43 43 43 42 44 45 44 47 51 53 56 58 60 61 63 65 70 73 74 76 79 77 75 70 70 67 67 69 71 71 69 69 70 70 73 74 75 76 76
42 43 45 44 42 43 43 42 43 45 45 47 51 55 59 65 66 67 70 73 74 78 80 82 84 79 73 75 74 73 73 74 75 71 70 70 69 70 71 74 76 78 79
43 41 40 41 41 42 42 43 42 43 46 48 51 53 58 62 65 71 74 77 79 77 80 79 77 78 78 75 76 77 79 79 77 75 75 76 76 76 75 77 78 79 81
40 38 38 39 40 40 42 43 43 44 45 47 50 52 54 58 61 64 66 69 70 72 72 74 76 78 78 80 83 84 84 83 82 81 81 81 82 84 85 85 85 86 87
42 39 39 40 39 37 38 40 42 43 45 48 50 53 56 57 61 63 66 68 71 72 74 76 78 81 84 85 86 86 89 88 88 89 89 91 90 91 93 94 93 93 93
41 41 40 41 42 44 44 45 45 46 45 46 49 54 58 60 63 66 69 72 74 77 80 82 84 86 88 89 91 91 91 94 95 97 97 98 99 98 99 100 100 100 100
41 42 44 46 48 49 49 49 50 53 54 53 54 55 57 63 64 67 72 74 76 78 81 85 87 89 91 92 95 98 100 101 101 104 105 106 106 106 108 108 107 108 108
42 43 45 46 48 49 50 51 53 55 58 60 60 61 63 66 67 73 78 81 82 85 87 90 94 97 99 102 104 106 109 110 110 112 114 114 114 114 114 114 114 113 114
40 42 44 46 49 51 53 55 56 57 60 64 67 68 69 69 72 70 78 85 88 91 94 98 101 103 107 109 112 114 115 115 116 117 116 116 117 118 118 119 120 121 120
42 45 47 49 51 54 56 58 60 63 64 66 69 72 74 78 79 77 75 85 90 95 96 99 101 104 106 107 109 111 114 115 118 121 121 122 122 123 124 124 126 128 130
51 53 55 57 59 61 62 63 65 66 69 71 73 75 77 82 85 87 87 87 88 92 96 99 102 106 109 112 114 116 118 120 122 124 127 128 127 126 127 127 127 127 127
56 59 61 63 65 66 67 69 71 73 74 77 79 82 86 89 90 91 90 85 83 86 91 97 103 107 110 112 115 117 117 119 122 123 125 127 129 130 130 131 132 133 134
61 65 68 70 71 72 73 75 77 78 80 83 86 89 91 93 93 92 90 90 88 91 95 103 107 109 109 113 117 122 123 125 128 133 136 137 141 143 141 138 137 135 134
67 70 75 76 77 78 79 80 81 83 85 89 91 93 93 90 90 93 98 103 103 95 93 98 104 109 115 121 127 132 135 138 140 144 144 144 142 138 135 132 130 129 129
74 78 81 83 83 83 84 84 85 88 91 94 94 92 91 93 98 102 104 105 108 108 101 106 111 117 123 129 135 139 141 139 138 136 132 130 128 124 120 116 115 113 111
81 84 88 88 87 88 88 88 90 93 94 92 90 91 97 99 100 102 104 109 113 120 123 116 125 129 132 134 133 130 125 118 115 112 111 111 111 110 107 104 102 101 100
87 91 92 90 90 90 91 93 94 94 91 92 98 98 96 97 102 107 111 116 122 127 133 133 130 131 126 121 113 108 106 105 102 99 98 97 96 93 91 92 94 95 95
94 95 93 91 92 93 94 96 94 92 95 97 95 94 98 103 108 115 120 126 130 132 134 134 124 115 106 104 99 98 97 93 91 91 88 84 83 83 85 85 84 85 86
97 95 93 93 94 95 95 94 95 95 93 92 98 101 106 111 117 122 127 130 131 131 126 119 109 99 98 96 93 89 88 88 84 83 78 77 77 77 76 76 77 79 78
95 93 93 94 95 96 96 95 93 90 94 99 105 109 114 119 124 129 130 129 123 117 112 104 98 96 92 89 86 83 79 78 82 76 75 74 69 67 69 68 68 69 69
91 92 93 95 96 97 96 94 92 96 102 107 110 115 121 126 129 130 124 116 113 109 103 99 93 86 83 82 79 76 72 71 73 67 69 67 60 61 58 57 57 60 60
91 92 94 95 96 98 94 95 100 106 110 115 119 124 128 129 128 119 111 108 106 107 102 92 83 80 74 73 72 72 69 64 62 62 62 57 53 50 50 48 49 50 50
90 93 95 97 95 94 98 104 108 112 117 122 127 132 131 127 118 110 104 102 100 98 92 86 79 73 69 67 66 63 61 59 55 53 52 51 45 43 43 41 39 39 39
92 95 95 92 94 100 107 112 116 119 123 127 130 131 124 113 109 106 101 95 92 88 84 77 72 68 65 61 57 56 53 52 49 46 43 42 38 34 33 32 31 31 31
94 91 93 97 103 108 114 119 122 125 128 130 128 120 112 106 104 99 93 86 82 78 73 71 66 60 56 53 49 49 48 44 39 36 34 32 29 25 24 25 25 25 24

GFSMA_250_spd_012.txt.gz
Wind_Speed
63 59 55 46 41 43 44 48 49 48 48 48 46 49 50 52 53 56 59 63 66 66 65 65 62 66 70 71 72 73 75 76 78 75 75 71 68 67 66 66 66 66 68
58 56 48 43 43 44 46 47 45 45 46 45 46 47 49 51 54 58 61 65 68 72 71 72 70 71 74 76 79 82 83 80 84 81 78 75 74 72 73 73 74 74 72
57 50 44 44 45 42 43 42 43 42 43 43 45 46 46 48 52 54 60 64 68 72 76 76 79 81 83 84 86 87 91 88 85 83 81 81 79 77 78 78 78 76 75
50 44 44 42 42 41 41 41 41 40 41 43 44 45 46 47 49 52 55 59 65 72 78 84 85 86 89 92 92 87 87 88 84 84 84 82 81 82 84 84 82 82 80
44 41 43 43 44 43 43 43 42 43 46 46 47 47 47 48 50 52 55 57 60 64 68 73 78 81 83 85 87 86 86 88 88 87 87 87 88 89 89 90 88 87 86
42 41 41 41 45 48 47 48 48 48 50 51 53 54 54 54 56 57 59 61 63 66 69 72 76 79 81 83 86 88 90 91 92 91 93 94 93 93 93 93 94 93 93
41 42 44 47 47 49 51 51 52 51 51 53 55 58 59 59 62 63 65 67 69 72 74 76 79 82 84 86 88 90 92 94 96 96 97 98 98 98 98 98 98 97 98
39 40 45 46 45 46 47 48 50 52 52 53 56 59 62 64 65 66 69 72 74 78 82 84 87 89 91 94 97 99 101 103 104 105 105 105 105 105 106 107 107 108 106
37 38 40 42 42 43 45 48 51 54 55 55 57 59 62 66 69 74 77 79 80 83 86 90 93 95 98 100 102 105 109 110 111 112 113 114 114 115 115 115 116 116 117
38 41 43 44 45 48 50 52 55 58 62 63 64 65 66 66 68 69 79 85 87 89 92 94 97 101 104 106 108 111 113 115 117 118 119 120 122 122 123 124 124 124 126
44 44 46 47 50 53 55 57 59 61 64 67 69 71 73 74 75 72 71 80 88 91 94 98 103 105 107 109 111 113 116 116 117 119 120 122 124 125 126 125 125 125 125
45 49 50 53 55 58 61 65 67 69 72 73 74 75 77 80 82 83 81 81 82 87 95 100 104 105 107 108 111 111 111 114 116 118 120 121 122 122 123 123 124 125 125
51 55 57 60 63 66 69 74 75 77 80 81 82 83 84 85 84 85 86 87 90 92 92 93 97 101 102 104 107 111 113 116 118 120 122 122 120 121 122 121 121 122 123
57 60 63 66 70 73 76 81 82 87 88 88 88 87 87 88 89 93 95 94 82 83 89 94 97 99 101 103 106 109 111 115 118 120 122 124 127 129 131 133 133 133 131
63 67 70 73 77 79 83 87 91 93 92 91 89 90 90 93 95 95 93 94 94 84 82 87 94 101 107 111 115 118 120 123 127 131 135 135 136 137 136 135 136 137 136
68 73 77 80 83 86 90 95 97 95 93 93 92 93 96 96 95 96 96 95 97 99 93 98 103 109 114 118 123 127 131 134 136 137 136 134 129 126 124 123 120 120 120
75 81 84 86 90 94 99 101 98 94 93 95 96 97 97 95 96 94 94 98 103 111 114 109 115 120 124 126 128 131 134 132 127 126 120 114 109 108 109 110 111 111 110
83 86 89 93 97 101 103 99 95 94 95 97 99 97 97 95 95 98 103 109 114 120 124 124 122 127 131 131 130 125 118 114 110 106 104 100 98 99 100 98 97 99 99
89 91 95 99 104 105 99 95 95 97 98 100 98 97 93 96 102 109 115 119 123 126 129 132 128 126 121 117 111 106 104 102 99 96 92 87 86 85 84 83 83 85 86
93 98 101 106 106 98 95 96 97 98 101 99 96 96 101 108 113 119 124 127 128 129 128 126 120 111 104 99 96 94 94 93 89 84 82 79 79 76 74 74 77 78 77
99 103 108 105 97 96 97 97 99 99 98 94 99 105 112 119 124 128 129 128 127 123 117 110 102 99 95 92 89 87 82 81 80 73 74 73 71 70 71 70 71 72 73
105 109 102 95 96 96 97 100 99 94 96 102 107 115 122 127 130 131 130 124 119 111 102 97 93 88 85 82 80 78 74 72 71 64 69 69 63 65 62 62 60 61 62
108 98 95 95 96 98 99 97 94 100 105 112 119 124 128 131 131 125 117 111 107 104 100 91 84 82 78 74 71 69 66 65 64 62 63 61 54 55 52 50 51 50 49
94 94 95 96 97 99 95 96 101 108 115 121 126 131 131 127 121 113 104 101 100 95 89 84 80 75 71 69 67 63 61 60 56 53 54 54 47 44 43 43 43 42 42
93 93 96 96 96 94 99 104 111 118 122 127 132 132 125 115 108 103 99 94 90 85 81 76 72 69 66 63 60 58 56 53 48 46 45 45 42 39 36 37 36 36 36
92 93 95 93 95 100 107 114 119 123 127 128 127 123 114 107 102 98 91 85 81 77 75 71 66 61 58 55 52 50 48 45 43 38 37 35 33 32 30 30 29 29 27

GFSMA_250_spd_015.txt.gz
Wind_Speed
74 76 73 72 73 69 62 52 45 45 46 48 46 44 44 45 45 45 46 48 51 54 57 60 62 68 70 67 68 68 69 68 70 72 75 76 75 76 77 78 75 73 68
76 79 73 70 66 61 52 46 42 41 43 44 43 43 44 45 45 46 47 46 48 51 55 61 65 68 71 74 77 76 75 76 72 75 77 79 80 81 83 81 84 80 76
76 68 66 64 61 51 42 41 43 43 45 45 46 43 44 46 47 48 49 50 51 51 53 56 60 67 73 76 81 84 87 86 87 86 86 87 89 91 89 90 86 86 82
72 67 59 57 47 42 41 42 44 46 50 53 52 51 53 54 54 54 54 55 55 55 57 59 60 62 66 70 75 81 86 91 93 95 95 95 96 99 95 92 90 88 85
62 56 55 46 42 42 42 44 47 49 51 52 54 54 56 57 57 57 58 60 61 63 63 64 65 67 69 72 74 76 78 82 85 89 92 94 94 94 93 92 91 91 90
54 51 47 43 45 45 45 45 46 48 49 51 52 53 54 57 58 59 60 63 64 67 70 70 72 73 76 78 80 81 83 85 87 89 92 93 95 96 96 96 96 96 95
48 46 43 43 41 40 42 42 44 44 47 50 52 54 56 59 61 63 65 67 69 72 74 75 77 80 82 84 86 88 90 92 94 96 97 99 100 101 102 102 102 101 99
43 40 40 39 41 43 44 45 47 48 49 51 53 55 58 61 63 67 70 73 74 77 79 80 82 85 87 90 91 93 96 98 100 102 104 104 105 107 108 109 109 109 108
38 40 41 43 43 45 46 48 51 53 54 54 58 60 63 67 70 76 78 80 81 82 84 85 88 89 91 93 96 98 101 102 104 106 108 110 111 111 113 114 115 116 116
40 41 43 45 48 49 51 54 57 59 61 64 67 68 70 72 74 75 84 87 87 87 89 92 94 97 98 99 100 101 103 105 108 110 112 114 116 118 118 118 118 119 119
42 45 47 50 51 52 54 57 61 65 68 71 74 76 79 82 83 83 81 84 88 91 91 93 95 98 100 102 104 107 110 111 113 116 118 119 120 120 119 118 115 116 118
46 48 52 54 55 57 60 63 67 70 74 77 81 83 86 90 95 96 93 90 86 85 90 94 97 100 104 107 108 109 110 109 109 109 112 113 114 114 113 113 114 114 113
51 53 56 58 61 62 65 69 74 77 81 85 87 91 97 100 101 100 95 88 83 83 86 90 95 100 102 104 106 107 108 108 108 110 112 114 114 114 113 115 115 115 116
55 57 60 62 65 69 71 76 81 86 89 92 95 101 105 106 102 96 91 87 84 88 87 87 92 95 96 98 101 104 106 109 113 116 119 121 121 120 119 119 118 118 119
59 60 63 68 71 74 78 84 90 93 97 100 105 110 107 99 96 95 98 97 91 80 80 86 89 93 98 103 109 113 115 117 121 124 127 128 127 129 128 128 126 126 126
62 65 70 74 77 80 85 91 96 99 104 108 113 108 101 98 100 99 96 97 97 93 86 91 95 104 109 113 117 121 123 125 128 129 129 130 130 129 126 124 127 128 128
68 72 76 79 82 87 92 98 101 106 111 117 108 102 102 102 98 101 99 98 100 106 108 105 113 118 121 124 125 126 126 125 124 124 123 121 116 113 110 110 109 109 109
73 76 80 83 88 93 99 102 108 113 118 107 104 106 102 100 102 98 99 104 110 118 124 123 122 124 126 130 126 120 116 111 107 105 106 104 101 100 102 103 102 101 101
76 80 84 90 94 100 104 109 113 118 108 106 107 102 103 99 99 104 109 116 122 127 132 135 127 123 116 112 106 103 101 100 98 97 96 93 90 90 92 93 91 91 90
82 86 91 95 99 104 108 113 117 109 107 107 103 103 99 104 108 114 120 125 130 133 133 126 115 108 104 100 97 93 93 92 87 87 82 79 79 80 78 76 78 80 80
87 92 95 99 104 108 113 116 107 107 105 103 101 102 108 113 119 124 129 132 132 128 117 107 103 101 96 91 88 85 80 79 77 72 72 75 70 69 68 70 71 70 71
92 96 99 103 108 113 114 106 106 101 102 98 104 110 117 122 126 132 132 128 123 113 103 97 96 92 89 82 79 75 71 70 70 62 68 69 61 64 62 62 61 63 62
95 98 102 107 112 107 105 104 99 98 100 107 113 119 123 129 132 127 122 116 110 105 100 93 88 86 82 77 73 70 65 62 59 59 61 56 55 54 54 54 54 52 51
97 102 107 109 102 103 99 96 94 101 107 115 122 128 130 130 126 118 108 104 102 99 92 86 82 78 74 70 66 62 60 55 49 50 53 48 48 45 44 44 42 41 43
102 107 103 100 100 97 93 96 101 108 114 121 128 132 129 122 115 107 101 98 94 88 84 78 75 72 67 63 60 59 54 51 45 43 43 41 39 35 35 36 34 36 35
102 95 98 96 94 90 96 101 108 113 119 126 130 126 121 112 106 101 98 90 86 82 78 73 66 63 60 57 53 51 50 46 41 38 36 36 34 33 28 32 28 29 28

GFSMA_250_spd_018.txt.gz
Wind_Speed
72 71 71 72 75 75 73 73 74 67 59 45 40 43 43 43 43 43 43 44 44 45 47 48 49 50 48 50 54 59 64 68 70 72 71 71 69 68 67 69 71 72 73
74 70 70 73 72 71 68 69 65 61 45 40 38 41 44 46 47 48 49 51 52 53 54 54 54 54 53 55 55 56 61 67 71 75 78 77 76 76 75 74 75 78 78
68 65 67 69 70 67 65 62 59 51 43 42 41 45 47 48 49 50 51 52 53 54 55 57 58 60 60 61 61 61 62 63 66 73 79 83 86 87 86 84 84 82 82
62 65 70 70 69 63 60 57 53 47 45 44 45 46 46 46 47 48 50 52 54 55 56 57 59 61 62 65 66 68 69 70 71 72 74 75 79 86 91 94 95 95 94
66 71 70 69 61 57 53 50 48 46 43 43 45 46 47 47 48 51 53 55 56 58 60 62 64 67 69 71 72 73 74 76 77 78 79 80 81 83 85 86 89 94 99
73 72 66 58 53 53 47 44 43 42 44 46 47 47 50 51 52 53 55 57 59 61 65 66 68 71 74 77 79 80 81 82 84 84 84 85 87 88 89 90 91 92 94
65 59 54 52 50 46 42 42 43 44 47 49 50 51 53 56 58 61 64 67 69 71 74 75 78 81 83 84 85 86 88 89 90 90 91 93 95 95 96 97 97 98 98
52 51 51 48 45 43 42 43 46 48 50 53 55 57 59 61 64 68 70 74 76 79 81 84 87 90 92 93 93 93 94 95 96 97 97 98 99 100 102 103 104 105 106
47 47 45 42 41 42 43 46 48 52 54 57 59 59 61 65 67 76 80 82 83 87 89 93 97 99 100 100 99 98 97 98 99 101 102 104 105 106 107 108 109 110 111
43 42 41 42 41 44 48 51 53 56 58 62 63 66 67 68 71 74 86 93 96 99 103 108 109 108 104 101 98 97 97 98 99 102 104 105 106 107 108 110 111 113 114
41 41 42 42 46 50 53 55 59 61 65 66 70 73 75 77 80 79 77 90 98 105 110 110 103 99 98 97 97 97 97 98 100 102 105 107 109 111 112 113 114 115 117
42 42 44 47 51 55 58 61 64 67 69 71 75 77 81 83 90 93 92 95 98 107 108 100 99 100 100 100 101 103 104 105 106 106 107 109 111 112 112 113 113 114 113
46 47 48 52 56 60 63 66 69 71 73 78 81 84 87 91 96 100 103 104 107 101 92 93 97 99 99 102 104 106 106 107 107 107 109 110 111 112 113 113 113 114 113
49 50 54 58 62 66 68 70 73 76 80 84 87 90 94 100 104 108 112 115 104 96 97 92 93 96 98 98 99 101 103 107 112 115 117 118 120 122 123 122 121 120 119
53 55 58 63 66 70 73 75 79 82 86 90 93 97 102 107 112 116 121 112 108 99 87 92 92 94 98 102 106 109 113 117 121 125 127 130 132 131 130 128 127 127 126
57 60 63 67 71 74 77 80 83 86 92 96 99 103 109 113 118 123 114 113 109 102 91 93 96 101 106 111 117 121 123 124 124 124 123 124 123 124 124 123 123 122 123
61 64 67 71 75 77 81 84 88 93 97 101 105 110 115 119 122 114 113 108 106 106 106 103 112 116 120 124 126 121 116 113 110 111 111 111 108 107 107 108 108 107 107
65 69 72 75 78 82 85 89 94 98 102 107 111 115 120 120 114 111 106 105 111 116 120 119 120 124 128 126 119 113 107 104 102 99 98 97 98 98 98 97 97 98 99
69 72 75 79 83 87 91 95 99 103 108 111 115 120 116 113 108 105 108 114 120 124 129 129 126 122 116 111 105 101 97 96 92 88 89 89 86 86 85 84 85 85 86
71 75 79 83 88 92 97 100 103 107 112 115 119 112 111 106 103 110 116 123 127 130 131 125 117 109 103 99 95 90 88 85 81 78 82 75 75 74 73 74 75 74 75
75 78 83 88 91 96 98 102 106 111 115 115 110 109 103 104 111 118 124 128 133 131 121 112 106 99 95 92 88 84 79 77 74 71 72 64 69 65 66 65 65 66 67
77 81 86 90 93 96 101 105 109 114 110 108 103 100 106 112 118 125 130 134 132 119 106 101 99 96 92 85 83 77 73 67 68 64 64 56 59 57 58 54 56 58 58
80 83 87 91 96 100 105 109 111 105 105 99 100 106 112 118 125 129 132 127 118 111 103 97 94 89 85 79 75 70 65 58 54 58 60 47 51 47 49 50 50 48 48
82 86 91 95 100 104 108 104 102 99 95 100 108 113 118 123 131 131 121 115 111 104 100 94 87 83 76 70 65 61 58 54 46 51 51 47 46 39 40 42 42 39 41
86 91 94 99 104 104 98 99 93 94 101 107 113 119 125 129 129 118 112 108 103 101 93 85 79 73 67 61 58 56 52 49 44 41 42 41 41 37 35 34 31 32 34
89 94 99 101 95 97 91 87 93 99 105 110 116 125 130 129 118 112 106 101 99 91 85 79 71 63 59 55 51 49 48 47 41 41 37 37 36 38 31 32 26 26 28

GFSMA_250_spd_021.txt.gz
Wind_Speed
72 73 70 70 71 73 71 72 70 68 67 67 65 59 59 49 43 40 42 42 42 42 42 43 44 44 45 45 46 49 49 51 52 52 53 56 59 65 69 71 70 71 72
71 71 70 70 70 70 69 68 66 67 67 65 62 58 51 44 44 43 43 42 42 43 44 45 46 46 47 48 49 51 52 54 55 56 57 58 59 61 67 72 75 78 77
70 67 66 65 66 67 65 64 66 67 69 63 58 54 48 45 42 43 44 43 43 45 47 47 48 49 49 51 53 55 57 60 62 63 63 63 64 65 67 69 73 78 81
72 67 64 63 64 62 63 64 67 69 64 58 55 51 43 42 42 45 46 46 47 48 49 50 51 54 55 57 57 59 62 64 66 67 69 71 73 73 73 73 74 76 79
61 63 65 63 64 64 66 69 69 66 59 54 52 47 44 44 47 48 49 49 51 54 55 58 60 63 66 67 68 70 72 73 75 77 77 77 77 79 82 81 80 80 81
54 60 64 65 66 68 68 66 64 58 54 51 47 47 46 47 51 53 54 56 58 59 61 62 64 68 70 73 75 78 80 82 84 86 88 88 88 88 88 87 88 88 88
54 57 58 61 62 61 60 60 55 53 52 48 48 48 50 52 56 59 60 62 63 65 67 70 72 75 78 80 84 86 89 92 96 98 98 98 97 96 96 94 95 96 96
51 55 56 57 55 54 55 53 51 50 48 49 50 52 55 56 59 63 66 68 70 73 76 78 80 84 86 88 92 96 99 103 104 100 97 95 96 98 99 99 99 100 102
50 50 50 50 51 52 51 50 48 46 48 51 54 56 59 62 65 71 73 74 76 81 83 86 87 92 94 96 100 104 107 106 97 93 92 93 93 94 96 98 100 103 105
51 51 49 49 50 50 48 48 46 49 52 55 58 61 64 67 68 70 79 85 86 89 91 94 98 102 106 108 111 113 110 99 97 97 97 98 97 98 99 100 102 104 106
49 48 48 47 47 47 47 48 50 53 56 60 63 67 71 72 73 72 75 85 90 95 98 101 106 111 115 119 120 114 107 105 103 100 98 97 97 99 102 104 107 109 110
48 47 45 46 48 48 49 52 54 57 60 64 68 72 76 78 81 81 80 83 87 94 102 107 114 119 122 125 116 113 110 107 104 102 101 101 101 101 102 102 104 106 110
49 48 48 50 51 52 54 56 59 63 66 69 73 77 79 82 85 87 88 90 90 95 100 106 114 121 122 114 114 110 108 107 106 107 108 109 110 111 112 112 112 112 112
50 51 52 52 53 56 58 61 64 68 72 75 78 81 85 87 90 93 96 97 98 102 106 111 120 114 113 110 107 107 107 109 112 116 120 125 128 129 128 126 125 125 126
53 54 54 54 57 60 62 65 69 73 76 80 83 87 90 92 97 101 103 106 107 105 109 116 109 110 107 108 111 113 115 117 122 126 129 130 130 129 127 126 127 128 128
55 57 57 60 61 63 67 71 75 79 83 86 89 92 95 99 104 107 109 112 116 119 108 108 103 106 110 113 117 120 125 130 129 124 119 114 112 110 112 114 115 115 115
57 58 61 63 65 68 72 75 79 83 86 90 94 97 101 105 108 110 114 119 122 115 109 95 107 114 120 122 126 129 124 116 112 109 106 104 103 102 101 101 102 103 104
58 61 63 66 68 72 75 78 82 86 90 94 97 101 105 107 111 115 119 120 114 109 109 108 114 120 126 130 130 122 113 107 100 98 97 97 96 93 93 94 94 95 95
61 63 65 68 72 75 78 80 84 89 93 97 100 104 108 112 116 120 115 112 106 111 119 121 122 127 131 128 116 111 101 96 92 88 87 87 81 82 85 85 85 83 84
62 65 68 71 75 77 81 84 88 92 96 100 104 108 112 117 117 112 108 105 111 118 125 127 129 131 122 113 103 94 92 88 81 82 82 77 75 76 73 75 78 77 75
64 67 70 74 77 80 84 87 90 95 100 104 109 113 117 111 108 101 106 112 120 127 128 129 128 116 106 98 93 88 83 82 76 74 77 68 68 66 64 65 67 71 70
66 70 74 77 80 82 86 90 95 99 104 108 114 112 107 98 102 108 115 122 129 132 131 122 112 101 96 92 89 85 81 76 74 62 69 62 61 57 56 58 59 58 58
69 72 75 79 81 86 90 95 99 103 109 110 105 101 97 102 108 114 121 127 133 135 122 110 102 95 93 86 83 81 76 69 59 55 60 58 55 47 47 47 50 51 50
70 74 77 82 86 90 94 98 104 108 103 100 93 98 103 107 116 122 127 131 131 120 110 103 98 92 84 80 76 72 68 65 55 47 51 50 52 43 45 40 40 40 42
73 77 81 85 90 93 99 104 102 99 91 91 98 105 109 115 123 128 131 126 115 108 101 98 91 83 78 71 66 63 59 55 53 44 45 42 43 39 41 37 35 33 34
77 81 85 88 93 100 99 96 92 85 92 97 104 110 117 125 128 131 121 110 105 102 98 89 82 76 68 62 56 53 52 51 48 45 42 38 36 38 28 30 30 29 30

GFSMA_250_spd_024.txt.gz
Wind_Speed
78 78 78 79 76 75 74 72 73 71 69 67 69 67 66 65 65 65 58 54 51 48 44 41 40 39 40 40 41 43 43 44 45 45 46 46 47 47 48 48 50 52 58
76 77 76 75 75 74 76 71 72 68 65 63 64 64 65 66 67 61 57 53 49 45 41 41 42 42 42 42 43 45 47 48 50 50 52 52 53 54 55 55 55 57 57
72 73 73 75 77 77 74 73 69 65 65 61 63 65 66 68 67 57 54 49 47 45 44 45 47 47 47 48 49 50 53 55 57 58 58 59 60 62 63 63 64 65 64
66 69 70 71 72 72 73 71 66 64 62 63 66 66 69 67 62 55 52 49 49 48 49 51 52 53 54 55 55 57 58 60 61 63 64 65 66 68 71 72 73 73 74
55 53 53 55 56 58 60 62 64 64 64 67 67 65 64 60 57 53 53 51 52 52 55 56 59 59 60 61 62 64 65 68 70 72 73 75 76 77 78 80 82 84 84
55 53 53 54 56 57 56 59 62 64 66 66 63 62 59 57 55 52 55 54 56 57 60 60 62 65 67 68 71 73 75 77 78 81 82 84 85 87 89 91 94 94 94
54 52 53 53 52 52 54 55 58 61 60 61 60 57 56 56 54 55 56 57 60 61 64 66 68 70 71 73 75 78 82 85 87 89 90 93 95 97 99 101 102 99 92
56 54 53 53 52 52 53 54 54 54 57 58 58 57 55 54 55 56 59 62 65 67 70 72 74 75 75 78 82 86 88 90 92 95 98 100 103 106 108 110 103 96 92
58 55 55 55 54 54 52 52 53 57 58 57 57 56 54 55 56 61 64 67 68 71 75 77 79 80 82 84 86 91 94 96 98 101 104 107 110 112 112 102 102 101 99
59 57 55 56 55 54 54 55 56 55 54 55 55 55 56 57 59 64 71 73 76 78 81 82 85 87 89 90 93 96 98 100 103 107 110 114 115 109 107 106 100 97 95
59 57 56 57 56 56 53 54 53 51 51 53 55 57 60 62 64 67 72 79 80 84 87 92 95 99 99 101 104 105 108 110 112 116 118 115 110 112 101 95 92 91 92
59 58 58 58 58 56 55 53 50 52 55 57 59 61 64 67 71 72 74 79 83 90 94 98 102 106 108 110 111 113 116 119 123 123 118 118 112 103 100 100 101 103 104
60 59 58 59 59 58 57 54 53 56 59 60 62 66 69 73 76 78 80 82 86 91 95 99 105 109 113 115 118 121 124 127 123 121 121 114 111 113 116 118 119 119 119
60 59 59 60 61 59 58 56 58 60 60 63 67 71 74 78 81 85 87 88 89 94 97 100 106 108 112 116 120 124 123 119 121 118 115 117 120 125 129 132 132 131 127
61 61 61 61 62 61 60 60 61 63 66 69 73 76 79 83 86 89 91 93 94 94 99 106 110 114 118 122 123 120 120 118 117 117 117 122 127 131 134 132 125 121 119
62 63 63 62 62 62 63 65 65 68 71 74 77 80 83 87 90 92 94 97 101 102 100 110 114 119 121 117 118 116 114 118 121 124 129 130 126 120 115 112 109 108 105
63 65 63 62 62 64 65 66 68 72 75 78 80 83 86 89 92 95 99 102 106 109 110 114 119 115 115 114 117 120 122 125 128 133 126 115 111 107 103 101 101 100 100
64 65 64 62 63 65 67 69 72 75 78 81 83 86 89 93 96 99 103 107 111 115 119 111 110 107 114 121 122 126 130 134 128 118 109 104 103 98 95 91 92 92 91
65 63 62 63 64 66 69 73 75 78 81 84 86 89 94 96 100 105 108 112 117 117 114 107 104 115 120 126 129 134 134 122 111 104 97 95 91 87 86 84 84 83 83
63 62 63 64 65 69 72 75 78 81 84 86 90 93 97 101 105 109 114 117 112 108 107 112 116 119 125 130 135 126 117 108 98 91 90 88 81 81 78 77 78 76 77
60 61 62 65 68 72 74 76 79 82 86 90 94 98 102 106 111 115 112 108 103 109 116 120 124 127 131 132 120 110 99 94 93 78 84 83 73 75 71 71 69 68 69
59 60 63 67 70 73 76 79 82 86 90 94 99 104 108 113 114 108 101 104 112 120 123 126 130 132 123 114 106 101 94 88 85 76 76 76 66 66 66 65 63 61 61
58 61 65 69 71 75 79 81 86 91 95 101 105 110 113 109 101 97 104 112 120 127 130 132 131 120 110 102 96 95 89 85 80 71 70 68 61 58 57 58 55 55 55
59 63 67 70 74 78 82 86 91 96 101 105 112 112 104 94 99 105 111 120 126 131 134 130 117 106 98 93 88 86 83 80 72 63 57 59 54 52 52 54 50 50 49
62 65 68 73 78 81 86 91 96 101 106 111 107 99 94 99 107 114 120 124 129 134 127 114 104 98 93 87 82 80 74 70 66 62 50 50 46 51 44 48 46 44 44
62 67 72 76 81 86 91 97 102 107 106 101 92 95 99 106 114 122 126 129 131 123 112 105 97 91 85 81 73 67 62 62 58 61 46 48 41 45 43 36 40 38 34

GFSMA_250_spd_027.txt.gz
Wind_Speed
79 87 83 82 78 79 80 81 79 80 80 81 77 76 75 74 69 66 66 63 63 63 64 60 54 51 48 45 43 44 43 41 41 41 42 42 42 43 44 45 46 46 46
74 76 81 83 82 83 83 79 80 79 79 78 78 77 73 70 66 65 62 65 65 63 64 58 53 50 48 47 47 47 48 47 46 47 48 48 49 49 49 50 51 52 53
69 71 72 73 75 75 76 75 76 76 79 77 74 72 70 67 65 62 64 67 68 62 63 54 52 53 51 51 50 51 52 52 53 52 53 54 55 56 57 58 58 59 60
60 63 66 69 70 70 74 72 66 64 61 61 62 63 63 62 63 65 66 67 65 62 56 54 55 54 54 54 55 56 56 56 57 59 60 62 64 65 66 68 69 70 70
62 62 62 61 60 60 60 59 57 57 55 56 57 58 60 62 63 64 64 63 62 58 56 57 57 57 57 58 59 60 61 62 64 66 67 68 68 70 72 75 77 79 80
66 66 64 61 59 59 59 58 57 55 54 55 56 57 58 58 60 61 61 61 59 56 58 59 59 60 61 62 65 64 66 69 70 71 72 73 75 78 80 80 82 85 86
70 69 66 64 63 61 59 57 55 54 55 54 53 53 53 56 58 59 60 59 58 58 60 61 62 63 65 67 69 70 72 74 75 77 78 80 82 83 86 89 90 91 92
72 70 69 66 65 63 61 58 57 57 57 55 55 54 55 57 60 59 59 58 58 61 62 64 66 66 69 71 74 76 78 80 81 83 85 87 89 91 94 95 96 97 98
70 69 70 67 65 64 62 61 60 58 59 57 56 56 57 57 58 59 57 57 59 62 64 67 69 71 74 76 79 81 83 86 87 89 92 94 96 98 101 102 103 104 106
69 68 67 66 68 65 63 63 61 60 59 58 58 57 57 55 53 56 58 60 63 66 68 71 75 77 79 82 84 86 89 92 93 95 98 99 101 103 105 107 109 111 113
70 70 69 69 69 65 63 63 63 61 61 59 59 60 60 59 56 56 61 65 67 70 72 76 81 85 89 90 92 94 95 97 98 101 103 105 107 108 111 113 115 115 111
70 71 71 70 68 67 66 64 64 63 63 62 61 62 63 62 62 63 64 69 71 76 78 82 87 91 94 96 98 98 100 102 104 107 110 112 115 117 119 117 114 108 100
69 69 69 69 69 70 68 66 66 65 64 65 65 65 66 66 68 69 70 71 74 81 84 89 92 94 97 98 101 103 106 109 113 116 120 122 124 121 116 108 104 107 109
67 68 73 71 69 70 69 68 67 65 66 68 67 68 69 71 73 74 76 77 78 83 87 91 96 97 99 101 104 108 112 116 120 126 127 125 123 120 114 117 120 123 125
68 69 69 70 71 72 69 68 68 67 68 69 70 71 73 75 77 79 80 83 84 85 89 95 97 98 100 104 108 112 116 120 123 122 121 118 113 116 120 124 130 133 132
68 70 71 73 74 73 72 71 69 69 70 71 73 74 77 79 81 82 85 88 90 91 89 95 98 102 106 109 114 119 120 117 118 115 114 118 121 125 129 131 131 125 117
67 68 70 73 74 74 72 71 70 72 73 74 75 77 80 82 83 86 88 90 91 92 94 99 104 108 112 118 119 117 115 110 113 120 124 127 129 128 125 114 108 105 103
65 70 72 72 74 74 72 71 72 74 75 75 76 79 82 83 86 88 91 92 95 98 101 104 110 115 119 116 114 108 114 118 124 128 132 128 123 115 108 100 98 98 96
63 70 72 72 71 71 71 71 73 75 76 77 79 82 84 86 89 92 94 96 100 104 109 111 115 118 114 110 112 117 122 127 132 130 126 115 109 102 98 93 90 87 85
60 66 71 70 70 70 70 71 73 75 76 79 82 84 87 90 93 96 98 102 107 112 116 119 114 106 108 115 119 122 127 133 133 119 106 103 99 93 86 83 82 80 76
58 62 68 69 69 69 69 70 72 74 77 80 84 87 91 93 97 100 105 109 114 119 121 116 107 110 116 120 124 130 131 124 116 101 91 93 84 81 78 76 75 72 70
55 58 62 66 67 68 68 69 71 74 79 82 87 91 94 97 101 105 111 115 122 120 116 109 114 117 122 126 130 131 119 107 101 92 77 85 76 74 70 69 70 65 64
56 54 57 62 64 65 66 69 73 77 81 86 91 94 98 102 106 111 116 121 119 112 113 117 118 123 128 132 127 113 105 96 88 82 75 81 69 66 64 61 63 60 59
51 49 53 58 61 63 66 71 75 80 85 89 94 98 102 107 112 117 118 114 108 115 119 123 125 128 129 121 107 100 92 88 87 77 65 70 64 60 60 52 59 56 54
43 46 51 56 59 63 70 74 79 84 88 93 98 102 107 112 118 117 110 107 114 118 123 126 128 127 115 105 95 87 87 81 78 76 60 62 57 54 57 48 54 53 49
43 48 52 57 62 67 73 78 83 87 92 97 103 108 113 115 113 107 107 113 118 122 126 129 126 111 101 91 84 79 73 70 69 71 57 59 53 45 56 43 46 47 48

GFSMA_250_spd_030.txt.gz
Wind_Speed
69 69 71 72 74 77 78 79 85 84 81 80 81 81 81 83 80 78 80 77 73 67 66 63 63 61 63 60 56 54 52 49 46 45 43 42 42 41 42 42 41 41 42
69 67 68 68 69 71 71 74 74 75 79 80 82 82 81 79 79 78 81 72 67 66 63 62 62 63 64 58 52 53 52 50 50 48 47 47 47 47 47 48 48 48 49
72 68 67 65 67 67 70 71 72 71 71 71 70 72 74 78 70 66 61 60 56 58 60 62 63 64 61 56 53 53 54 53 53 52 52 52 51 52 52 54 55 56 57
73 71 69 67 67 67 66 65 65 66 64 63 65 63 61 61 59 58 57 56 57 57 58 60 61 60 56 57 55 56 56 56 56 56 56 57 58 57 59 60 62 63 64
73 73 72 70 70 69 67 65 63 62 60 60 59 58 59 58 56 57 56 57 58 57 59 58 57 58 57 57 57 58 59 59 59 61 62 62 65 65 65 66 67 68 69
69 71 73 74 73 72 71 69 67 64 62 59 56 55 55 55 56 56 55 54 54 54 56 56 58 57 57 58 59 61 62 63 63 64 67 68 70 72 73 72 73 74 75
65 69 71 70 73 74 73 72 71 69 66 64 60 58 56 57 57 57 56 56 55 57 57 56 58 57 58 59 61 63 65 66 68 69 71 74 76 77 79 80 80 81 83
60 64 66 69 70 71 73 72 73 73 70 67 63 61 59 59 59 58 58 58 57 57 58 57 57 57 57 60 62 65 67 71 74 75 78 80 82 83 85 86 87 89 90
58 60 63 65 67 69 70 72 73 73 71 68 65 63 61 59 61 61 61 60 59 59 59 58 59 59 61 63 66 69 72 76 79 80 83 86 88 90 92 93 94 95 95
61 61 61 64 66 67 68 70 71 71 71 68 68 65 63 62 62 63 64 63 62 62 61 62 64 65 66 68 71 75 78 81 85 88 91 92 93 94 96 96 98 98 99
59 61 64 64 66 67 67 70 71 71 71 71 71 69 66 65 64 64 66 65 65 66 67 68 70 73 74 76 79 81 83 86 89 90 93 94 95 96 98 99 100 100 103
55 58 61 62 65 68 69 70 72 74 75 74 72 70 68 66 68 67 67 67 68 73 73 74 75 77 79 82 84 87 89 91 93 96 97 99 99 101 102 104 105 107 111
55 57 58 60 61 65 70 72 72 75 77 76 75 73 70 70 71 70 69 68 69 74 76 80 80 81 83 85 87 90 93 96 97 99 102 104 105 107 109 111 113 113 112
55 53 52 56 58 62 68 72 74 75 75 77 77 75 74 73 74 73 73 72 73 75 79 83 86 87 87 89 91 93 94 97 101 104 107 110 113 116 115 113 109 98 103
50 55 53 59 60 63 68 72 74 76 77 80 79 78 77 76 77 77 77 77 76 76 79 88 87 90 91 92 95 97 99 103 107 111 115 117 118 116 111 101 106 111 116
58 60 60 60 60 62 67 75 77 79 79 77 78 80 80 80 81 82 81 82 83 82 80 87 89 91 94 97 99 101 105 109 114 118 118 115 113 102 105 110 116 122 125
62 60 61 62 60 64 66 70 76 79 80 82 82 83 84 83 83 83 84 86 88 89 88 91 93 96 98 100 104 108 112 116 118 119 114 107 106 110 116 122 125 127 125
61 63 65 64 64 65 67 69 73 78 81 81 82 83 84 85 86 85 86 89 91 93 94 93 98 101 104 107 110 113 117 120 117 111 108 114 116 120 124 125 120 111 105
65 64 65 61 63 65 67 69 71 73 79 82 82 81 82 82 84 86 88 90 93 95 98 98 101 105 109 113 116 118 118 113 111 114 116 122 125 123 119 108 101 98 95
63 63 59 60 65 67 66 67 69 71 72 76 80 80 80 81 83 86 88 92 94 97 100 103 105 109 114 119 120 115 110 111 118 124 124 124 120 109 103 97 92 89 87
59 57 59 64 68 68 66 68 69 70 68 70 74 77 78 79 81 84 88 92 96 100 104 108 112 116 121 121 116 109 111 117 127 127 121 116 101 99 91 87 84 81 78
56 58 65 68 67 69 67 67 67 64 63 66 70 74 76 78 81 86 90 95 100 105 108 112 115 119 121 116 107 112 119 123 130 125 101 101 88 90 83 79 73 70 69
58 60 64 66 66 69 67 65 61 58 61 65 69 73 76 81 85 89 94 101 106 111 115 117 118 118 108 108 113 120 124 125 119 107 90 86 86 82 71 68 60 62 60
53 60 65 69 66 65 61 56 56 58 62 66 71 76 80 85 90 96 99 104 111 117 121 123 117 109 111 117 121 121 120 110 105 97 80 77 78 73 63 56 51 56 55
63 67 66 64 61 56 55 56 59 63 67 73 77 82 86 91 96 101 105 111 117 121 121 113 112 114 119 121 120 113 102 95 88 87 72 68 69 63 59 50 47 48 50
67 63 57 53 53 55 58 62 66 71 75 79 84 89 93 98 103 108 110 114 116 114 113 116 119 120 120 118 106 97 86 81 77 75 64 63 60 55 62 51 44 44 46

GFSMA_250_spd_033.txt.gz
Wind_Speed
67 69 69 70 70 69 68 68 69 69 70 72 74 75 81 77 76 74 80 74 75 74 75 79 77 71 63 60 61 59 57 57 57 54 51 48 48 47 45 43 43 42 42
66 69 70 70 70 70 69 68 69 69 68 67 66 67 66 67 69 71 70 69 69 73 69 65 62 59 58 56 55 56 57 58 56 52 51 50 51 50 49 48 47 47 47
65 65 67 69 73 74 74 73 72 70 68 66 66 66 65 65 65 67 65 65 63 61 61 59 59 59 57 56 55 55 55 56 52 53 53 53 54 53 53 53 53 52 52
61 59 62 67 70 73 75 76 76 73 71 68 68 66 64 63 61 61 62 61 60 59 60 57 57 58 57 56 55 54 53 53 55 55 56 56 56 57 56 57 58 57 57
59 58 60 63 65 69 71 74 77 76 74 72 71 69 68 65 61 60 58 57 58 57 57 57 57 55 55 54 53 53 54 54 56 58 58 58 59 61 60 61 62 63 63
56 58 59 60 62 65 67 71 74 75 76 75 75 74 72 70 67 65 63 61 60 58 59 59 58 57 57 57 56 57 57 57 57 58 59 61 63 65 65 66 67 69 70
56 57 58 60 60 60 63 65 67 72 74 74 75 76 75 74 71 69 68 66 64 63 63 60 60 59 58 57 58 59 59 58 58 59 60 62 65 67 69 71 73 75 77
53 55 58 59 59 60 59 60 65 66 68 71 73 73 75 76 74 73 72 70 66 65 66 65 63 61 59 58 58 60 60 61 60 61 63 65 68 71 74 76 79 81 83
55 57 59 61 61 61 60 59 61 64 65 67 68 70 72 73 74 73 73 72 69 68 68 67 66 65 62 62 61 62 62 64 65 68 70 72 74 77 79 82 84 86 88
49 51 51 58 60 61 62 62 62 64 65 66 67 68 69 71 72 73 73 72 71 72 71 69 69 67 66 64 66 66 67 69 71 73 76 78 80 82 85 87 89 91 91
51 51 57 58 58 60 62 63 65 67 66 67 68 69 69 70 71 73 75 75 75 75 74 73 73 71 70 69 69 70 72 74 76 78 80 81 82 84 87 88 91 92 93
59 58 60 61 60 60 60 61 62 62 64 66 69 72 73 72 72 74 78 80 80 81 80 78 77 76 74 73 74 75 77 79 80 82 83 84 84 87 89 90 92 93 96
61 59 61 62 61 61 60 58 56 58 57 60 66 71 74 75 76 76 78 81 83 84 84 86 84 81 80 79 80 80 80 83 86 87 89 89 91 93 94 95 97 98 102
64 63 63 63 62 61 60 58 59 60 64 63 65 69 73 76 78 80 80 80 80 81 85 87 88 88 86 86 87 87 86 89 90 92 94 96 97 99 100 101 103 106 110
67 63 63 63 64 63 63 64 64 66 66 66 67 68 71 77 80 81 82 82 81 81 85 92 91 93 92 93 94 93 94 95 97 99 101 102 104 105 106 107 111 115 116
66 65 64 63 62 62 63 66 68 67 70 70 71 71 72 74 77 82 88 88 87 85 83 89 93 95 97 98 99 99 100 101 104 106 106 107 109 110 112 115 119 118 110
66 65 63 61 62 63 65 70 71 71 73 73 71 71 71 73 76 78 81 85 87 87 86 87 90 94 97 99 100 101 103 105 108 110 111 113 115 116 119 122 117 107 108
67 64 60 60 61 66 70 71 72 73 73 72 71 71 74 77 77 76 77 79 82 86 85 84 88 91 94 97 98 100 103 107 109 112 114 115 120 123 123 112 110 113 117
65 57 61 66 67 70 70 73 71 73 72 72 73 76 77 77 77 76 73 72 74 79 83 83 86 90 92 96 97 100 103 108 112 115 117 121 125 119 110 113 117 119 119
55 61 64 66 66 70 71 68 71 72 73 77 77 75 76 75 74 70 67 68 71 76 80 84 85 87 91 96 97 100 106 113 117 121 124 122 111 113 117 118 117 113 103
54 56 57 65 68 66 66 68 69 71 74 76 77 78 74 69 65 64 65 69 74 79 82 83 86 91 95 99 104 110 113 118 124 122 109 114 115 117 119 112 102 95 91
44 51 57 53 58 62 66 67 67 72 77 76 74 70 67 65 65 67 70 74 78 82 85 88 92 96 101 106 111 116 118 115 107 115 109 116 114 114 106 97 92 82 80
45 48 49 56 64 62 60 65 72 76 80 76 72 68 68 70 71 74 78 82 87 92 94 96 98 104 108 113 115 112 106 105 110 114 109 105 103 100 94 88 83 73 66
39 44 52 57 60 64 66 70 73 76 74 69 69 71 74 78 81 84 87 91 95 100 104 108 111 112 111 107 103 104 107 108 109 108 99 93 93 89 87 85 72 59 53
43 47 54 60 63 69 72 77 80 73 71 74 76 79 82 85 88 91 93 96 101 106 109 111 109 105 104 105 107 107 105 102 101 98 91 84 83 75 72 73 61 51 56
47 55 59 66 71 76 80 83 73 74 77 80 83 86 89 90 94 97 99 101 102 104 106 107 108 109 110 109 106 103 98 93 89 87 82 76 71 62 62 68 57 52 56

GFSMA_250_spd_036.txt.gz
Wind_Speed
78 76 74 70 70 71 71 69 69 69 70 71 70 69 70 68 66 67 66 65 66 66 67 66 66 68 68 66 65 61 59 55 52 51 50 50 52 53 51 47 46 46 45
74 72 69 70 68 68 69 69 69 69 70 72 71 69 71 71 70 68 66 64 63 63 64 63 65 64 62 61 60 61 58 55 53 51 51 52 53 52 51 48 49 50 48
69 67 66 68 68 68 67 66 67 69 70 71 72 72 72 74 73 71 69 67 65 65 64 63 63 61 61 61 60 59 57 55 53 52 53 52 53 53 51 51 52 53 52
66 64 63 64 65 65 65 65 65 65 68 70 71 72 73 74 75 74 73 71 68 68 67 65 62 60 59 59 59 58 57 56 55 53 54 55 54 53 55 55 55 56 57
61 61 61 62 62 63 65 64 65 65 65 67 69 70 71 72 74 75 74 74 73 73 71 70 68 65 63 62 61 59 58 57 56 56 56 57 57 57 57 57 57 58 59
51 52 56 58 60 62 63 63 64 65 64 65 68 69 70 71 73 74 75 75 75 75 74 74 72 70 68 67 66 63 61 59 57 57 58 59 60 60 60 59 59 60 61
55 49 53 53 52 57 60 62 62 63 64 64 65 66 68 69 71 72 74 75 75 74 75 76 75 74 72 71 70 67 64 62 61 59 60 59 59 61 61 61 61 62 63
52 52 53 55 55 56 58 60 60 61 62 65 67 67 66 66 68 70 71 72 74 74 75 75 76 76 74 73 72 70 68 66 65 62 61 60 59 60 61 62 63 64 66
52 55 58 60 57 59 61 58 56 59 60 61 64 68 68 67 67 68 69 71 71 73 75 75 75 76 76 76 75 73 72 71 69 67 65 64 63 64 65 66 68 70 72
56 58 61 60 59 60 62 60 64 64 60 61 63 64 64 66 69 70 70 71 71 73 73 74 75 75 76 78 78 77 77 77 74 72 72 71 69 70 71 72 74 76 78
62 59 60 61 65 63 59 61 64 64 62 62 59 60 60 62 63 66 69 72 74 76 77 78 78 78 79 81 83 83 83 81 81 79 77 77 76 75 76 77 79 81 82
67 66 66 66 67 67 67 66 67 68 67 64 61 61 60 59 60 62 65 68 72 77 80 82 83 83 84 86 88 88 88 88 87 87 87 85 83 83 83 82 83 84 85
65 68 67 69 71 69 66 64 69 71 71 68 64 64 63 64 64 64 64 66 68 72 77 83 85 86 87 87 88 89 89 89 90 91 91 91 92 92 91 91 91 92 92
66 67 68 69 69 68 66 67 70 71 73 73 67 64 65 66 68 68 67 68 70 72 74 80 83 88 90 90 91 91 89 90 92 94 95 95 96 97 98 98 99 101 101
72 71 72 70 68 69 69 69 71 71 74 74 69 68 69 72 72 71 70 72 71 69 71 79 83 86 87 89 93 94 93 92 92 93 94 96 99 101 103 103 105 105 105
75 73 72 71 70 68 69 70 71 72 75 72 72 72 75 75 74 72 73 71 72 74 73 77 81 83 84 87 88 89 92 94 94 94 94 95 97 98 100 102 103 104 104
76 75 71 70 68 68 68 68 69 59 68 74 72 78 78 78 74 74 72 73 78 80 79 79 80 82 82 84 86 86 86 88 92 95 96 97 98 99 99 101 102 102 104
71 67 68 67 65 66 67 70 65 69 79 75 79 79 79 77 77 73 73 78 82 83 81 80 80 78 77 77 76 77 79 84 88 93 97 99 99 101 101 102 104 107 112
62 61 61 62 64 65 68 68 71 75 76 80 79 79 79 77 71 74 79 83 83 81 78 71 68 69 71 74 74 76 79 86 90 95 98 99 101 104 107 109 112 117 120
57 58 61 65 64 66 67 65 70 78 80 81 78 79 75 72 75 79 80 76 73 72 73 72 71 73 76 80 80 81 85 90 93 99 102 104 108 111 116 118 119 119 117
54 57 59 61 60 61 59 60 72 79 76 78 75 67 70 73 78 77 76 75 76 79 81 81 82 82 84 85 88 91 92 96 103 108 111 112 111 109 110 111 113 115 115
49 51 50 48 49 49 51 65 77 76 73 67 67 71 75 78 79 80 79 82 85 88 91 91 91 92 93 95 97 99 101 102 99 106 103 104 107 109 112 114 116 113 105
39 39 34 39 48 58 61 65 71 72 70 72 74 78 84 85 84 83 86 91 94 97 96 95 96 97 96 98 95 94 96 97 102 107 106 108 110 108 108 107 105 97 85
34 38 44 48 46 57 63 61 61 64 66 74 81 83 86 88 87 91 93 96 99 101 101 102 101 99 97 97 98 99 104 105 107 107 104 97 98 97 96 97 94 83 70
42 44 47 54 55 55 58 60 64 71 77 83 86 85 85 91 92 96 99 100 101 102 102 102 102 102 102 104 105 105 104 101 100 99 97 89 89 86 84 88 85 72 56
45 48 48 46 47 52 56 62 68 73 80 82 84 87 90 93 97 100 101 99 97 99 104 108 109 109 110 110 106 101 97 94 92 90 88 80 79 74 72 80 74 59 55

GFSMA_250_spd_039.txt.gz
Wind_Speed
79 80 81 83 82 83 84 82 80 78 78 74 73 73 71 71 70 69 69 68 68 67 66 65 64 62 60 59 59 57 58 57 57 56 55 53 51 47 46 44 45 48 49
79 80 79 78 79 81 81 78 76 74 73 71 72 73 73 72 71 70 69 69 68 69 68 67 66 65 64 61 60 58 59 57 57 56 53 51 50 47 47 46 47 49 48
77 77 77 76 75 74 75 73 71 71 69 69 70 70 72 72 72 70 70 69 69 70 70 68 68 67 66 65 64 62 61 58 57 57 56 54 50 49 48 48 49 49 50
71 71 67 67 67 67 67 67 67 68 67 67 66 67 68 69 69 70 70 70 71 70 70 70 70 70 69 69 67 67 66 64 63 62 60 58 54 51 50 50 52 53 53
62 61 61 61 62 60 60 59 60 61 61 63 64 65 66 67 68 68 68 68 69 69 69 70 70 70 70 71 70 70 69 68 66 66 65 63 60 57 54 52 54 56 57
62 59 56 56 60 60 59 59 56 56 57 59 60 62 64 66 66 66 68 69 69 69 69 69 69 70 71 71 72 71 71 70 71 70 68 66 65 62 59 57 56 57 59
66 65 65 60 59 59 58 58 55 56 57 55 55 58 59 60 64 67 69 70 70 69 68 68 69 70 71 71 72 73 73 72 72 73 72 70 68 67 64 63 61 59 60
65 68 64 63 62 62 57 58 59 61 61 61 60 60 59 61 62 63 66 68 68 70 71 70 69 70 71 71 72 73 73 73 73 73 72 72 72 71 69 67 66 65 62
66 64 62 60 61 61 59 61 63 66 64 63 64 65 61 61 61 62 60 62 64 64 66 67 69 71 73 74 74 74 74 75 75 75 74 74 73 74 73 72 70 70 69
72 67 64 66 63 62 65 66 71 69 64 67 66 68 71 69 66 63 63 60 60 63 63 63 64 66 69 73 76 78 78 79 79 79 79 79 79 78 78 77 77 76 74
73 69 67 67 68 70 72 72 74 71 72 72 70 74 73 71 71 67 67 67 65 64 65 64 65 66 66 67 71 75 79 82 84 85 85 85 85 85 85 85 83 82 82
70 70 69 70 72 70 70 73 76 79 76 73 72 74 74 74 75 74 70 69 67 66 64 66 67 68 68 70 71 72 74 77 82 87 90 92 91 91 90 91 91 91 89
73 70 71 72 74 73 72 72 74 77 79 76 74 74 75 76 77 73 74 72 69 69 70 70 69 70 71 70 70 71 74 77 81 84 86 89 92 94 96 96 95 93 93
74 74 74 73 73 74 75 73 72 74 77 76 74 76 77 77 76 76 75 73 74 74 76 76 76 74 73 73 76 79 80 80 82 84 85 87 88 91 95 98 98 97 96
82 80 78 75 74 75 75 75 75 75 75 78 76 76 77 78 78 81 73 74 74 76 77 80 78 77 74 78 83 86 85 85 86 85 85 85 86 88 90 92 95 99 98
85 86 83 78 75 76 75 77 78 77 76 77 76 75 79 82 84 80 77 79 80 83 79 78 78 76 79 83 91 90 89 88 88 87 86 85 85 84 83 84 86 89 93
86 88 87 85 81 79 78 78 79 77 76 73 73 75 77 81 84 79 85 86 86 87 83 79 77 80 81 85 88 83 80 79 79 81 81 81 81 80 80 81 82 83 86
87 87 86 84 82 79 79 79 76 75 72 71 73 74 70 83 82 84 88 88 87 86 84 78 82 86 88 88 78 75 75 77 79 83 85 86 85 85 86 87 87 88 91
86 85 85 82 77 76 77 74 72 70 69 70 71 74 78 85 87 86 87 90 88 84 80 83 86 86 79 79 78 79 80 83 86 88 91 90 88 90 91 92 93 96 99
84 82 70 67 66 66 66 67 68 67 68 72 74 78 83 86 87 85 84 84 81 80 84 85 81 79 81 85 86 85 87 91 92 96 98 95 94 95 97 97 98 101 104
63 66 69 64 59 58 61 64 65 67 72 73 72 74 81 84 82 84 83 85 84 82 84 83 84 91 91 93 93 94 94 94 96 96 97 97 94 96 98 99 103 106 108
55 55 56 53 53 54 54 58 64 69 70 71 72 74 78 83 86 89 87 84 83 85 88 92 96 99 100 101 99 98 96 95 96 104 102 103 101 104 105 108 110 109 108
33 36 42 45 47 47 51 59 63 65 66 69 71 75 79 83 84 87 83 84 89 96 100 100 102 104 103 101 98 100 103 102 105 109 106 105 106 104 104 105 104 102 98
22 28 33 37 41 49 57 59 60 64 68 71 73 74 74 79 84 84 87 95 102 104 103 105 106 103 103 105 107 108 110 109 111 111 102 93 94 94 95 97 95 91 82
22 26 32 39 44 48 51 56 61 65 68 69 71 75 80 82 87 90 95 98 100 105 107 107 107 109 110 113 114 111 110 106 102 99 96 83 87 85 85 89 87 80 69
27 30 36 42 45 47 51 55 58 60 62 67 72 76 80 85 89 94 97 99 102 102 105 110 113 117 117 116 111 105 99 94 92 90 88 78 80 77 74 81 79 70 61

GFSMA_250_spd_042.txt.gz
Wind_Speed
74 75 77 78 77 79 80 80 80 80 81 80 79 78 77 77 73 72 72 69 67 68 68 68 67 67 66 66 65 63 61 59 58 55 52 51 52 49 48 45 43 42 40
80 81 80 78 79 77 82 79 78 76 73 73 74 72 71 70 69 66 66 66 65 65 64 63 63 64 64 64 64 64 64 62 60 58 57 55 54 53 51 48 46 43 41
79 77 78 78 77 77 72 71 70 67 64 63 64 64 65 65 64 61 63 63 64 64 64 63 62 62 62 62 63 63 63 63 64 62 61 59 58 56 56 54 51 49 46
72 72 71 70 69 71 73 68 64 58 58 59 60 60 60 58 57 57 57 59 61 62 62 63 63 62 62 62 62 63 64 63 64 64 64 63 62 60 58 58 56 53 51
71 67 66 65 68 71 69 65 63 62 64 60 58 58 57 56 53 53 53 54 55 57 58 61 63 64 65 64 63 62 63 64 65 65 65 65 64 64 63 61 60 58 56
70 71 69 69 69 73 69 68 67 64 61 60 60 57 55 54 54 54 54 57 58 57 56 59 61 63 65 65 65 65 64 63 64 65 66 66 66 66 66 65 64 62 61
70 70 71 73 75 74 71 73 66 61 61 61 60 57 56 58 61 59 57 58 58 61 62 60 59 59 61 62 62 63 63 64 65 66 66 67 68 68 68 68 68 67 64
72 76 76 77 76 72 68 68 65 64 64 65 68 62 60 66 66 63 64 64 65 66 62 62 62 61 59 59 59 59 60 62 63 65 67 68 69 69 70 71 70 70 69
79 77 79 73 73 70 69 68 70 68 68 71 67 67 68 69 66 68 69 69 70 70 67 66 66 65 64 63 62 61 60 61 60 61 63 66 69 71 73 74 74 74 74
84 83 80 74 72 72 69 70 73 73 75 72 71 72 69 69 68 70 72 73 72 74 71 69 68 67 66 65 63 61 63 64 64 64 65 66 67 69 71 75 79 81 81
90 88 86 70 70 70 73 71 72 72 73 75 77 75 73 70 72 71 73 76 75 74 74 71 72 72 71 69 66 64 66 64 65 67 70 72 71 73 74 75 78 80 84
95 91 84 80 73 73 73 73 73 75 76 76 76 75 74 74 71 71 74 77 77 78 77 77 77 75 77 68 69 68 69 69 68 69 69 70 74 76 79 80 80 81 82
99 95 89 80 79 77 74 74 74 73 74 74 75 77 76 76 75 75 75 78 80 80 81 81 80 80 74 73 73 73 74 72 71 73 72 75 77 81 82 79 79 79 81
97 93 89 82 81 79 77 73 74 76 76 75 77 78 79 79 79 79 80 81 82 83 81 82 84 84 80 78 73 75 80 75 74 75 78 80 81 83 80 80 78 76 76
96 91 89 86 82 72 72 75 76 78 76 77 77 77 78 79 82 81 82 83 84 82 85 87 87 84 84 80 79 84 80 78 79 77 84 87 87 85 80 79 76 74 75
98 97 95 93 88 82 82 79 79 78 75 77 79 81 79 83 83 84 83 84 85 86 86 89 89 91 90 86 86 85 84 83 83 86 89 89 87 77 77 75 76 78 79
91 91 91 92 91 90 87 83 79 79 79 81 83 83 84 87 85 84 82 83 85 88 89 86 90 95 92 87 88 90 86 85 90 92 92 85 82 81 80 82 82 83 84
84 81 79 83 87 88 88 85 82 79 80 80 82 85 85 86 85 83 81 85 85 89 90 91 94 95 92 87 89 92 93 95 87 85 85 87 87 84 86 86 85 85 85
85 83 82 82 82 82 83 84 84 83 83 82 83 85 86 87 81 82 83 84 86 92 95 96 99 90 87 91 92 92 93 88 88 89 91 90 88 88 88 86 85 85 88
78 79 79 81 81 81 82 84 85 82 78 80 78 78 77 77 78 80 82 87 93 94 96 94 89 86 90 94 95 94 92 94 91 96 97 93 89 89 92 91 93 95 96
66 68 66 65 67 72 72 77 80 80 74 68 68 71 73 75 79 82 85 90 94 94 94 88 90 95 101 98 96 95 93 91 96 97 98 102 101 102 103 101 101 101 101
56 60 60 58 58 58 58 62 64 63 61 60 62 68 72 77 81 83 87 90 84 83 90 93 94 99 98 100 98 97 98 97 100 107 108 112 109 112 111 111 105 101 97
50 53 53 53 56 55 58 50 44 45 48 57 63 69 71 76 80 77 79 81 86 89 90 92 96 100 103 100 96 99 103 106 111 115 110 118 116 116 108 103 97 92 89
25 25 24 27 30 31 34 33 35 41 50 57 64 68 71 73 77 78 80 84 89 92 94 99 102 100 98 101 104 108 112 117 121 123 112 105 103 98 95 93 87 80 74
12 16 10 8 16 17 27 33 41 49 56 61 62 62 64 70 75 78 81 87 91 95 97 97 99 103 106 110 112 116 121 122 117 108 96 89 92 85 83 83 78 71 63
5 6 12 15 20 26 32 39 44 50 53 56 59 64 70 74 79 84 87 89 90 92 97 102 107 110 114 117 119 120 114 106 98 94 87 82 78 72 73 71 65 62 61

GFSMA_250_spd_045.txt.gz
Wind_Speed
69 70 72 72 72 72 75 76 77 74 73 73 71 70 71 72 70 68 64 62 60 60 59 60 58 59 58 59 58 57 57 56 57 56 56 56 56 55 52 51 49 47 45
74 75 74 74 73 74 74 73 71 71 72 70 68 72 69 63 61 59 58 55 54 53 52 54 54 54 55 54 55 56 57 57 56 55 55 56 55 56 55 53 54 52 50
73 73 72 72 70 69 70 70 71 69 66 66 66 67 67 65 61 57 54 52 50 51 51 50 49 49 49 50 53 54 55 56 55 56 56 55 56 56 56 56 56 56 54
70 68 69 69 69 70 71 70 66 64 63 69 67 69 68 65 60 54 54 53 48 47 49 47 49 51 51 49 51 52 54 55 56 57 58 56 56 56 56 56 57 57 58
71 73 73 74 74 73 71 67 64 65 68 69 68 71 70 65 61 55 53 49 49 50 52 49 50 51 53 53 52 51 52 54 56 56 56 56 56 56 56 56 57 58 58
75 72 71 70 71 67 69 66 69 71 71 71 71 70 68 64 61 59 57 57 55 57 55 56 58 58 58 57 54 53 51 51 53 54 55 56 57 58 58 57 57 57 58
71 71 71 70 68 68 71 74 74 74 73 71 71 70 69 69 66 65 62 61 60 62 59 59 60 62 62 61 60 57 55 55 54 53 52 55 54 55 59 62 62 61 61
78 78 77 77 77 75 75 75 76 74 74 76 72 68 70 70 70 70 69 66 64 63 62 63 64 62 61 63 62 61 61 61 61 61 58 54 54 57 58 58 60 63 64
79 80 80 79 79 79 77 78 76 77 74 74 73 69 70 71 71 73 71 69 68 68 67 66 64 65 65 63 64 64 64 66 65 64 58 58 54 55 58 59 60 61 63
83 79 79 79 81 80 78 79 82 81 78 75 72 73 72 72 73 71 71 71 71 69 68 66 66 68 68 66 66 66 68 69 68 68 66 61 58 57 59 62 64 66 67
88 88 87 85 83 83 83 82 83 82 76 73 74 74 74 73 72 72 69 71 70 71 72 72 72 72 71 69 68 70 72 72 71 72 71 66 63 60 64 63 62 66 66
93 92 92 92 92 92 90 91 90 82 80 80 76 75 71 73 72 72 72 73 74 75 76 76 76 76 75 73 73 75 76 77 74 75 69 66 67 66 67 65 66 68 72
97 98 98 98 98 99 95 89 79 77 77 76 76 74 74 75 73 73 74 73 73 71 67 79 77 80 80 79 80 79 81 80 79 76 72 71 72 71 73 71 73 71 73
106 106 105 105 104 100 91 83 81 80 78 75 76 74 74 75 76 78 78 77 78 73 81 83 85 86 86 85 86 86 82 84 80 80 77 76 78 76 75 72 76 77 78
112 113 113 113 108 104 97 91 84 81 84 80 76 73 74 74 76 79 79 79 80 83 85 87 87 92 92 91 89 88 87 84 85 84 85 83 79 80 79 77 77 82 85
115 111 107 103 102 101 98 94 90 90 89 86 84 82 80 78 82 82 84 84 83 83 92 89 91 94 95 95 94 91 89 88 91 89 84 78 81 84 83 84 86 85 87
106 106 104 104 104 104 103 100 96 92 89 89 87 86 86 85 85 84 86 87 88 92 92 91 92 95 97 95 96 95 92 91 94 94 83 83 86 85 85 88 88 87 87
96 96 95 95 95 95 94 94 91 89 84 81 82 87 87 89 90 87 91 89 89 94 93 94 93 94 94 96 95 95 95 95 91 86 91 91 89 88 88 90 91 93 94
88 87 88 86 85 86 86 84 83 82 80 77 76 77 81 83 85 85 84 88 92 91 89 90 91 91 92 93 95 95 94 92 94 92 95 92 93 94 94 92 90 89 89
71 74 76 76 76 76 77 78 78 77 77 78 79 82 86 87 88 87 84 82 90 85 87 90 90 90 90 92 94 97 92 96 96 100 101 102 99 95 97 97 97 97 96
57 65 70 70 69 67 67 67 69 71 72 74 77 80 86 86 89 86 84 78 79 81 86 89 87 88 90 93 90 91 93 97 99 102 103 102 100 103 105 105 102 99 97
51 56 60 61 60 61 61 63 64 66 67 69 70 71 72 73 73 69 70 74 77 80 85 87 87 90 88 89 91 94 96 98 99 102 100 107 106 111 111 109 104 97 90
34 44 49 49 50 53 51 53 58 62 64 65 61 62 63 62 59 59 66 72 77 79 81 82 85 89 89 92 95 97 98 99 103 107 104 109 113 118 112 106 94 87 82
17 24 31 39 42 41 45 48 50 53 54 59 59 55 55 54 57 60 64 69 76 79 82 85 88 90 93 95 94 96 101 104 106 110 104 112 116 109 102 93 82 75 71
18 11 5 14 21 23 24 28 34 36 38 40 44 47 51 53 58 62 66 70 77 83 87 88 91 93 93 95 99 102 105 106 107 111 106 111 101 95 88 77 71 65 63
21 15 12 8 10 12 14 18 22 25 31 37 42 47 51 57 62 68 74 79 82 85 88 90 90 94 98 101 102 104 107 109 109 109 99 98 84 78 78 67 58 63 63

GFSMA_250_spd_048.txt.gz
Wind_Speed
69 68 67 68 67 69 72 71 69 69 68 67 68 68 69 67 66 63 63 62 61 61 59 54 50 48 47 45 45 44 44 44 45 48 49 49 50 50 52 52 52 51 51
73 72 70 73 70 69 70 71 69 70 68 68 70 69 66 64 64 64 61 61 61 61 58 51 49 47 44 45 42 43 44 46 46 46 47 47 49 50 50 50 51 52 51
75 74 74 72 71 70 70 72 71 70 70 71 67 66 62 64 66 64 62 62 63 60 54 50 47 47 47 46 46 46 47 46 46 48 49 47 48 49 50 51 51 52 52
74 73 72 71 71 72 73 75 74 72 71 68 67 66 64 68 66 66 66 65 63 60 56 52 53 54 53 51 51 51 52 51 50 48 47 44 45 46 48 50 51 52 51
74 74 74 74 74 75 75 75 72 70 67 65 68 68 69 69 68 68 68 70 63 61 61 60 58 58 57 57 53 52 52 50 49 49 49 47 47 44 45 46 49 51 54
76 76 77 76 77 76 73 70 69 70 67 69 70 70 71 71 71 71 72 72 65 63 63 63 63 61 60 59 60 60 56 53 52 50 48 49 50 48 47 47 48 49 50
80 80 81 81 79 77 76 71 72 72 75 74 72 73 72 71 73 74 71 68 68 68 67 66 66 64 62 61 62 59 58 57 55 54 54 53 52 53 51 48 48 49 50
85 84 84 82 81 79 78 76 76 75 76 76 76 75 72 73 75 72 71 71 71 69 70 69 67 66 63 61 60 60 58 57 58 58 58 56 55 56 55 54 55 53 52
84 83 83 83 83 81 77 76 75 76 75 76 76 76 77 77 76 73 73 72 72 71 73 71 71 69 67 65 65 65 64 61 61 62 62 60 59 61 61 59 59 57 55
88 86 86 85 83 84 83 83 82 83 82 81 81 81 80 80 76 75 72 70 74 76 73 73 72 72 70 70 71 69 68 66 64 64 65 65 66 64 64 63 62 61 60
89 88 87 87 87 87 88 88 87 85 85 86 85 84 85 84 83 79 76 76 73 72 70 70 68 70 70 72 71 71 73 72 70 70 70 70 71 71 68 67 69 63 63
96 96 96 94 93 93 92 90 88 88 89 91 91 92 89 86 79 77 73 72 73 75 74 75 75 74 74 76 78 79 76 76 77 76 78 78 77 74 73 71 71 66 65
99 100 100 98 96 96 95 94 94 94 95 95 94 92 88 84 83 75 77 77 75 78 79 78 79 79 79 78 79 77 82 84 82 84 83 83 83 80 76 75 73 72 71
106 108 108 108 106 105 103 102 101 101 101 100 97 94 90 83 79 80 79 77 77 81 82 82 82 81 82 83 83 88 87 87 89 90 92 91 89 85 80 75 74 75 76
114 117 116 116 116 115 113 111 109 107 104 100 95 91 89 85 83 84 82 85 87 86 86 87 85 87 86 90 91 90 89 92 92 92 94 95 92 86 83 76 75 76 73
118 120 121 121 122 120 118 115 111 105 99 95 92 91 91 89 88 87 82 92 92 89 91 92 92 91 94 94 94 97 97 94 96 97 95 95 93 84 77 76 79 83 79
110 111 111 111 110 109 108 105 103 100 98 96 95 95 94 94 93 91 90 95 93 95 97 99 98 97 97 99 95 94 97 97 98 99 96 94 88 81 78 82 85 83 84
100 101 102 104 106 106 105 104 102 101 100 98 97 97 97 96 94 93 91 95 90 89 92 95 96 96 97 100 100 99 99 99 98 98 92 87 85 86 90 88 87 86 85
85 86 87 89 92 97 98 99 99 96 95 94 91 89 87 85 85 83 82 88 86 86 89 97 93 92 94 98 100 100 98 96 92 90 88 86 89 92 92 92 90 89 89
66 67 72 75 76 82 85 85 84 82 81 80 79 79 80 80 82 82 85 86 85 81 77 93 97 97 97 99 97 93 91 91 87 89 90 91 92 95 94 93 90 90 89
45 47 50 54 58 63 72 74 74 73 72 72 72 73 74 76 79 79 82 85 86 86 90 101 100 96 93 89 88 88 88 90 92 94 95 97 97 95 94 93 94 94 94
28 29 31 32 35 42 56 66 69 69 69 71 71 70 72 74 75 76 78 80 81 82 83 83 83 84 79 78 79 84 87 91 94 98 95 98 96 99 99 102 99 97 98
14 13 15 19 25 34 42 51 57 61 62 63 64 67 69 72 74 76 77 77 79 79 79 78 73 73 75 79 81 86 90 92 96 96 93 99 103 104 104 105 101 97 93
22 25 19 9 11 20 29 37 44 49 53 57 59 60 63 64 64 66 71 71 70 70 69 72 75 78 80 83 86 90 93 95 97 97 96 101 103 104 104 99 91 84 80
27 25 24 23 21 13 6 11 18 24 26 28 29 32 35 37 39 45 51 57 63 68 71 74 76 79 83 87 89 92 95 97 100 99 98 101 102 99 97 89 79 71 68
22 21 18 16 14 12 10 9 13 16 21 25 29 33 37 42 47 52 58 64 70 75 79 81 83 86 89 92 94 94 96 97 95 98 97 104 98 88 88 77 67 59 56

GFSMA_250_spd_051.txt.gz
Wind_Speed
67 70 71 71 70 71 72 73 73 72 70 69 68 68 68 68 68 67 65 63 62 59 59 57 56 56 53 46 46 45 46 46 44 43 44 44 44 44 45 44 44 45 46
71 72 72 72 73 72 73 73 72 72 70 70 69 69 69 71 68 66 63 62 63 61 59 58 57 57 55 52 49 50 50 51 48 47 47 49 49 47 44 42 40 41 43
72 73 73 72 73 73 72 73 73 73 72 71 70 70 71 70 67 66 64 67 64 65 61 62 61 59 58 57 54 52 52 52 51 48 46 48 44 42 42 43 40 38 39
72 73 74 74 75 74 73 73 74 74 73 71 73 74 73 69 67 66 68 68 69 68 64 65 64 62 60 58 57 57 56 54 52 52 51 48 45 45 42 42 43 41 39
76 75 76 78 78 78 77 77 77 76 73 73 73 72 67 69 69 69 70 70 71 69 68 68 68 66 65 62 60 60 59 58 56 54 51 47 46 45 45 44 43 41 39
81 83 83 83 83 81 83 82 81 78 77 77 76 72 72 72 71 73 72 72 72 71 68 69 68 68 69 66 65 63 61 61 59 56 53 48 48 47 47 46 45 43 40
86 87 87 87 86 84 85 84 84 82 78 76 76 76 72 72 73 76 74 73 74 72 69 68 69 71 67 66 67 67 66 64 62 60 57 54 54 52 52 49 46 47 46
93 94 92 92 90 91 90 88 86 82 82 80 76 74 71 72 75 76 77 76 74 74 72 72 73 69 69 71 71 69 67 67 64 62 60 58 55 55 55 53 52 50 51
99 96 95 93 95 91 92 91 89 88 86 83 80 78 76 76 79 80 79 78 76 76 78 78 78 75 77 73 72 70 69 67 64 63 65 63 62 62 61 58 57 56 56
99 97 96 96 94 93 91 92 92 89 89 84 85 82 83 81 82 81 80 79 80 79 82 83 80 77 73 70 71 71 70 69 70 71 70 70 68 64 62 63 64 63 63
100 98 95 95 95 93 93 94 93 92 94 92 90 89 88 84 82 80 79 81 84 86 83 84 81 76 74 73 72 72 74 74 76 76 76 75 72 70 68 69 72 72 68
99 99 100 99 97 98 97 96 97 96 95 96 93 91 89 84 81 81 85 86 89 88 86 85 83 78 79 77 76 77 77 78 79 80 79 76 77 75 75 77 79 78 76
101 102 104 105 105 104 103 101 100 99 96 95 94 90 91 90 91 91 93 93 92 89 87 86 83 81 80 82 82 82 84 83 84 82 82 82 83 83 84 82 83 82 81
105 108 110 113 113 114 114 112 108 106 106 106 105 104 103 102 102 100 98 93 86 86 85 81 79 82 85 86 86 87 86 90 89 87 88 89 89 90 90 89 91 88 83
114 118 120 122 124 124 123 124 122 120 119 117 113 112 108 105 102 99 93 88 81 90 85 83 83 88 90 93 90 85 91 92 92 95 94 97 97 97 97 93 90 88 87
111 111 112 113 112 113 113 115 115 114 114 112 110 106 102 98 96 92 90 87 84 88 88 88 85 88 101 98 98 99 100 103 102 100 98 101 102 99 99 95 93 90 89
106 107 106 105 107 107 109 111 112 112 110 108 106 101 98 95 91 88 87 87 88 90 93 94 95 96 97 97 100 102 96 94 99 97 96 97 97 96 96 96 95 93 88
100 100 95 89 89 93 96 102 104 107 110 108 105 102 100 96 92 90 89 89 92 95 99 101 99 94 91 103 97 91 100 98 100 103 97 92 97 98 100 98 95 86 81
92 84 79 77 76 76 77 82 91 99 97 97 100 103 102 100 98 96 95 96 97 96 95 94 92 88 89 95 96 103 101 99 99 104 100 101 95 91 88 86 84 82 83
73 64 59 57 60 59 58 61 67 77 87 88 88 87 89 91 90 88 87 85 83 82 84 84 86 87 88 90 96 99 100 102 103 104 101 100 87 76 75 77 80 83 84
56 62 57 53 49 45 42 42 46 55 66 74 77 80 79 77 76 74 73 73 75 78 80 82 83 84 87 90 95 94 93 93 93 90 85 80 80 80 83 84 87 87 87
46 47 51 42 33 30 31 31 33 37 45 58 64 67 69 71 68 67 70 72 76 78 78 79 82 84 86 87 87 88 88 81 80 81 80 87 84 88 89 91 90 86 86
42 40 41 39 32 23 17 15 17 21 28 36 45 56 63 65 64 67 73 73 74 75 76 75 73 69 74 72 72 73 76 79 84 85 87 94 91 93 92 90 87 86 87
35 37 36 35 35 34 28 20 15 12 15 24 35 45 55 60 62 63 61 55 51 51 54 59 62 66 69 73 76 80 85 88 90 91 90 94 91 93 94 91 89 89 89
34 35 33 32 31 29 25 22 17 13 8 7 11 15 20 26 31 36 41 46 51 54 59 64 68 73 76 79 83 86 88 90 91 90 90 91 92 94 99 96 91 84 82
32 31 33 31 29 27 25 23 21 19 18 18 20 23 27 31 36 41 46 53 58 62 67 71 76 80 83 86 88 91 92 93 93 93 91 94 94 92 95 92 81 71 71

GFSMA_250_spd_054.txt.gz
Wind_Speed
72 71 68 69 71 73 72 73 72 74 72 73 71 69 70 70 68 69 70 67 68 66 62 62 61 57 57 53 50 51 51 51 52 47 46 46 43 41 41 42 39 39 41
69 69 71 71 72 72 75 76 76 75 74 74 74 73 72 71 70 70 71 70 68 63 64 63 61 59 58 55 53 52 54 53 54 52 49 49 46 44 46 44 39 37 35
69 68 71 73 73 75 77 78 77 76 78 77 76 75 75 74 73 72 73 72 67 66 67 64 64 61 62 57 56 56 58 56 54 58 53 51 47 46 45 43 41 40 37
70 75 76 77 79 79 80 79 80 81 82 80 80 81 78 76 75 75 73 70 72 69 68 68 66 64 63 62 58 58 60 60 59 60 55 53 51 47 44 42 41 40 38
78 78 80 82 83 80 81 85 85 86 87 89 86 79 81 81 79 75 73 72 70 70 68 69 69 67 66 64 61 61 62 65 61 63 60 57 54 51 48 44 43 43 41
81 81 83 84 84 87 89 92 94 95 93 90 85 84 84 80 80 77 74 75 72 69 69 69 69 70 68 67 65 65 66 68 64 63 63 60 56 53 48 46 46 44 44
83 85 87 89 93 95 97 96 96 93 93 88 86 87 82 81 80 82 81 78 75 72 68 73 73 72 71 70 68 69 71 71 69 66 62 60 56 53 52 48 47 44 46
86 89 91 95 99 98 98 102 99 93 89 89 88 86 82 81 83 83 81 79 76 75 75 73 75 73 72 72 73 73 73 73 72 66 64 60 58 58 54 56 57 54 53
91 95 100 99 100 103 105 104 95 92 90 90 89 88 86 82 83 83 83 81 80 79 79 77 76 74 74 73 77 78 77 77 75 70 64 64 62 61 61 62 61 60 59
102 105 105 105 108 107 100 96 96 92 92 93 93 90 89 86 84 83 85 84 82 80 79 78 76 75 74 77 81 80 78 78 76 73 69 68 67 69 67 66 68 65 64
106 110 114 113 110 107 101 99 96 95 95 95 98 98 97 94 89 88 87 86 84 82 79 79 77 74 79 83 81 81 80 81 76 74 72 73 73 71 72 72 73 73 68
110 112 113 113 111 107 102 102 104 102 102 102 101 103 104 103 101 95 91 87 83 83 82 78 79 81 85 84 81 83 80 79 77 74 75 77 76 77 78 77 74 73 75
113 113 110 108 109 109 109 112 114 116 115 113 112 111 112 113 110 106 100 95 91 91 88 86 85 85 75 70 78 67 84 82 77 80 86 83 81 84 84 79 80 79 81
109 106 107 105 106 111 116 121 122 118 114 111 109 108 106 106 109 111 111 108 103 98 94 90 86 83 72 80 77 78 84 80 84 87 86 90 88 92 89 87 88 90 90
109 107 102 106 113 121 121 115 112 110 107 106 104 103 106 103 100 102 100 101 99 94 91 82 72 68 75 80 85 91 86 85 87 93 98 96 98 101 99 96 94 86 85
101 104 107 114 115 110 110 108 104 105 106 103 100 100 100 99 100 100 98 96 94 90 85 80 78 78 68 79 85 83 89 87 95 97 103 106 107 104 103 99 99 90 94
101 109 114 102 103 103 97 92 97 108 105 96 94 94 96 97 96 97 97 95 89 83 83 80 79 81 86 87 86 86 91 96 97 106 108 112 108 103 100 98 97 100 102
109 103 96 90 90 94 95 94 90 76 75 74 72 73 80 90 92 93 91 92 91 87 74 82 75 83 82 88 90 92 98 107 108 112 107 105 103 102 103 105 104 102 97
93 87 81 78 85 88 85 82 74 61 57 57 58 59 62 70 81 90 87 84 84 87 89 88 89 89 91 94 101 105 106 105 101 99 97 97 99 99 102 104 102 96 93
77 73 72 73 70 72 68 68 68 57 50 48 49 51 52 56 63 73 77 77 76 76 80 85 88 89 91 91 90 89 90 91 93 94 94 96 98 100 100 97 93 92 87
65 63 66 61 59 59 58 57 54 51 46 39 36 37 37 39 44 52 60 65 68 68 69 70 73 75 77 77 82 86 90 92 93 92 89 89 84 86 88 88 85 81 80
56 58 56 50 50 51 51 54 52 46 37 31 27 23 22 23 27 36 47 56 62 66 70 69 71 72 76 78 81 81 78 80 82 84 81 82 77 81 82 83 83 83 82
52 52 43 43 44 46 47 47 47 45 43 38 32 25 19 18 20 28 39 48 54 58 62 69 73 75 75 75 74 74 75 74 76 79 82 85 83 87 88 87 85 84 83
45 44 40 38 39 39 41 42 42 42 40 37 34 30 24 20 19 23 30 38 46 54 59 59 60 62 65 69 73 76 79 82 83 83 84 87 84 87 88 85 86 86 84
43 42 40 37 39 38 39 41 40 39 39 37 32 28 25 23 25 25 29 34 39 44 51 57 62 67 72 76 78 80 84 87 88 88 88 92 88 92 94 91 90 90 88
40 39 38 37 37 37 38 38 38 36 35 34 34 33 33 33 34 35 39 43 48 52 58 64 69 74 77 81 85 89 91 91 92 92 92 95 92 90 95 93 89 84 80

GFSMA_250_spd_057.txt.gz
Wind_Speed
66 67 69 73 72 73 72 74 69 71 73 75 77 77 78 78 79 81 80 79 77 71 70 65 66 62 62 58 58 57 54 52 50 48 47 47 49 49 46 42 39 38 37
70 71 73 73 73 74 75 70 71 74 78 78 77 78 79 81 82 84 84 82 73 71 70 65 65 65 61 62 60 58 57 54 52 50 51 50 50 49 51 46 44 40 37
73 72 73 71 74 75 73 75 76 79 79 82 82 82 83 86 84 90 86 78 72 74 68 67 64 63 63 64 62 61 60 58 56 53 54 54 54 53 52 51 49 42 40
72 71 70 71 72 73 77 78 80 80 82 84 87 89 88 90 93 89 82 76 76 75 68 68 66 67 66 64 61 62 62 59 59 57 57 56 56 56 54 50 48 43 41
69 68 72 76 75 77 80 81 84 83 86 89 93 92 94 96 94 85 78 75 76 76 72 70 69 69 67 65 63 64 64 62 62 60 60 60 59 60 58 51 47 43 39
72 74 74 77 81 81 82 85 86 90 93 94 95 98 100 99 92 87 79 76 78 76 75 74 71 70 68 66 65 65 66 65 64 64 64 63 64 63 63 52 48 45 43
75 77 81 84 85 87 88 90 92 93 97 100 104 105 104 96 88 84 81 78 77 78 77 75 73 71 69 69 68 67 67 67 67 66 66 66 68 65 63 53 51 46 43
79 82 84 86 89 91 93 96 98 101 104 109 111 111 106 91 88 89 84 82 79 78 79 76 76 73 72 72 71 70 70 69 68 68 66 70 71 67 62 59 53 49 49
84 85 89 92 94 97 99 102 106 107 111 113 115 109 105 100 92 89 88 88 88 85 83 80 78 77 75 74 73 71 69 69 67 69 71 73 70 68 62 61 58 54 50
92 94 94 97 99 102 106 108 109 114 114 111 109 107 108 103 100 99 100 98 97 95 91 88 84 81 78 76 74 71 69 71 71 72 72 77 71 64 64 60 58 61 61
100 101 102 103 106 109 111 114 117 116 115 115 107 102 105 107 111 111 107 109 107 103 102 95 89 85 82 79 75 72 72 73 72 72 76 71 71 65 62 63 64 63 69
101 104 109 110 114 114 117 119 119 120 115 110 110 108 109 112 114 109 103 96 96 98 95 92 91 89 84 83 81 78 76 72 73 75 70 75 74 65 68 70 72 73 74
101 104 108 111 117 121 123 123 118 110 111 113 114 112 105 100 97 97 90 90 88 88 91 92 89 87 83 80 83 74 69 67 72 65 72 62 73 77 80 80 81 81 77
107 111 111 116 119 120 118 109 107 108 112 114 112 104 100 94 91 86 100 95 96 94 91 90 90 86 82 79 78 72 72 67 66 67 70 81 77 84 88 87 89 90 82
109 111 115 117 116 106 101 102 105 113 115 108 104 100 92 90 93 92 99 103 105 105 100 90 85 83 80 74 73 73 68 66 75 76 80 77 83 95 94 92 97 90 98
111 115 116 112 104 98 100 107 113 106 102 100 95 92 94 92 91 90 95 99 99 96 93 88 83 82 79 74 68 68 72 81 81 79 88 88 87 93 94 100 98 100 98
116 116 110 102 98 101 107 113 95 93 92 88 86 87 84 77 71 69 75 76 77 73 69 86 82 78 78 74 76 72 73 72 80 77 82 88 89 98 100 102 103 101 101
113 99 98 97 102 108 102 92 84 79 81 84 86 79 71 58 53 52 56 58 64 74 80 86 70 72 79 79 84 79 77 81 84 92 96 99 101 101 100 101 104 107 113
94 94 97 101 103 88 84 77 72 72 75 75 72 71 62 53 48 43 41 44 52 62 70 75 76 78 80 73 78 80 83 83 83 88 91 96 97 101 105 109 116 116 111
94 96 99 88 81 73 72 66 66 67 64 63 64 59 55 48 44 37 33 33 39 47 50 60 68 75 77 71 72 74 84 87 92 95 101 105 105 103 103 104 103 102 102
94 90 81 72 64 64 63 59 59 57 57 58 57 54 49 44 38 32 25 21 23 26 35 48 56 63 66 68 71 73 77 80 84 86 88 90 92 93 96 99 99 97 97
78 74 64 60 57 57 56 55 53 53 53 53 52 53 50 47 40 34 29 22 17 16 21 30 41 51 59 64 68 71 76 80 82 84 88 92 93 95 91 87 83 83 83
64 60 57 55 51 52 52 51 48 48 48 50 49 49 49 49 46 43 37 33 28 25 25 29 36 45 52 59 64 69 75 80 82 80 81 83 85 87 89 89 90 89 88
55 51 52 50 48 51 49 47 46 46 47 48 47 47 45 43 40 37 35 32 30 30 31 34 37 43 49 55 61 67 72 76 79 82 87 87 90 92 94 93 92 90 88
49 50 48 47 47 47 45 45 45 45 47 48 48 47 46 44 41 39 38 36 36 38 40 43 46 50 55 59 64 69 74 79 82 84 88 90 89 92 94 93 94 93 91
48 46 45 44 45 44 45 47 46 46 48 50 50 50 50 48 47 46 45 44 44 46 49 52 56 58 61 66 70 75 81 86 88 88 89 91 90 91 93 92 90 88 85

GFSMA_250_spd_063.txt.gz
Wind_Speed
55 57 59 60 60 62 64 67 68 70 72 70 68 69 68 69 73 77 80 80 81 85 86 89 90 92 94 88 78 70 62 57 55 54 52 50 48 49 48 49 46 45 43
60 61 62 63 64 65 68 69 70 72 69 71 71 70 71 73 77 80 82 84 87 88 90 93 95 98 95 81 72 65 61 61 58 54 53 53 52 49 50 49 48 46 44
63 64 65 65 66 68 69 71 71 70 71 71 73 74 77 78 82 83 85 90 92 95 96 98 99 99 87 74 69 64 61 61 56 54 55 54 53 50 51 50 49 47 46
67 68 68 69 69 70 71 72 69 71 72 76 79 80 81 83 84 87 92 92 96 98 101 101 103 97 83 72 69 65 64 62 59 59 58 56 55 54 52 52 51 47 48
69 70 71 72 72 72 73 68 71 74 77 80 81 82 85 88 89 92 96 98 99 102 106 108 104 94 84 75 72 69 69 67 67 66 61 58 56 55 54 53 52 50 49
71 72 74 74 74 73 70 74 75 76 78 82 85 87 90 91 95 97 100 100 103 109 111 108 101 90 85 81 79 79 79 76 71 67 62 59 57 58 58 56 54 53 51
76 75 76 76 73 71 79 76 77 79 82 85 88 92 94 95 97 100 102 105 111 113 111 105 97 92 89 89 91 87 80 75 72 68 64 63 63 61 59 58 56 54 53
77 76 75 71 70 76 77 80 82 83 87 92 94 95 94 98 101 103 108 112 115 112 108 101 99 97 96 88 79 72 72 72 69 69 67 65 63 62 61 59 59 56 56
77 76 75 74 79 77 78 85 88 92 95 96 99 101 101 100 104 108 112 117 115 110 104 102 100 93 87 82 77 70 67 66 63 63 63 65 65 64 63 61 59 58 57
77 77 78 79 77 79 85 90 95 97 97 99 101 104 107 108 111 111 114 115 110 104 103 99 91 85 81 80 73 67 65 57 53 55 59 61 63 61 63 61 62 63 62
80 82 82 83 86 89 90 92 94 97 100 102 103 106 108 114 115 117 117 115 110 105 98 92 86 81 77 79 75 72 70 65 58 54 46 51 54 57 57 62 67 64 67
83 84 86 89 90 90 92 94 97 99 101 104 106 110 114 116 116 119 120 112 104 95 88 83 80 80 81 84 80 75 75 72 65 50 36 54 57 44 59 63 61 59 62
84 86 88 90 92 95 97 99 99 102 105 107 111 115 116 116 119 117 110 105 96 86 80 76 79 82 82 84 84 74 81 70 70 49 52 66 61 59 62 66 63 62 58
88 89 91 94 97 99 100 101 106 108 109 111 114 115 117 118 112 107 104 97 87 81 72 76 81 83 83 77 74 77 74 71 73 67 63 70 59 61 71 69 67 69 61
92 94 96 96 98 99 103 106 109 111 113 114 115 116 115 107 104 100 94 88 85 75 71 76 81 80 73 67 66 68 62 69 73 63 62 75 71 65 74 68 68 69 61
96 97 99 101 102 104 107 108 110 112 113 116 112 112 104 101 98 90 83 81 77 74 73 76 78 77 66 60 57 58 62 70 73 71 71 75 77 72 75 71 71 74 78
100 101 102 104 105 106 105 109 110 113 113 108 107 98 97 96 88 80 77 74 71 72 73 73 73 72 60 50 46 48 59 76 81 81 78 84 81 81 78 79 83 85 85
103 104 104 103 103 105 107 109 111 108 105 98 92 92 94 86 78 74 73 70 68 69 70 68 66 64 56 44 41 39 59 64 71 71 76 72 74 82 87 88 92 90 82
103 103 103 102 106 107 108 109 104 98 91 89 89 93 84 76 72 70 70 67 67 68 67 63 61 57 54 43 37 36 47 61 65 73 74 75 79 82 83 84 87 85 86
101 101 102 106 107 107 102 96 89 88 87 89 92 84 75 69 69 69 67 64 65 67 64 60 57 55 50 43 37 32 36 49 62 71 70 77 72 79 82 83 91 90 90
101 101 106 106 101 96 89 82 84 87 87 84 75 73 69 66 68 66 65 63 65 65 63 61 57 53 48 43 37 29 29 42 49 50 55 61 62 66 70 74 85 89 91
107 108 100 94 86 80 78 79 86 86 77 72 67 68 65 66 66 63 63 63 63 62 62 62 60 58 53 47 42 37 35 32 34 46 56 61 68 68 68 73 76 80 82
93 86 80 75 75 76 80 85 78 72 66 64 65 65 63 63 60 60 61 60 60 60 59 60 61 58 56 52 48 47 46 44 43 44 49 54 57 63 68 71 74 77 80
67 65 69 74 78 81 83 77 67 64 63 62 62 60 59 57 56 58 60 60 60 59 61 61 61 59 56 53 52 51 51 52 54 56 59 62 65 68 72 76 79 81 83
67 71 76 80 80 75 69 64 61 60 58 58 56 55 56 56 58 61 60 60 61 60 61 61 60 59 58 56 57 57 58 60 61 64 66 69 72 75 78 82 85 87 88
74 73 74 74 65 61 59 57 56 54 53 52 53 55 57 59 61 61 60 61 63 62 62 61 60 59 60 62 64 65 65 65 65 67 68 71 73 75 77 80 82 82 81

GFSMA_250_spd_066.txt.gz
Wind_Speed
47 49 51 52 53 57 59 61 62 64 64 66 67 68 70 68 69 71 76 75 78 81 84 86 87 88 89 91 94 95 94 81 65 55 54 48 49 45 44 44 44 43 39
51 52 55 56 58 61 62 63 64 65 67 69 69 71 70 70 72 75 77 80 85 87 90 90 90 92 92 96 97 98 89 74 61 52 53 51 49 47 46 45 44 42 42
54 56 59 61 63 65 66 66 66 68 69 70 72 73 72 72 75 76 80 85 87 92 92 94 94 96 97 100 100 97 83 71 62 55 53 52 50 51 51 50 46 44 42
59 62 64 65 66 67 68 68 69 71 72 73 76 75 75 76 77 80 86 88 92 93 96 95 97 99 103 106 103 94 83 76 73 69 64 61 59 57 56 52 49 46 46
67 68 70 70 70 70 72 73 73 73 75 78 77 77 78 79 82 85 90 92 94 96 97 100 102 106 108 106 103 91 85 83 81 74 69 66 61 58 58 57 56 53 49
71 72 74 75 73 74 76 75 75 77 79 80 78 80 82 84 85 90 94 95 98 99 102 106 110 110 109 109 99 93 89 80 72 67 66 65 62 61 60 58 56 53 52
75 76 77 78 77 76 77 77 79 79 80 81 79 84 84 86 91 94 95 99 100 104 107 110 112 113 111 105 98 92 80 72 64 59 59 57 59 58 61 58 57 55 50
78 79 80 80 78 78 78 79 79 80 81 82 84 83 86 91 94 97 100 101 105 108 111 112 114 112 109 102 92 82 74 66 60 56 53 51 54 59 62 56 58 58 53
79 79 79 79 79 78 78 79 79 81 81 84 88 90 90 92 95 99 102 107 109 112 114 113 112 112 105 94 83 75 68 63 61 57 54 51 49 53 58 61 60 59 55
78 79 79 78 79 79 80 80 81 82 85 88 92 95 97 98 98 99 104 106 111 113 111 111 112 106 96 85 76 70 67 67 67 67 68 55 52 47 47 50 58 59 58
79 79 79 80 81 82 83 83 84 86 90 91 94 97 100 101 104 108 105 109 113 111 109 110 105 96 86 78 72 70 69 69 70 71 73 70 58 48 49 48 56 60 58
80 81 82 83 83 85 86 87 88 90 91 94 97 100 102 103 109 107 110 111 111 108 106 102 98 88 78 72 71 71 73 74 75 72 73 76 68 48 47 52 48 50 56
83 83 84 84 86 87 88 90 92 94 95 96 99 102 105 107 108 110 112 112 109 102 97 97 90 81 73 70 70 72 74 74 72 66 63 69 67 54 53 54 51 54 60
83 83 85 87 89 91 94 96 97 98 101 102 105 105 105 108 110 111 111 107 102 95 94 91 81 75 70 69 69 70 71 70 61 53 54 58 62 66 58 58 62 68 62
87 89 91 92 94 96 99 100 101 103 103 107 106 107 107 109 109 109 106 99 96 90 91 82 74 72 68 67 67 67 68 63 53 41 42 50 65 65 60 64 73 72 68
95 96 97 99 100 100 101 103 105 107 107 106 108 107 106 108 105 101 98 96 92 90 82 75 71 69 67 66 65 65 63 59 47 32 33 47 58 65 66 62 72 71 70
101 103 103 103 104 105 106 107 107 106 107 107 105 104 106 105 101 94 94 91 91 81 75 70 67 66 66 68 67 63 58 54 43 26 23 44 59 61 62 67 71 77 74
104 106 105 105 106 106 106 104 106 105 106 102 104 106 103 98 91 90 90 90 80 74 70 68 63 63 64 64 62 60 55 50 42 32 25 26 52 61 65 74 64 75 82
99 99 100 101 103 101 102 105 103 102 101 104 106 102 96 88 88 91 89 81 73 69 69 65 61 60 62 61 58 55 53 49 40 31 29 36 46 57 67 70 72 75 79
96 100 98 99 100 101 100 102 102 102 105 101 96 88 84 85 88 84 78 72 69 67 66 60 57 58 61 60 58 56 51 47 42 37 32 32 35 50 63 68 69 74 74
93 95 97 96 98 99 99 101 101 96 91 86 82 82 84 85 80 74 71 67 65 63 61 57 57 59 59 59 58 57 50 46 45 41 37 34 41 49 50 51 58 63 60
101 99 97 98 96 93 91 88 88 82 78 79 81 84 81 74 72 69 68 67 61 59 58 58 59 60 61 60 58 55 52 49 44 44 44 44 48 49 50 53 55 58 60
96 92 85 83 82 81 78 74 72 73 78 78 78 74 71 69 68 67 63 59 56 58 58 59 60 61 62 60 57 54 50 49 49 49 51 52 54 58 59 61 63 67 70
77 77 75 73 72 64 63 68 72 77 80 72 67 66 65 65 63 59 56 54 57 59 59 60 62 63 62 59 55 52 53 54 55 56 59 61 61 62 64 67 69 72 75
64 62 60 60 60 65 68 74 74 73 68 64 62 63 60 58 56 55 53 55 58 59 60 63 63 61 58 56 56 57 59 61 63 66 67 68 68 67 66 68 72 75 77
53 57 61 63 66 69 66 67 66 64 61 59 59 58 56 54 54 54 54 55 58 59 60 59 57 56 56 59 63 65 66 69 71 73 74 73 69 68 68 70 72 73 74

GFSMA_250_spd_069.txt.gz
Wind_Speed
42 43 44 45 47 48 50 51 54 57 59 60 61 63 65 68 69 70 74 74 73 74 74 76 81 84 87 90 90 90 92 94 92 86 83 68 54 45 44 44 44 40 40
47 47 48 49 51 53 52 55 58 60 62 64 64 67 69 71 71 73 75 74 75 75 78 81 85 88 90 94 93 94 98 97 93 89 80 70 62 56 49 47 47 44 42
50 53 54 54 55 56 56 60 62 65 66 68 69 72 72 71 74 76 76 75 77 79 83 86 90 92 94 95 97 99 102 99 93 87 79 75 72 66 58 50 51 49 45
57 57 55 55 57 59 62 64 67 69 71 72 74 74 74 74 75 76 76 77 80 83 87 91 93 94 98 101 102 104 104 97 93 86 80 71 63 56 54 53 52 52 51
60 60 61 62 62 65 67 69 72 73 75 76 75 75 75 75 75 76 78 80 84 88 91 93 97 99 102 105 107 106 102 94 90 80 68 62 55 51 49 50 55 56 53
62 64 64 65 69 70 72 74 75 77 77 77 75 75 75 76 77 78 81 86 89 92 94 97 101 103 107 108 109 105 98 89 84 73 61 53 50 49 46 47 49 55 56
64 68 70 72 74 75 76 77 77 77 77 78 75 76 78 77 80 85 87 89 92 95 99 102 105 107 111 110 108 102 95 87 75 66 59 46 43 44 45 44 46 50 54
71 73 75 76 77 77 77 78 78 76 78 78 77 77 77 83 87 88 89 93 96 99 101 106 108 109 111 109 105 98 91 81 71 59 52 52 46 45 45 46 48 48 51
75 76 77 78 78 79 80 80 79 77 77 79 81 84 84 83 84 89 94 97 100 104 107 109 109 111 109 106 101 96 87 77 65 56 54 52 54 53 52 49 48 49 50
78 78 79 79 80 81 81 80 79 79 80 82 84 86 86 87 88 90 94 99 104 108 109 109 110 110 106 103 98 92 82 73 64 58 56 55 58 57 60 57 52 49 48
79 79 79 80 80 79 79 80 81 82 82 81 83 86 89 94 97 97 99 103 106 108 108 107 105 106 104 99 94 87 75 69 64 60 58 56 58 63 61 65 61 58 56
81 82 82 82 82 82 82 82 83 83 83 86 89 92 95 98 101 102 106 108 109 105 103 105 105 101 98 95 90 79 70 67 63 63 59 58 62 66 69 69 72 62 57
82 83 84 83 85 86 85 85 86 87 90 93 95 97 100 102 105 107 110 111 109 104 101 104 102 99 94 91 83 73 68 64 63 64 60 58 62 58 59 58 66 64 56
85 85 87 88 88 88 90 91 93 94 96 98 100 103 104 107 110 111 111 109 104 101 101 102 98 95 91 85 75 66 65 61 62 60 56 56 55 44 44 52 61 60 57
88 89 90 90 91 92 93 95 97 100 102 104 106 108 109 111 112 111 108 107 101 99 98 93 92 89 87 78 68 66 62 60 58 58 56 51 47 34 37 46 57 59 58
93 93 94 95 96 97 99 101 104 105 106 107 108 108 111 111 110 108 104 103 100 97 92 90 88 87 79 69 65 65 60 58 56 55 52 47 41 26 25 43 51 52 62
98 98 99 100 102 102 103 106 106 106 107 108 111 106 109 107 106 102 101 98 95 90 89 87 86 78 71 65 63 60 59 57 55 53 50 45 38 28 15 36 50 60 64
103 104 104 104 105 107 107 106 105 106 106 103 106 106 105 100 98 97 94 92 89 88 85 84 76 69 64 61 60 56 57 58 54 51 49 43 36 26 20 26 43 46 61
106 105 106 106 104 102 101 101 103 102 101 102 100 98 94 96 90 88 89 85 84 84 82 74 68 65 63 59 55 56 57 57 54 51 44 41 36 28 28 28 36 45 47
97 98 97 98 97 95 97 96 97 99 98 96 94 92 89 87 89 86 83 82 82 78 72 66 64 62 58 54 54 57 57 56 55 50 45 41 35 34 32 33 37 42 54
93 91 90 88 92 95 91 91 95 91 94 93 85 85 84 83 81 80 80 79 73 69 65 63 60 58 54 54 55 58 57 56 53 49 44 42 41 40 38 37 39 42 49
85 89 92 94 88 85 92 90 92 93 82 80 79 80 78 75 77 76 72 70 66 66 63 58 56 53 54 55 58 59 58 54 50 47 45 45 46 46 48 48 49 51 54
90 93 92 90 90 89 89 85 78 76 76 74 73 70 75 75 73 70 65 62 63 60 58 56 54 53 55 57 57 57 54 50 47 49 51 51 53 54 56 57 59 61 63
85 83 84 81 80 77 74 71 70 68 64 64 69 73 73 71 68 64 61 60 59 55 53 53 53 54 55 55 53 51 50 52 54 57 60 61 60 61 64 65 67 68 69
73 74 73 70 67 66 65 63 61 61 66 65 68 68 68 67 62 56 56 57 54 52 50 49 48 49 49 49 50 53 57 59 61 63 64 65 67 69 71 73 74 72 68
67 65 61 59 56 56 53 54 62 68 62 61 63 65 62 58 55 55 54 50 48 45 42 42 44 47 50 53 58 61 64 66 67 67 68 71 74 76 79 79 76 70 67

GFSMA_250_spd_075.txt.gz
Wind_Speed
42 41 40 41 41 42 43 45 46 47 50 51 53 55 57 57 61 64 68 69 71 71 73 73 74 74 73 74 78 84 86 90 91 95 98 101 102 102 94 81 71 64 54
47 45 44 45 45 46 47 48 49 51 53 55 57 60 60 63 65 68 71 72 72 74 76 76 74 74 76 81 83 86 90 94 95 99 102 105 107 100 88 77 69 65 53
49 49 49 48 49 49 51 51 53 55 57 59 62 63 66 65 68 71 73 73 75 78 79 76 76 78 81 83 86 90 95 97 99 103 106 108 103 93 85 73 66 60 51
53 52 52 52 53 54 55 57 58 60 61 63 65 65 66 70 72 73 74 75 79 80 78 79 80 81 83 86 90 93 97 100 104 106 110 108 104 89 79 70 64 55 46
56 55 55 55 56 58 59 61 62 64 66 67 67 70 71 72 74 74 76 80 81 81 82 82 84 85 87 92 95 97 100 102 107 112 110 104 93 86 75 69 61 50 44
58 59 59 59 61 62 64 65 66 68 69 72 71 70 73 75 76 79 82 83 83 84 85 86 86 91 94 95 98 100 103 107 110 112 106 104 92 81 73 66 58 48 43
65 65 64 64 65 66 68 70 70 71 71 70 72 73 75 78 81 84 83 86 86 86 88 90 92 96 98 100 100 103 107 111 114 111 103 94 87 79 71 65 56 47 45
65 66 68 69 69 69 71 72 72 67 68 71 72 74 77 82 85 85 88 89 88 89 93 95 97 99 103 103 105 109 111 113 109 107 100 91 83 77 71 63 54 49 46
66 66 66 65 64 64 65 65 65 69 70 75 79 80 83 85 85 87 86 91 93 96 99 101 102 104 104 107 111 113 115 112 110 100 92 88 80 74 69 61 54 50 43
66 65 65 66 68 68 69 71 75 76 78 80 82 83 84 85 86 84 89 91 95 99 103 104 106 108 109 112 113 115 114 108 104 93 91 86 78 75 65 56 55 50 45
73 75 78 81 81 81 80 81 81 82 81 81 83 84 86 87 88 91 91 95 96 101 106 108 110 112 114 116 118 116 111 109 98 92 89 82 78 70 62 55 51 48 49
84 85 85 86 86 86 86 84 85 85 87 88 89 90 91 93 95 95 96 98 101 104 108 112 115 116 116 117 118 112 109 102 89 88 84 79 76 65 58 54 48 49 48
87 87 88 88 89 89 89 90 91 92 93 95 93 94 95 95 96 98 100 103 107 108 113 114 120 121 121 117 114 105 101 92 87 86 80 78 68 59 56 51 49 47 46
91 92 92 92 92 92 92 93 94 95 95 96 97 98 98 99 102 103 105 108 112 115 115 118 121 121 120 116 105 100 90 87 86 81 79 71 61 56 53 50 48 47 43
95 95 95 95 95 96 96 96 95 96 98 99 101 102 105 105 107 109 112 114 116 117 118 121 115 113 113 112 101 92 86 84 81 79 71 63 58 52 47 49 48 42 39
102 101 102 101 100 99 101 100 100 101 102 104 105 106 109 110 112 114 117 118 120 119 123 120 115 114 110 98 89 87 82 79 78 72 66 59 54 47 44 46 46 42 37
108 109 109 108 107 106 108 107 107 107 108 109 112 112 114 115 118 118 122 123 118 120 117 113 108 99 90 90 86 83 77 77 70 63 60 52 49 45 45 45 43 39 36
114 115 114 113 114 114 114 112 113 112 112 112 114 117 118 118 121 119 109 117 119 109 111 99 93 90 87 84 81 77 75 69 62 58 55 48 46 44 45 46 42 39 34
121 121 120 118 117 117 116 115 115 115 115 116 115 115 115 109 109 111 110 112 108 106 91 87 88 86 82 80 78 72 68 61 56 55 52 47 45 44 43 44 41 37 33
120 124 125 124 124 124 124 123 123 123 119 119 112 104 94 93 91 95 98 100 96 88 85 83 81 81 79 77 71 64 58 54 54 53 50 47 46 44 43 38 37 35 37
109 112 114 117 118 116 114 114 110 108 106 100 97 95 87 90 100 99 92 87 81 80 78 78 77 77 75 70 62 57 53 51 51 49 48 45 43 41 40 40 40 42 43
99 99 98 97 95 97 98 96 90 88 85 84 84 87 86 86 87 85 79 77 78 75 75 73 73 71 67 61 55 52 50 48 46 45 42 42 43 44 46 48 50 51 50
91 89 88 89 90 90 90 87 84 81 83 86 85 83 84 83 77 74 75 71 71 71 70 71 73 67 61 56 54 50 48 47 47 46 48 48 50 52 53 54 54 54 55
88 83 82 81 82 84 82 79 82 79 79 79 81 80 79 76 73 68 67 66 65 68 70 65 63 61 56 54 53 53 52 52 52 54 55 55 57 58 60 61 61 62 61
78 82 81 76 75 74 73 73 76 77 77 74 72 71 72 69 66 62 61 64 66 67 68 62 60 58 58 58 56 55 54 56 57 58 58 60 61 63 65 67 69 70 70
73 70 70 71 72 72 69 69 72 74 72 70 69 68 64 59 56 57 60 65 68 68 62 60 60 60 60 59 58 57 57 56 56 57 60 63 65 68 71 75 77 78 77

GFSMA_250_spd_078.txt.gz
Wind_Speed
45 45 44 43 44 45 44 45 45 46 46 48 50 50 52 55 57 59 61 60 60 65 68 70 72 75 78 78 79 80 81 83 85 87 90 93 95 100 102 101 92 78 69
47 47 47 47 47 47 47 47 48 49 50 51 54 55 57 59 60 61 63 64 68 67 70 73 75 79 80 82 83 83 84 86 88 91 94 97 99 104 103 100 86 76 68
50 50 50 50 50 51 50 51 52 52 53 55 56 58 61 62 63 65 68 68 69 72 74 77 80 82 83 84 84 85 88 91 90 94 96 100 104 109 104 97 83 72 67
56 55 54 54 53 54 54 55 55 55 57 58 59 62 64 66 68 67 67 68 70 74 79 81 83 83 83 84 86 88 89 94 97 98 100 103 107 109 103 95 80 72 64
60 59 59 58 57 58 58 58 58 59 61 62 64 66 67 69 68 68 69 71 74 78 81 82 83 84 86 86 88 91 93 96 99 103 106 108 110 107 96 85 77 71 61
62 63 62 62 62 62 62 62 63 63 65 67 67 68 66 68 68 70 73 77 79 82 83 82 83 86 87 91 92 93 97 100 103 106 110 113 116 98 94 80 76 68 62
60 60 60 60 62 64 66 68 69 68 68 68 65 60 66 66 68 72 79 81 82 82 83 85 85 88 92 94 97 99 100 103 106 112 114 115 112 94 85 80 74 64 59
64 64 65 65 66 66 66 64 66 64 64 64 61 65 66 74 77 77 80 84 84 86 86 90 93 95 98 98 102 104 104 108 111 116 116 118 104 97 83 78 70 62 54
67 68 67 67 68 70 70 66 65 65 64 66 72 76 79 78 79 81 80 83 88 92 94 97 97 101 103 106 107 108 111 112 117 118 120 108 102 87 79 75 68 61 44
72 72 74 71 71 72 72 70 70 70 70 73 78 85 84 82 81 81 86 90 94 97 100 99 102 105 109 110 111 114 115 116 120 115 115 102 86 82 78 71 67 58 48
74 72 75 75 74 75 77 75 75 77 81 84 86 88 87 87 89 90 93 95 97 98 101 105 106 109 112 116 116 118 120 122 123 117 109 88 84 78 73 68 61 56 50
78 78 79 80 79 80 81 80 82 85 88 88 90 91 91 92 94 95 94 97 99 102 106 107 111 114 117 119 120 123 125 126 120 110 92 86 81 75 70 65 59 54 49
90 88 84 83 83 84 85 88 88 88 90 91 93 94 94 94 94 96 98 102 104 107 110 112 115 118 121 124 126 129 126 120 112 95 85 80 75 71 68 60 55 51 46
97 96 95 93 93 93 93 93 94 94 95 97 98 96 97 98 99 101 103 107 108 111 114 117 120 121 124 127 129 127 117 110 98 89 81 75 71 69 61 56 51 46 43
102 101 100 99 99 100 100 100 99 100 100 102 102 102 103 103 104 106 109 111 114 113 114 120 120 124 125 129 120 114 105 97 91 80 73 71 68 61 54 52 46 43 39
107 105 104 103 104 104 104 104 105 105 105 107 108 109 109 110 112 113 114 115 116 118 117 118 119 116 126 111 114 106 101 90 80 74 70 67 62 56 48 47 42 41 41
111 111 110 109 109 109 110 110 112 112 112 112 114 116 117 117 114 117 117 117 118 122 115 114 115 124 115 110 109 98 86 83 75 69 65 61 54 47 45 41 38 39 42
114 114 114 114 113 115 115 114 115 115 117 117 118 119 118 118 118 119 119 116 116 112 115 108 106 104 110 102 90 82 80 75 71 66 61 55 50 46 43 39 38 38 38
113 114 113 114 115 117 118 118 120 120 121 121 123 122 122 121 121 120 114 116 111 109 101 104 99 98 90 85 84 77 75 71 67 60 52 47 45 43 39 36 35 33 32
110 110 110 110 111 112 112 113 114 116 117 118 119 118 119 117 114 112 107 103 105 96 90 90 96 84 81 77 74 72 72 65 60 53 46 40 38 37 35 33 31 31 32
107 108 108 109 108 108 107 107 108 108 107 108 108 107 106 106 105 104 100 92 85 88 89 87 80 75 73 70 69 71 66 62 56 48 45 43 40 39 39 39 39 39 40
107 107 105 106 106 106 107 107 106 105 102 101 101 102 99 96 95 90 89 83 81 86 76 78 70 68 67 67 69 69 65 60 55 50 47 48 46 45 46 46 46 47 47
107 108 107 106 104 102 100 99 98 100 98 94 94 94 90 89 87 84 80 75 75 73 69 67 62 62 64 69 69 66 60 58 55 54 51 47 47 48 50 51 52 52 52
96 96 95 94 94 95 94 94 94 94 95 95 93 88 83 83 82 79 75 68 69 65 62 59 58 62 65 67 66 61 59 57 56 52 53 51 50 50 51 52 52 54 56
84 84 84 85 87 89 88 86 85 87 90 90 90 87 83 76 74 71 68 64 65 58 56 54 59 64 66 65 64 61 58 57 57 54 54 55 54 53 54 55 57 59 62
77 78 80 81 82 80 81 83 83 79 77 77 76 73 70 68 65 64 63 63 56 53 54 59 61 62 64 61 63 60 59 61 57 58 58 58 56 56 57 58 60 64 67

GFSMA_250_spd_081.txt.gz
Wind_Speed
43 43 43 42 42 44 44 44 45 45 46 46 48 50 51 52 54 55 56 58 61 63 65 67 68 70 73 76 79 81 82 82 84 84 85 87 90 92 95 101 104 100 88
48 46 46 45 46 46 47 47 47 48 48 49 51 53 54 55 56 57 60 62 64 66 65 67 68 71 76 81 83 85 85 86 86 89 90 93 95 96 100 105 107 96 85
50 51 51 51 51 51 51 51 52 52 52 54 55 56 57 58 60 61 63 65 68 67 66 65 69 76 79 81 83 86 90 92 92 91 93 96 99 103 105 108 105 95 80
55 54 55 55 56 56 56 56 56 56 57 57 59 60 61 62 64 66 61 64 64 64 68 75 79 80 80 81 84 89 92 95 95 97 99 101 103 106 112 110 99 91 73
59 59 59 59 59 60 59 60 59 59 61 61 64 64 65 67 65 62 68 66 62 66 76 81 80 83 81 81 88 92 95 97 100 102 105 108 109 113 113 103 95 82 71
64 63 62 62 61 60 60 62 63 62 63 63 64 65 66 65 63 64 68 65 68 74 79 80 81 82 83 88 92 95 97 101 104 107 111 111 112 114 104 95 87 76 67
68 68 67 63 61 60 62 62 63 63 63 64 65 65 65 65 66 68 66 70 75 80 83 82 79 85 89 90 94 97 101 105 106 111 114 112 115 112 100 92 75 69 65
69 68 65 66 65 65 65 65 65 65 65 67 64 68 69 72 71 70 71 77 82 84 84 85 89 93 92 93 97 102 106 109 112 114 116 117 118 109 99 87 75 68 63
68 67 71 71 69 66 66 66 68 69 68 72 71 73 73 70 74 75 79 84 86 88 88 90 93 96 96 97 102 106 111 113 117 117 117 118 121 105 99 81 73 66 60
77 75 72 75 75 75 76 72 69 70 72 75 77 80 77 75 77 78 86 89 88 90 92 93 96 98 100 103 107 109 114 118 119 120 119 119 114 105 91 80 70 63 59
75 75 80 80 76 77 78 78 78 79 80 79 80 80 84 86 85 87 86 92 91 92 95 97 100 103 104 108 113 116 120 122 120 121 125 121 106 95 80 72 66 62 59
86 87 87 85 85 86 86 86 87 86 86 85 86 87 84 86 89 89 90 93 98 98 101 102 104 108 110 113 117 120 120 121 122 124 123 105 97 84 75 69 63 58 53
96 97 94 92 92 92 91 90 88 86 86 87 89 90 92 93 94 95 96 99 101 103 106 108 110 113 115 117 118 120 122 123 126 124 107 104 92 80 71 64 60 55 50
103 102 101 100 99 98 98 98 97 97 96 96 97 98 99 100 101 102 101 103 104 107 111 114 115 115 118 116 121 124 123 126 119 108 101 93 85 73 67 61 55 49 44
110 109 109 107 107 105 104 104 104 103 103 102 105 105 105 105 106 106 107 108 109 111 114 116 116 119 122 122 125 124 120 116 110 103 99 84 78 67 62 56 50 44 42
116 115 113 113 113 112 111 110 109 109 108 107 107 107 108 109 110 111 112 112 113 115 119 120 122 122 124 122 118 114 113 105 99 94 91 78 69 63 57 52 46 42 41
119 119 116 116 116 115 115 114 113 113 112 111 111 111 111 113 114 115 117 116 118 121 122 119 117 113 112 111 110 104 101 88 91 83 79 72 63 58 52 48 44 41 38
114 113 114 112 112 112 112 113 113 113 113 115 116 115 114 115 117 118 118 116 113 112 111 110 107 108 108 103 99 91 89 89 74 72 68 65 60 54 46 41 37 34 34
117 116 113 111 110 110 109 109 109 110 110 110 111 110 110 109 109 110 108 107 106 108 107 106 106 103 101 96 91 86 81 71 67 66 65 60 57 52 46 38 34 31 28
113 114 114 113 112 112 112 111 110 110 108 107 106 107 106 106 105 105 105 105 106 105 102 99 98 95 90 86 82 76 67 63 62 62 63 60 54 49 43 42 40 37 34
110 111 111 112 111 111 110 110 107 107 105 105 105 105 105 105 104 104 106 106 104 103 99 90 88 86 83 79 72 64 58 61 58 61 62 57 53 51 46 41 40 40 41
106 106 106 106 106 106 105 105 105 104 104 105 103 103 103 103 104 100 98 94 94 94 89 83 83 83 79 73 64 57 58 59 60 61 60 55 54 50 46 43 42 40 41
106 106 107 107 107 107 107 107 107 107 107 107 105 105 102 99 97 92 91 91 88 87 83 81 78 75 66 63 56 54 57 59 61 60 57 52 52 52 48 47 47 45 44
98 99 99 100 100 100 100 100 100 99 98 96 94 93 91 89 89 86 84 84 81 79 77 72 70 64 57 54 53 53 60 61 59 59 55 52 52 54 50 49 51 50 48
89 90 91 92 92 91 90 89 87 87 86 85 85 84 83 83 84 83 82 79 74 71 67 63 59 56 53 50 51 58 61 62 61 59 56 55 56 56 54 53 51 50 49
84 84 83 83 82 82 82 82 79 78 78 77 77 78 77 76 75 75 73 70 65 62 58 57 54 49 49 50 56 60 63 63 62 60 60 60 60 59 57 53 55 53 52

GFSMA_250_spd_084.txt.gz
Wind_Speed
48 47 46 45 44 41 41 41 41 41 43 46 47 49 50 50 51 53 55 56 57 60 63 63 66 68 67 68 72 79 82 84 84 84 84 85 88 92 95 100 103 100 103
50 50 49 48 47 46 46 46 46 46 48 49 52 53 54 55 55 57 58 59 61 62 63 68 67 65 67 72 78 83 84 84 83 87 91 91 94 97 100 104 105 104 101
55 54 52 52 51 50 49 50 50 51 52 53 54 56 57 58 59 61 62 64 64 65 68 68 67 64 71 77 81 84 85 85 88 90 93 96 98 102 106 106 104 111 87
61 59 57 56 56 55 55 55 54 55 56 58 59 60 61 62 65 65 64 62 63 68 69 68 68 71 75 80 83 84 86 90 93 96 97 100 103 104 109 107 110 109 86
62 65 63 60 59 59 58 57 58 58 60 59 60 63 63 63 64 63 64 59 64 70 71 69 71 76 79 83 85 89 90 94 96 99 101 104 106 109 110 109 114 96 85
66 63 64 63 62 62 62 61 60 60 61 61 61 61 62 62 63 64 65 65 67 69 70 73 75 77 82 85 89 91 93 95 99 103 106 109 111 113 110 112 114 94 86
68 67 66 67 67 65 64 64 65 64 64 64 63 63 63 63 67 67 71 70 71 73 74 76 80 84 86 89 91 94 97 100 102 105 110 113 113 114 114 116 100 88 78
68 71 72 67 67 65 63 63 62 62 65 65 64 62 64 68 70 74 74 76 77 77 79 83 87 89 88 91 92 99 101 103 107 109 113 115 118 116 117 108 95 80 74
61 68 63 63 63 64 68 68 69 70 70 72 70 70 70 74 77 79 82 83 82 82 85 88 88 90 92 95 97 101 104 106 108 111 114 116 117 119 112 102 90 80 74
74 75 76 73 68 67 68 70 70 72 73 75 76 78 83 82 85 86 87 86 85 86 87 90 92 95 96 98 101 101 106 109 111 114 117 118 117 111 105 95 80 79 67
77 76 75 76 76 78 75 80 79 77 78 79 81 82 82 84 85 84 84 90 88 88 89 91 95 99 101 100 103 106 110 112 114 117 119 113 108 102 95 84 82 72 65
86 89 86 84 87 88 85 84 87 86 84 86 88 90 90 91 90 90 88 88 93 94 96 99 102 104 104 107 109 110 113 116 116 117 110 107 101 99 87 81 76 68 61
91 91 94 95 96 96 97 96 94 94 95 100 102 102 99 97 98 98 99 100 100 102 104 104 105 106 107 109 110 114 116 116 113 106 103 101 100 94 86 81 67 63 55
105 106 107 106 108 106 104 105 109 110 108 106 105 103 100 100 103 102 103 104 105 108 107 107 109 109 112 112 113 116 113 105 107 103 101 98 94 86 80 68 63 58 52
118 115 115 114 115 116 117 114 111 109 106 107 108 109 110 110 109 110 111 109 112 111 112 113 112 113 115 115 113 106 105 104 102 100 99 93 87 79 73 66 60 56 49
117 119 120 120 121 122 121 121 119 118 118 117 116 118 119 117 116 115 115 115 114 113 113 112 112 109 108 104 104 104 101 100 100 98 92 85 79 72 66 60 57 52 46
129 130 127 126 127 126 125 124 123 122 120 118 118 116 113 111 110 108 106 106 106 106 105 105 103 102 101 102 100 101 98 100 94 89 83 79 72 64 62 55 54 49 41
125 125 125 125 123 122 121 121 120 120 119 117 115 113 111 108 108 108 106 105 105 106 105 100 100 99 99 98 97 98 96 90 86 79 77 72 65 58 57 55 52 46 42
135 134 133 133 130 129 128 125 123 119 117 115 112 111 111 110 109 108 108 105 103 102 102 99 98 97 97 97 97 93 89 85 78 75 74 66 56 56 56 56 51 44 42
120 121 120 120 121 120 118 115 114 113 113 113 112 111 111 111 111 109 106 105 103 100 100 99 98 98 99 95 89 85 83 77 74 72 64 58 54 54 55 54 47 42 41
112 112 112 113 112 111 111 110 111 110 111 111 110 107 106 105 104 103 101 100 100 100 100 99 99 98 90 85 81 79 76 71 69 62 57 51 53 55 54 51 47 44 43
107 108 109 110 110 110 109 110 110 110 110 109 108 107 107 107 105 105 104 103 103 103 99 91 89 87 81 77 72 70 65 66 59 52 51 50 53 54 54 49 46 43 45
105 107 107 108 109 109 111 111 112 112 112 110 109 107 105 102 101 98 95 93 91 89 87 85 81 80 75 73 71 67 61 57 52 49 51 49 55 55 55 50 46 46 49
103 104 104 105 106 105 106 105 104 102 100 98 96 95 94 92 89 87 85 83 82 79 77 76 74 74 71 67 63 58 54 53 49 48 50 54 56 57 56 54 50 49 49
93 94 95 95 95 95 95 96 95 94 93 92 90 88 86 84 81 79 76 74 74 72 71 69 67 66 62 59 55 52 52 50 48 48 53 58 57 58 61 58 53 53 52
91 91 90 90 89 90 90 90 91 89 87 85 83 81 80 78 75 73 71 69 67 66 63 61 59 57 56 54 53 50 48 46 46 53 57 59 60 63 63 59 57 55 57

GFSMA_250_spd_087.txt.gz
Wind_Speed
45 45 46 45 45 45 45 45 45 44 44 44 45 46 47 48 50 51 53 54 55 57 61 62 64 67 67 68 69 70 73 74 79 84 86 88 90 92 94 97 99 101 101
51 52 51 51 50 50 50 49 48 48 48 48 49 51 52 53 55 56 58 58 59 59 60 60 64 65 67 69 72 74 75 78 82 85 87 89 92 95 97 100 101 105 102
51 51 53 54 54 54 53 53 53 51 53 52 54 55 56 57 57 58 59 60 60 61 61 64 67 66 68 72 74 77 81 83 85 88 87 90 94 96 100 103 105 106 103
51 54 56 56 56 57 59 57 54 55 56 56 55 57 58 58 59 59 59 59 63 63 66 67 67 69 71 75 76 79 81 86 88 91 93 94 97 100 102 106 107 104 98
58 60 62 62 65 60 55 54 57 56 58 58 58 58 59 62 64 63 62 61 61 68 71 72 72 73 77 78 81 84 88 88 89 92 95 99 100 102 105 106 104 101 90
53 57 58 60 63 63 64 61 65 63 65 64 62 63 64 63 63 60 62 64 66 69 70 74 79 80 81 81 85 89 89 89 91 95 97 102 103 107 107 105 101 94 88
65 67 64 62 63 65 66 67 67 59 62 62 64 63 63 65 66 67 68 69 73 75 77 77 80 83 87 88 88 87 89 91 95 99 102 104 107 107 107 104 96 89 84
71 67 68 67 67 66 62 65 66 67 68 67 64 62 68 71 71 71 74 75 75 76 77 83 88 91 89 88 89 89 92 96 101 102 103 108 108 108 106 98 92 88 85
85 73 69 71 71 71 70 70 75 73 71 69 67 68 68 73 75 75 75 77 79 81 86 93 94 91 89 92 96 99 98 101 104 105 107 109 110 109 100 93 90 87 84
84 75 72 83 78 75 78 83 79 82 81 81 79 78 75 75 75 79 85 86 87 87 88 93 95 96 97 98 98 100 103 105 106 107 111 109 107 101 96 91 90 87 78
89 91 91 86 86 87 89 85 85 81 82 79 77 80 83 85 88 87 89 90 86 98 102 99 97 98 99 103 106 108 109 109 110 110 109 106 100 94 91 91 88 82 72
90 97 100 100 99 98 93 98 98 85 83 85 90 93 93 94 95 96 95 100 104 110 102 100 100 103 105 111 112 111 110 109 106 104 102 99 93 90 89 91 87 76 69
99 97 95 96 100 101 99 97 94 96 91 92 94 94 98 102 102 105 108 114 114 107 106 108 113 113 114 112 108 102 100 100 100 100 97 93 89 89 89 88 78 70 65
99 100 102 102 103 102 102 100 100 96 93 97 104 105 105 107 110 114 116 114 110 116 115 117 115 114 106 103 101 99 100 99 98 94 92 90 89 89 87 81 73 67 62
116 118 117 115 110 110 108 108 106 105 107 110 112 114 118 121 118 118 119 121 122 120 116 116 116 110 107 101 99 98 97 95 95 92 90 88 89 88 83 76 67 65 60
116 116 113 113 109 110 110 112 116 120 120 117 122 126 120 121 127 125 123 122 120 122 119 115 111 105 101 101 100 96 96 95 92 91 88 87 87 84 78 70 64 61 56
112 112 109 114 115 115 118 121 124 129 131 129 123 127 131 130 126 127 129 126 121 118 113 107 105 103 102 100 99 93 93 90 90 87 86 87 83 77 70 63 60 56 53
123 122 124 127 127 128 129 131 132 137 136 134 133 135 138 130 134 128 121 118 114 111 105 104 103 101 97 96 94 92 90 90 90 89 86 80 74 70 63 59 56 51 50
133 138 141 140 140 141 141 140 139 139 140 140 136 136 138 129 122 119 116 112 107 105 102 99 101 98 95 96 95 94 92 92 89 85 78 74 67 64 55 52 49 47 48
137 138 140 142 143 143 144 146 145 140 134 130 127 123 121 119 116 114 111 108 106 103 101 101 101 102 100 98 95 94 90 86 81 77 71 66 63 59 52 47 45 48 46
127 129 132 134 134 135 135 133 132 130 127 124 121 118 115 113 112 111 109 108 106 106 106 105 102 100 97 92 87 85 82 76 72 69 65 61 60 56 48 45 44 46 46
117 119 120 121 122 123 124 124 123 120 118 116 114 113 112 112 111 111 111 110 109 105 100 94 89 86 83 80 78 77 74 70 66 62 61 59 53 50 46 44 44 47 48
110 111 111 112 113 114 113 113 114 114 113 113 113 113 113 113 112 109 105 100 95 91 87 84 80 77 75 73 71 69 68 64 60 56 53 51 48 47 45 45 45 48 49
100 102 103 105 106 108 109 110 110 111 111 110 109 108 105 102 98 95 94 90 87 83 81 78 76 72 69 66 64 62 58 56 55 51 48 45 46 45 45 46 48 51 52
94 96 97 98 100 99 100 100 100 100 99 100 100 99 97 94 91 89 88 84 83 80 76 72 68 66 63 62 59 56 51 51 49 47 46 47 47 45 46 49 51 53 54
91 92 92 94 94 94 95 96 95 94 94 96 95 94 92 87 83 80 77 73 69 67 65 64 61 59 58 55 53 52 49 48 47 47 49 46 45 46 50 52 52 53 55

GFSMA_250_spd_090.txt.gz
Wind_Speed
43 47 47 46 45 44 44 43 43 42 44 43 44 45 45 46 47 47 47 50 51 53 53 55 58 62 63 64 65 66 66 71 76 77 81 85 85 83 89 92 95 97 97
52 48 45 47 47 46 46 45 44 44 44 46 49 48 48 49 50 49 51 52 51 54 57 58 59 64 64 66 67 68 72 76 81 85 84 85 85 90 91 94 98 99 96
44 39 40 43 45 46 46 46 45 46 49 50 51 50 50 51 53 53 54 55 57 58 59 59 62 64 67 65 69 70 74 83 91 88 84 87 88 91 93 98 100 99 95
49 46 46 43 43 47 47 47 49 51 56 55 51 49 52 53 56 59 60 60 61 61 64 64 65 68 69 71 71 73 83 95 93 88 88 91 91 93 98 99 100 98 91
44 46 46 46 47 49 48 45 47 53 55 55 58 61 65 65 62 65 64 64 65 65 64 68 68 68 71 74 78 80 92 90 92 91 90 91 98 103 100 101 99 90 89
51 51 55 52 50 52 52 54 58 61 61 63 68 65 65 67 65 70 71 69 68 64 69 70 74 73 74 79 84 90 90 97 98 94 93 100 104 105 103 97 90 87 84
50 54 55 54 62 56 58 66 65 64 62 63 64 63 65 60 66 71 77 80 77 70 69 73 77 80 84 91 87 96 102 104 102 99 104 104 108 99 94 89 90 86 81
65 76 77 75 79 76 80 83 76 69 64 64 65 69 66 72 74 80 88 88 83 77 73 80 81 83 86 89 94 103 111 104 100 102 108 108 100 96 93 89 86 82 81
81 82 83 83 81 80 88 85 82 78 68 73 75 71 70 83 95 92 88 84 77 76 81 85 86 90 94 95 102 105 107 101 109 109 105 105 100 94 90 87 83 80 80
74 78 81 83 87 93 88 91 84 81 78 82 85 87 91 93 87 88 81 79 84 85 87 90 94 99 98 106 108 109 103 115 111 108 107 103 94 92 90 87 81 78 78
75 81 89 90 90 91 95 98 95 87 87 86 91 97 94 86 83 83 82 92 93 91 90 96 103 105 108 115 109 110 115 116 116 110 101 94 90 90 87 84 81 77 76
81 85 86 86 88 93 97 96 93 97 99 99 98 94 93 94 97 102 99 93 94 93 97 104 109 108 117 111 116 118 117 117 112 103 96 90 89 87 83 80 78 76 77
76 86 93 91 94 98 101 102 106 112 108 107 106 101 101 105 108 103 104 100 97 101 109 111 111 118 115 116 123 122 123 108 103 96 90 88 88 83 80 79 75 76 77
102 101 97 104 109 110 106 111 116 109 105 104 99 106 110 113 113 110 109 106 105 110 116 116 117 121 123 128 125 121 114 107 99 93 89 86 83 81 79 79 77 76 74
113 113 113 112 113 112 108 107 110 108 108 106 105 104 117 118 117 113 112 112 115 112 115 119 126 125 134 127 123 115 106 100 93 88 85 85 82 81 81 78 77 74 69
116 117 116 112 108 107 110 116 117 116 114 119 126 124 124 120 117 113 113 115 119 126 129 131 132 133 128 119 110 104 100 95 93 88 85 86 86 81 79 76 71 70 64
116 117 118 121 123 122 121 124 128 125 130 127 128 126 122 123 116 116 125 132 132 138 139 133 135 131 121 112 107 101 97 96 92 91 90 88 84 80 77 73 67 64 58
123 126 121 123 131 134 127 123 125 128 132 133 126 121 125 129 132 138 143 144 139 138 140 144 128 122 115 107 102 98 95 94 94 92 88 83 79 76 72 67 61 58 51
119 124 123 128 130 126 122 137 135 139 134 132 131 139 143 145 145 144 144 144 145 143 136 131 125 116 109 103 100 97 97 95 91 87 79 76 73 69 65 60 58 53 48
134 135 139 142 141 142 142 140 139 140 142 145 145 146 147 150 152 148 143 138 134 129 126 121 114 109 104 101 99 96 91 86 80 76 74 71 67 63 59 56 54 47 45
134 136 137 139 140 141 141 142 146 146 145 146 152 155 148 143 140 136 132 127 123 120 117 115 108 105 103 97 90 85 81 77 73 70 68 64 61 58 54 52 49 43 42
145 145 147 147 144 145 147 148 146 149 152 147 143 140 136 132 128 126 124 122 120 114 109 106 103 96 92 89 84 77 73 68 66 64 63 60 56 54 51 48 44 42 42
138 139 140 142 141 139 139 141 145 145 142 138 134 131 128 126 125 122 118 113 110 105 99 95 92 87 84 83 77 74 71 65 60 58 56 53 52 50 46 44 43 42 42
116 118 120 123 125 126 127 129 129 129 128 126 125 122 118 115 112 110 106 102 99 95 93 89 84 79 76 74 69 65 62 59 56 54 52 51 50 48 45 43 43 42 42
100 101 103 105 108 110 113 114 115 114 113 111 108 105 104 102 100 100 97 93 91 85 80 73 68 64 62 61 60 58 55 53 51 50 50 48 47 45 44 44 44 43 43
92 94 96 98 99 100 101 101 102 101 100 98 97 96 95 94 92 90 87 83 78 72 66 60 57 54 52 51 50 49 49 49 48 47 47 47 44 45 43 43 46 44 45

GFSMA_250_spd_093.txt.gz
Wind_Speed
41 40 39 40 41 38 41 42 41 37 37 37 37 36 37 39 41 42 42 45 49 50 51 54 58 59 63 63 59 59 62 65 64 68 82 83 92 96 92 89 97 96 87
40 42 44 45 44 44 42 41 41 41 42 42 42 42 43 44 46 47 47 48 50 54 57 59 60 66 70 68 62 66 66 66 69 74 81 87 94 96 89 97 100 94 88
48 46 46 50 51 51 49 52 48 43 44 41 39 43 50 54 50 47 49 56 58 56 53 56 63 71 74 68 66 69 67 69 74 85 88 90 98 94 91 102 98 94 89
44 45 50 55 58 56 50 48 46 44 46 47 48 46 49 53 51 55 59 59 55 50 55 60 74 77 73 71 71 71 73 78 82 92 89 97 94 95 100 103 101 93 85
57 55 53 55 55 55 52 49 46 46 45 45 43 47 48 52 54 55 55 56 55 56 62 68 79 77 77 74 75 72 77 78 90 93 94 99 96 103 104 111 96 93 83
53 54 52 54 55 53 50 50 47 48 49 53 52 50 64 65 56 56 57 57 61 65 72 82 89 81 68 67 75 83 81 84 94 97 96 101 100 109 112 105 93 85 78
52 51 53 55 54 54 53 53 59 64 59 60 61 66 71 68 61 62 63 65 68 70 79 88 84 75 71 78 94 89 85 88 94 99 100 104 107 117 110 106 95 82 78
62 61 60 61 60 55 61 65 73 76 73 71 70 71 69 72 73 70 69 76 77 85 88 81 77 84 93 94 87 87 88 95 100 100 100 110 113 117 107 97 89 83 78
63 64 59 60 67 72 73 79 83 82 85 84 84 78 80 85 85 81 81 81 85 87 84 87 88 95 96 93 89 90 91 97 102 102 105 113 114 115 102 94 86 79 75
59 58 60 66 73 78 79 83 89 87 87 84 88 90 88 82 82 86 86 89 96 98 95 98 92 101 98 97 97 96 94 100 105 106 111 118 114 115 97 89 82 79 74
59 64 67 65 62 63 66 67 79 81 87 92 87 88 93 96 90 95 98 96 101 99 97 92 107 101 106 105 101 101 99 105 113 108 122 121 122 113 97 89 81 77 73
65 66 61 67 73 72 73 73 74 79 76 81 90 94 97 97 102 100 102 102 98 101 99 104 102 113 113 111 107 105 102 113 118 124 125 127 119 107 96 86 82 78 73
69 71 66 74 74 75 77 81 85 86 88 90 95 99 95 102 105 105 104 103 101 105 101 96 108 113 115 114 109 111 115 119 128 127 127 121 114 102 91 84 81 76 76
79 79 79 81 85 87 82 86 91 95 97 97 102 107 106 109 109 107 107 106 115 95 105 108 121 119 123 116 115 123 129 129 132 123 118 109 105 96 88 83 79 79 74
86 85 81 82 88 91 91 98 100 101 101 103 100 105 108 111 114 115 115 110 102 120 123 115 128 129 127 119 124 132 135 136 131 119 115 108 96 89 84 83 80 75 68
103 97 91 98 104 106 107 105 104 104 104 105 110 118 116 117 114 118 125 130 128 131 125 122 132 131 128 130 137 138 142 128 121 111 103 94 89 88 86 82 75 69 65
113 113 111 113 107 103 100 104 107 109 107 108 115 118 113 123 117 118 128 126 131 128 125 137 147 137 136 136 137 142 127 118 110 103 98 94 90 87 79 75 65 65 61
116 116 122 125 128 125 124 122 124 124 124 124 126 129 123 131 134 131 129 131 138 143 142 150 141 139 141 141 143 130 116 110 105 100 93 90 86 79 72 69 64 61 57
124 126 129 130 132 131 128 125 128 127 129 132 130 129 131 130 129 134 138 141 145 149 147 144 149 150 147 146 132 122 115 107 100 97 90 83 77 71 68 64 61 56 52
130 131 133 134 135 133 131 131 130 131 130 132 135 137 136 138 143 143 150 150 149 146 149 149 140 136 135 130 121 114 107 101 94 87 80 75 71 65 63 60 55 51 48
134 136 138 133 135 138 139 138 135 137 139 139 141 144 147 150 153 149 147 149 154 153 146 143 140 132 124 116 106 102 96 91 88 82 75 70 65 62 57 55 52 47 45
141 141 144 143 143 144 144 147 149 148 149 153 154 152 149 152 153 154 157 153 147 146 141 132 125 119 110 104 99 94 89 82 77 70 66 63 58 55 54 51 47 46 42
147 150 151 150 146 144 145 143 145 149 151 151 152 155 155 155 153 151 147 141 131 125 122 119 112 105 99 94 91 83 75 67 63 61 58 56 51 49 47 47 46 44 40
149 150 150 151 152 151 151 150 146 146 148 149 149 148 142 138 134 129 124 119 115 113 107 103 100 94 87 80 72 65 59 54 53 50 48 47 46 46 46 44 41 39 38
144 144 146 145 143 141 140 139 137 135 133 129 128 126 123 119 117 113 110 109 103 100 96 94 87 80 71 63 57 53 49 46 43 41 41 43 43 42 40 39 38 37 38
126 126 125 122 121 121 119 117 114 115 114 113 113 113 110 106 103 101 97 94 91 88 84 79 72 64 57 52 48 44 41 39 39 38 38 40 40 40 39 38 37 38 40

GFSMA_250_spd_096.txt.gz
Wind_Speed
47 49 48 48 45 44 43 43 42 41 36 33 34 35 39 43 44 44 42 42 41 40 45 48 48 39 44 54 63 62 71 67 68 66 75 78 77 77 86 91 91 95 98
55 54 50 42 42 44 44 46 44 42 45 43 43 45 47 47 48 42 42 42 39 43 46 48 45 46 49 58 65 74 71 60 61 72 79 75 75 77 86 90 91 95 99
53 52 46 35 42 48 47 48 48 46 46 47 52 54 52 49 41 44 42 39 46 48 48 50 50 51 54 60 65 76 67 66 77 78 70 74 74 79 86 89 96 97 107
49 49 44 45 51 52 50 49 47 48 51 57 54 49 39 39 46 49 48 47 54 51 51 51 50 58 63 73 75 81 71 74 79 78 76 76 76 83 86 88 95 104 104
52 48 47 49 55 56 53 54 53 52 51 51 50 47 46 41 42 48 50 49 55 52 56 62 62 66 72 72 78 83 80 76 83 85 81 80 83 89 88 90 98 106 110
52 52 54 54 58 57 59 58 57 56 53 51 50 50 51 52 47 50 53 55 61 56 66 74 71 73 79 80 83 86 85 79 86 89 89 92 92 89 94 94 102 108 105
57 56 59 57 59 59 56 55 58 56 51 57 60 64 64 64 61 61 62 66 73 74 80 82 75 77 80 83 88 89 87 89 87 94 97 100 100 99 94 105 113 110 111
53 57 57 61 62 59 59 59 57 59 59 62 66 62 68 65 67 74 81 77 82 83 88 84 80 84 84 89 91 86 92 95 88 100 101 103 106 105 107 113 116 115 102
56 55 59 60 59 59 63 68 67 68 67 69 70 74 70 74 77 80 80 81 88 85 85 81 87 85 91 95 92 89 100 94 104 108 104 108 117 117 112 116 119 105 100
57 56 58 62 64 69 65 68 71 70 70 71 75 77 78 78 84 83 88 85 77 81 82 88 91 96 97 93 98 102 103 104 108 108 104 111 118 122 120 116 114 104 94
60 59 64 65 63 64 65 65 72 81 82 77 79 80 78 84 86 73 85 77 85 83 91 96 96 99 102 99 106 98 103 105 113 109 109 119 127 126 127 120 112 99 88
69 69 66 65 64 63 64 71 68 66 69 78 79 93 85 83 83 84 80 88 91 95 97 97 102 105 100 108 101 101 102 113 112 110 119 128 130 127 126 121 111 91 86
74 77 73 72 73 72 76 75 72 69 74 76 80 84 80 88 90 88 92 95 94 97 98 95 102 102 103 105 103 103 122 117 118 119 122 131 129 128 113 106 95 91 85
76 79 80 75 71 82 80 81 83 86 94 91 90 88 92 92 94 96 96 99 99 99 96 97 101 97 104 104 108 129 126 120 123 126 133 131 134 125 113 103 94 87 81
79 77 79 82 78 89 87 85 90 95 90 90 88 91 94 98 101 97 101 98 99 99 97 105 108 103 121 126 123 122 126 126 133 138 132 137 132 114 105 102 91 84 79
89 87 80 84 86 89 86 88 90 91 92 96 98 96 97 97 100 101 98 108 96 106 101 116 126 131 131 130 132 133 135 139 143 139 144 139 116 104 99 90 86 80 73
104 100 103 98 94 95 93 88 90 95 102 103 101 100 95 100 104 107 110 117 112 122 127 128 133 130 134 135 137 138 143 145 146 144 142 116 107 100 94 88 78 70 66
109 108 107 108 111 114 109 105 104 107 111 110 113 119 114 105 111 121 127 129 134 136 135 135 135 137 142 145 148 150 140 144 143 126 111 105 96 90 83 77 70 65 58
114 115 114 113 113 114 105 106 105 111 109 111 114 118 118 124 131 136 136 138 140 139 137 143 145 148 148 150 150 143 145 135 117 106 101 97 92 86 79 72 64 58 55
121 125 125 129 128 127 129 136 133 137 137 137 138 139 138 136 137 138 143 143 143 140 141 144 143 142 147 144 143 139 127 114 106 101 96 93 86 80 71 64 58 56 51
121 121 123 126 132 132 134 137 139 141 140 142 144 142 141 141 143 145 143 142 146 146 146 147 148 147 151 147 134 119 109 105 99 96 92 80 71 64 59 53 49 46 45
130 128 131 131 132 133 134 139 141 143 146 148 149 146 147 150 149 145 148 148 149 152 148 148 152 144 133 126 115 110 103 98 94 85 73 62 56 51 49 44 42 42 41
135 134 133 135 137 137 136 138 142 145 142 141 142 143 145 144 146 149 152 151 150 151 155 145 133 124 116 112 106 101 97 91 79 66 56 50 46 42 40 39 38 37 38
147 149 149 145 148 147 144 142 144 147 150 150 150 149 149 152 153 154 153 154 156 146 133 127 116 111 106 101 98 93 85 72 60 55 48 42 39 37 35 34 36 37 37
152 151 148 148 150 151 152 151 153 155 153 153 151 154 154 155 154 155 151 143 135 127 116 110 105 101 97 92 87 77 66 58 52 46 41 37 35 34 33 34 35 34 34
157 155 157 157 159 158 157 154 155 155 154 157 159 161 155 151 147 138 131 122 116 109 102 97 95 91 85 77 69 61 55 49 44 39 36 33 31 31 31 31 32 33 32

GFSMA_250_spd_099.txt.gz
Wind_Speed
56 51 52 51 47 44 44 46 46 47 46 46 46 43 42 36 37 42 45 48 42 46 42 37 37 38 41 43 52 53 59 65 68 68 74 68 70 80 77 80 85 86 94
57 52 49 52 48 49 48 46 47 44 46 47 47 45 44 47 46 47 51 48 48 46 44 41 40 37 38 50 55 57 60 68 69 73 77 79 76 81 82 83 88 92 98
54 51 51 49 53 53 51 48 44 48 46 47 47 44 47 48 49 51 49 48 47 46 48 43 43 45 48 58 68 69 69 71 67 75 77 79 78 82 85 84 85 93 99
59 56 52 55 56 55 50 51 52 48 51 50 44 44 47 49 47 48 50 44 47 47 49 49 49 51 58 66 73 79 77 74 75 80 82 75 79 85 88 90 89 95 106
55 54 57 57 55 50 50 53 53 56 55 50 49 52 52 51 49 51 55 54 54 53 48 52 49 55 66 68 78 80 73 80 80 82 82 75 79 90 93 93 98 98 105
60 60 58 55 60 59 56 57 58 58 55 56 56 55 56 54 52 54 58 61 60 59 56 60 58 71 74 77 87 78 76 81 81 83 80 78 82 89 97 100 106 104 107
62 64 67 65 62 57 56 56 57 59 57 59 59 57 58 54 56 59 64 66 64 65 71 71 70 76 81 84 90 77 76 82 79 77 80 80 84 89 100 103 104 105 108
59 61 64 64 63 60 57 58 58 61 62 60 56 61 59 59 63 66 66 68 71 75 76 72 69 79 85 89 72 78 80 87 82 77 82 84 96 101 107 104 110 115 120
61 58 58 60 61 58 51 57 62 62 65 62 60 61 65 67 68 71 71 76 78 76 68 77 85 79 81 73 76 82 85 85 80 80 86 93 101 109 112 113 116 120 123
64 62 61 61 59 60 56 58 62 62 64 66 67 69 73 73 73 75 78 78 77 74 84 77 82 79 81 76 85 81 86 82 87 84 91 102 109 107 115 119 122 126 123
68 66 66 62 64 62 58 60 64 68 66 72 79 84 80 79 77 81 89 87 80 82 85 76 81 80 81 85 86 87 81 79 85 93 101 112 117 118 126 127 129 125 123
76 75 72 74 73 66 64 64 64 71 74 75 77 79 77 78 79 81 95 83 90 88 86 81 83 86 85 89 87 88 82 87 101 107 116 114 119 123 128 125 128 125 113
75 80 82 85 82 80 78 76 73 75 75 77 80 83 80 87 91 97 99 93 91 96 88 90 90 90 89 88 87 91 90 100 113 117 121 120 128 131 128 127 129 117 96
80 83 78 80 82 82 82 77 76 77 78 83 85 86 91 93 96 97 95 94 97 96 91 93 96 94 90 97 96 99 100 115 119 125 130 134 131 135 129 121 121 97 89
87 91 90 90 91 90 87 90 86 87 89 89 91 93 90 95 96 94 97 98 101 93 93 97 98 94 105 106 98 108 120 122 132 134 137 132 135 136 129 114 100 89 80
93 92 89 89 87 83 85 82 82 83 82 84 87 91 93 93 96 95 99 100 103 103 97 105 103 108 110 102 109 120 125 136 139 137 144 134 136 130 109 102 93 84 80
87 87 84 87 90 84 84 84 83 88 91 92 95 96 100 97 99 99 99 101 103 105 107 104 105 113 107 118 123 133 143 142 141 142 141 133 134 119 101 92 87 80 76
109 97 92 93 100 101 95 94 94 94 95 96 97 103 104 104 103 102 106 105 102 102 115 118 111 117 123 133 142 144 138 147 142 132 137 131 111 101 95 88 81 78 71
112 112 108 108 110 105 110 114 115 109 105 107 108 102 103 102 104 104 117 127 121 114 120 123 128 132 140 144 143 149 148 136 138 135 132 114 104 96 90 84 79 68 59
118 118 120 117 118 117 118 115 112 112 121 118 114 113 114 111 119 122 123 124 126 128 132 139 142 146 148 146 147 139 139 138 139 128 117 105 98 91 86 75 63 55 49
108 110 117 120 120 122 121 123 127 127 127 124 130 131 130 132 135 137 139 141 143 144 147 147 147 149 150 145 141 137 143 141 129 115 105 99 93 88 74 60 52 45 41
120 124 123 127 130 133 131 129 135 137 139 141 144 143 144 142 142 140 138 142 141 138 143 141 139 137 140 145 144 139 131 121 114 102 97 93 87 73 61 54 46 40 36
137 136 139 140 140 141 147 149 151 147 142 141 150 153 155 151 148 141 139 140 140 141 142 144 147 145 145 152 142 137 124 112 103 95 91 83 72 62 53 46 41 35 33
149 150 149 150 152 151 152 145 148 150 150 144 145 147 146 148 146 145 145 145 146 151 151 146 146 148 149 143 133 113 107 101 93 87 81 70 60 51 46 41 37 33 31
158 162 162 162 165 160 155 156 153 150 149 154 155 157 158 156 153 153 154 149 156 154 154 154 155 147 133 117 111 105 96 88 83 76 67 57 49 45 40 36 33 31 30
168 167 169 168 165 164 164 164 163 163 162 163 163 157 158 157 157 153 151 156 158 160 157 148 131 118 110 105 98 91 84 79 73 65 56 48 41 37 34 32 30 29 29

GFSMA_250_spd_102.txt.gz
Wind_Speed
60 58 57 55 52 51 46 44 47 44 42 43 42 43 42 43 43 42 42 41 42 42 47 51 47 44 44 44 44 44 48 55 59 66 71 71 59 67 72 72 77 83 82
66 63 57 56 56 51 51 47 44 47 44 42 37 40 43 45 47 43 44 45 46 46 47 51 50 49 46 45 48 52 52 57 65 73 80 70 60 68 71 76 81 86 82
70 69 66 60 54 53 50 49 47 51 49 50 55 53 48 45 47 46 44 47 45 45 46 52 54 56 53 51 48 54 58 60 69 77 79 70 64 62 69 75 84 84 88
74 73 69 67 62 56 55 54 49 53 54 56 56 51 50 49 51 45 47 47 46 49 51 53 57 56 57 55 56 62 63 67 77 77 83 65 64 65 73 80 85 91 87
66 67 68 68 61 62 57 52 55 55 55 56 56 54 54 53 53 51 53 52 53 53 54 51 55 56 60 58 61 69 69 70 73 72 73 63 64 62 77 82 89 92 97
66 68 66 67 66 65 57 60 58 56 57 58 61 59 56 55 52 57 58 57 54 54 50 53 56 61 62 68 72 69 68 74 81 83 68 62 67 72 68 78 94 95 102
62 62 63 62 64 62 61 60 61 59 61 63 61 55 52 54 55 59 59 57 56 53 54 55 60 67 72 68 66 63 81 76 75 63 66 61 69 82 82 86 96 104 110
61 62 62 60 62 65 66 69 66 68 67 63 62 59 57 58 61 61 61 60 60 55 62 65 72 67 72 75 62 71 77 70 70 70 73 69 81 77 82 93 110 109 116
57 57 53 56 60 65 68 69 69 65 62 64 65 63 64 64 64 64 63 62 65 65 73 69 69 71 78 71 67 76 76 73 74 73 76 74 78 76 85 109 112 105 122
55 58 62 58 57 61 63 64 67 67 68 70 72 68 66 68 66 65 67 68 70 74 71 74 70 83 77 66 74 77 76 79 79 77 81 91 86 80 101 105 113 119 123
68 64 62 60 63 68 67 64 63 65 72 73 72 72 70 69 68 68 71 73 76 79 84 82 76 79 84 78 85 78 81 79 82 84 89 93 86 89 103 112 116 126 128
69 69 68 66 72 76 73 74 72 72 75 75 76 75 71 74 75 75 74 77 81 82 83 84 83 84 84 85 82 85 83 87 88 91 91 91 93 101 117 113 125 131 136
73 73 73 72 76 77 77 76 75 74 76 78 82 80 80 84 83 80 86 85 82 84 85 81 87 92 91 85 86 89 92 94 93 90 97 94 97 116 114 125 135 140 136
78 77 76 75 82 83 81 84 81 80 80 84 85 89 89 85 87 90 87 85 84 85 84 92 91 92 94 89 91 94 95 97 95 96 100 102 123 120 126 134 139 140 134
81 79 79 81 87 88 83 85 83 83 84 90 91 92 90 91 95 94 91 90 90 90 93 91 95 96 92 94 95 98 97 92 93 102 111 121 125 127 135 143 130 119 115
81 79 82 84 90 86 84 84 85 84 88 91 92 93 94 97 96 98 97 93 96 89 94 89 91 96 103 96 95 94 95 100 115 120 125 129 131 139 143 132 127 111 97
89 89 85 87 91 87 90 90 91 97 98 98 97 99 100 101 102 96 102 99 96 89 92 96 97 102 101 97 91 102 104 117 120 125 130 135 140 130 136 132 112 97 85
98 97 98 98 105 103 105 107 101 105 103 101 105 108 105 96 93 96 100 94 96 97 103 98 107 98 101 107 107 113 115 123 136 139 132 128 133 132 130 116 103 87 81
100 98 97 99 102 102 101 100 105 99 93 90 94 102 94 101 103 103 104 99 105 101 107 108 109 112 110 112 124 130 137 141 145 142 133 140 138 129 120 103 92 85 76
97 102 103 102 107 107 110 111 103 105 108 108 104 98 104 105 100 106 104 111 106 106 105 108 115 121 124 135 142 142 143 142 136 138 134 133 129 115 99 94 86 78 62
99 103 98 97 96 97 101 106 104 107 112 112 110 111 112 107 108 113 103 106 110 119 129 127 132 137 144 139 139 143 138 142 144 135 131 129 112 98 92 86 78 65 53
102 104 108 113 125 115 112 115 116 113 109 109 113 116 109 116 118 121 114 117 120 125 133 141 145 144 150 138 150 144 149 146 139 135 132 112 101 91 84 79 68 54 46
109 110 111 113 112 112 113 125 118 124 132 138 138 133 126 118 118 121 125 134 139 146 147 149 155 153 155 141 142 149 142 142 131 132 110 96 88 81 78 70 56 48 42
135 128 128 133 132 133 130 124 124 119 119 122 123 123 128 133 133 139 143 146 145 149 152 152 161 156 150 153 156 145 136 134 129 104 96 89 82 76 70 58 50 45 39
144 149 147 142 145 144 144 143 143 143 140 140 140 145 146 150 148 153 155 156 157 156 157 152 155 151 150 149 140 140 127 117 102 92 87 83 75 66 56 51 46 40 35
165 166 167 167 172 174 169 168 166 162 157 157 151 155 161 163 163 168 163 165 163 167 164 161 154 151 148 137 136 124 113 101 91 85 80 74 62 53 47 43 41 38 35

GFSMA_250_spd_105.txt.gz
Wind_Speed
62 58 56 58 56 53 51 51 48 47 47 44 45 41 43 44 42 42 44 44 44 43 42 43 44 46 47 48 49 46 49 50 52 55 59 64 68 68 71 73 57 57 70
65 61 60 60 57 56 53 49 50 51 49 50 43 46 46 51 48 47 46 46 46 44 46 46 46 46 46 47 49 48 49 55 58 58 66 69 71 66 66 64 61 59 70
67 66 66 65 64 63 62 60 54 52 50 52 47 48 52 51 52 48 47 44 48 48 47 40 45 45 46 46 44 46 46 48 63 61 64 66 64 69 65 55 63 63 72
60 63 68 68 68 68 68 63 64 62 61 59 54 55 53 56 54 51 51 51 49 50 49 49 51 48 46 44 46 45 49 58 58 63 59 60 66 68 65 62 67 68 67
50 56 64 64 63 65 68 67 65 68 66 63 60 57 58 60 59 54 55 54 52 54 53 54 54 52 48 49 48 49 57 55 63 57 56 61 66 66 66 68 66 71 73
52 52 51 56 61 64 66 70 64 69 65 64 63 63 61 60 59 59 55 55 52 54 56 57 55 55 54 51 47 58 64 62 63 64 59 62 65 68 69 71 74 77 72
51 53 56 59 60 63 64 67 68 64 66 66 71 65 64 65 62 61 58 58 56 56 56 57 58 55 56 51 55 61 61 62 65 68 64 68 68 71 71 75 75 73 78
64 57 60 61 65 68 60 67 68 68 71 73 72 69 63 67 68 64 66 59 62 63 63 60 59 57 56 58 65 71 67 66 73 78 71 65 63 67 71 78 77 77 89
65 66 66 62 60 61 55 56 58 64 72 72 70 66 69 71 70 73 67 65 67 68 67 62 61 61 61 68 69 73 68 71 82 79 82 71 71 73 72 74 76 81 98
68 67 60 59 57 55 60 65 62 70 71 71 67 68 68 70 71 69 71 69 72 72 74 73 68 64 67 72 78 80 78 79 83 83 82 71 72 75 72 73 81 94 98
78 74 70 65 53 59 62 66 69 72 68 70 69 67 72 71 71 71 73 75 76 77 77 74 70 73 80 82 87 84 86 84 82 81 83 75 73 73 73 77 74 104 105
75 78 75 75 73 73 70 69 69 73 74 76 72 72 74 75 73 74 74 76 80 81 75 78 83 85 84 90 89 85 88 90 79 86 80 78 77 73 71 79 91 101 113
81 76 69 62 69 72 75 76 76 76 80 79 76 74 77 79 77 74 76 77 81 83 86 89 92 88 92 95 93 92 89 87 85 84 86 78 84 79 79 89 100 122 133
91 84 78 74 70 77 77 82 84 84 83 81 79 75 81 80 78 81 84 86 87 87 87 92 95 96 95 97 92 94 95 92 90 86 85 85 86 85 99 104 125 134 136
89 89 90 89 87 83 84 88 88 86 85 85 84 78 82 87 87 87 85 88 89 90 90 91 100 101 101 98 104 95 92 85 85 85 92 91 92 91 107 118 131 144 137
93 93 91 89 90 90 88 91 93 92 90 88 87 87 87 87 88 86 86 87 92 94 98 100 100 102 106 105 95 99 93 88 90 96 92 87 99 101 126 132 137 137 138
92 97 102 99 93 87 87 87 91 92 92 92 93 90 92 93 91 93 91 100 100 109 106 102 98 104 100 98 93 93 92 92 91 93 98 102 109 125 132 136 142 149 144
103 97 99 100 102 96 99 98 99 94 92 95 94 92 94 96 95 101 107 108 110 108 109 105 103 101 95 96 97 98 96 97 100 99 103 113 125 125 136 140 151 137 123
95 97 96 98 98 99 101 101 104 104 104 103 103 105 107 111 111 110 106 107 109 108 111 103 100 96 98 103 101 99 107 103 106 116 113 117 130 132 138 149 147 118 100
97 96 94 96 99 99 101 102 103 106 105 107 110 109 106 106 106 109 112 106 103 103 100 103 109 103 105 108 111 106 112 112 123 113 119 126 132 139 150 153 124 107 87
107 103 98 96 96 102 105 107 108 103 102 103 104 107 108 105 111 108 108 114 116 114 108 109 108 106 113 110 111 114 128 122 121 124 129 139 144 153 147 151 110 89 77
106 109 107 111 114 118 117 113 106 106 107 105 110 106 109 113 105 111 112 114 116 119 113 113 107 120 114 120 134 127 125 134 129 133 141 145 150 137 133 115 93 83 71
111 115 116 120 118 116 118 120 123 127 128 135 133 127 126 125 127 130 123 122 121 115 126 126 129 123 128 130 133 130 131 137 139 145 146 148 147 142 122 94 83 73 65
118 121 123 122 123 123 122 127 127 125 125 121 122 125 122 124 124 126 123 122 134 126 124 129 129 133 136 137 132 134 141 145 150 148 139 140 134 114 92 82 76 67 58
127 131 134 134 131 132 135 135 134 135 136 134 131 137 136 132 132 135 136 140 137 143 141 141 143 142 147 141 148 148 155 150 155 137 142 124 108 96 81 72 67 59 51
140 143 145 154 153 158 166 164 160 164 162 162 157 155 164 165 151 159 153 153 162 157 156 158 155 157 158 157 159 153 159 156 143 127 107 89 85 78 68 61 57 50 45

GFSMA_250_spd_108.txt.gz
Wind_Speed
64 60 60 58 57 55 54 52 50 49 47 45 45 45 47 45 42 42 44 46 41 38 39 39 40 43 44 43 42 41 41 40 38 37 38 49 54 51 52 57 58 59 66
65 64 62 61 60 60 56 50 50 49 48 49 48 45 44 46 46 46 53 53 50 43 40 40 42 43 46 44 43 47 44 42 42 37 43 54 52 59 57 66 57 53 60
63 66 65 65 67 61 59 56 55 53 56 57 59 59 57 56 54 54 54 57 55 52 46 45 44 45 48 48 49 52 51 46 44 40 47 53 62 63 64 68 60 58 57
65 59 63 66 64 64 62 62 62 60 63 63 63 63 63 62 63 59 60 57 60 56 50 50 47 50 48 50 51 54 51 50 47 45 51 58 63 67 69 70 65 61 56
61 58 59 56 57 61 62 63 63 65 67 65 65 67 66 64 63 60 62 64 64 58 56 51 49 51 50 51 55 56 53 51 50 48 57 63 65 67 72 72 67 64 64
63 63 63 57 56 54 57 61 61 61 61 65 67 65 65 67 63 66 71 65 62 58 56 52 53 53 54 54 57 56 56 53 54 55 62 70 67 67 73 83 77 66 56
63 62 59 56 52 48 52 56 54 62 63 63 64 63 60 66 65 71 72 71 64 63 59 60 57 57 58 58 60 61 58 58 57 62 67 72 77 71 82 80 76 64 58
58 56 57 56 54 49 51 56 58 60 62 67 70 68 62 71 73 75 74 68 67 68 67 66 64 62 60 62 65 66 64 61 60 66 73 77 81 82 84 84 69 64 62
66 59 63 58 58 59 56 57 61 64 64 64 68 67 64 75 71 74 72 69 69 68 70 67 67 65 63 64 66 67 70 62 69 77 77 82 90 88 87 78 71 65 65
62 67 63 60 64 62 60 63 61 70 70 69 67 68 75 75 69 75 74 70 68 71 67 64 65 64 64 67 68 72 71 74 77 81 83 92 90 89 85 75 72 71 63
64 64 67 67 67 65 65 64 67 71 64 70 72 75 78 75 73 73 74 70 69 68 69 67 65 68 66 67 69 75 74 76 77 81 88 90 91 87 81 76 73 77 68
75 74 73 73 76 76 77 74 68 69 70 75 76 76 75 76 78 76 75 72 72 73 71 72 75 70 67 71 76 77 77 78 83 90 96 92 89 82 75 72 76 75 73
82 82 83 80 75 74 77 75 76 77 76 77 81 80 82 80 80 78 78 77 77 77 78 78 74 73 76 80 78 76 80 83 93 98 89 87 85 87 81 77 74 74 78
68 74 72 76 80 79 72 74 73 72 72 76 80 76 80 81 80 80 83 82 85 81 79 78 79 79 78 80 79 82 88 92 98 97 96 92 85 83 83 82 83 88 88
81 80 79 79 79 73 74 74 75 77 80 82 78 77 81 84 86 89 91 89 88 84 85 85 84 86 86 88 89 87 97 96 104 101 94 97 89 91 92 87 96 89 90
85 83 80 82 84 88 84 88 92 90 88 91 92 86 93 90 89 93 93 91 87 88 90 88 91 96 94 90 90 101 104 104 100 103 97 94 90 91 93 91 89 97 97
96 96 91 91 94 94 96 97 100 101 99 98 100 104 104 104 101 96 95 93 95 95 94 93 91 92 92 94 103 103 103 98 106 103 94 94 102 98 96 97 96 99 109
99 98 99 97 100 99 98 99 98 103 101 97 99 104 105 102 103 101 102 107 108 104 100 99 98 102 103 105 105 107 107 95 101 102 102 101 106 100 99 105 102 104 115
99 97 100 100 97 98 100 99 99 98 100 102 106 108 107 107 104 101 105 109 106 107 108 110 106 108 109 109 111 111 109 104 103 104 105 102 104 107 107 116 111 122 124
96 101 101 102 101 104 105 104 102 98 101 96 103 110 111 111 107 111 110 111 113 116 114 111 112 106 110 110 113 106 101 106 109 111 108 114 115 113 118 119 124 125 129
101 106 108 108 110 107 111 110 110 115 115 113 111 113 117 115 118 112 115 113 112 114 111 111 113 106 108 110 108 103 103 115 115 121 115 123 123 121 127 130 126 137 133
88 95 97 105 110 111 117 114 115 118 118 118 124 123 117 116 113 111 113 111 116 113 111 112 109 109 109 114 125 125 121 122 120 126 129 125 126 130 135 136 133 139 131
109 108 110 115 111 113 113 120 118 118 122 123 118 116 121 119 119 120 120 121 116 118 123 127 126 125 126 123 129 131 129 129 126 124 132 136 137 141 136 138 135 132 130
105 105 110 109 115 120 124 121 122 128 128 129 129 129 128 131 129 130 131 134 125 129 129 129 125 127 128 124 127 131 133 134 139 135 140 141 139 136 137 130 117 112 89
106 107 119 125 128 133 139 141 140 143 150 154 152 150 149 150 146 147 140 138 131 135 134 137 137 136 132 140 138 137 144 145 142 138 135 139 130 119 117 111 94 79 64
120 125 130 131 139 145 153 153 157 161 155 159 152 160 157 159 160 135 139 143 154 152 152 145 144 149 153 146 135 132 141 135 128 128 117 106 108 103 95 83 70 59 50

GFSMA_250_spd_111.txt.gz
Wind_Speed
72 70 69 68 66 61 58 55 51 47 47 46 46 47 45 43 44 39 42 43 45 44 43 45 44 43 41 40 43 42 43 45 46 49 49 40 46 46 47 51 56 67 74
74 73 72 71 70 66 61 59 55 52 52 51 49 45 46 47 48 51 53 52 53 54 53 51 50 45 46 46 44 44 46 46 49 50 52 47 48 51 53 52 61 70 72
67 71 74 74 71 67 65 62 59 56 54 55 52 51 49 52 56 57 58 59 54 56 56 59 54 52 47 50 49 47 46 48 49 52 55 51 53 53 56 58 64 71 78
47 71 69 71 71 69 67 62 61 58 58 58 57 57 57 59 61 63 59 56 58 61 59 61 61 59 56 51 51 48 46 50 52 54 57 56 57 57 59 61 70 74 81
69 68 73 73 71 67 66 64 63 63 59 62 62 58 59 61 65 68 63 61 54 60 64 64 66 63 61 57 56 50 50 52 54 58 57 59 58 57 58 64 71 75 82
64 50 75 69 69 68 66 58 58 57 57 61 57 63 61 62 60 64 63 58 56 61 64 65 67 66 65 63 64 60 58 58 56 58 60 62 60 60 61 66 70 79 80
68 68 71 66 61 64 68 66 58 57 56 58 53 61 55 61 61 63 69 65 61 66 68 72 71 70 69 60 61 60 59 61 61 56 58 59 62 56 64 66 74 81 79
68 67 67 65 67 67 63 64 64 60 67 60 55 55 55 64 68 67 66 65 67 70 69 69 70 62 60 56 59 61 59 59 58 60 60 61 62 65 67 71 76 83 85
66 60 67 66 65 65 62 61 65 72 65 63 63 61 56 68 67 65 67 66 66 64 63 64 60 61 59 57 63 64 62 64 62 59 58 61 66 67 68 73 79 87 86
75 80 76 71 65 57 57 56 59 62 63 61 62 63 65 69 68 69 71 68 66 64 67 65 59 63 61 65 63 68 65 70 70 61 61 66 69 67 69 73 77 83 89
76 75 83 73 66 62 63 65 66 62 61 63 64 68 73 74 69 70 70 69 67 70 68 65 64 64 68 71 65 67 70 72 66 67 67 68 70 67 75 79 84 92 89
77 82 82 78 85 69 64 61 61 72 70 71 73 74 74 77 76 74 73 70 66 66 67 72 74 70 72 72 73 73 75 72 70 69 71 74 72 78 83 84 91 85 84
72 78 81 86 85 75 70 73 70 74 73 75 77 78 76 75 77 76 75 68 68 70 69 73 77 77 74 76 78 81 74 74 74 74 76 80 82 83 84 90 94 97 105
65 71 73 82 79 77 79 81 80 74 76 77 81 79 82 82 77 76 72 71 72 71 76 78 88 89 87 88 85 82 76 78 83 85 81 78 86 83 93 94 98 100 93
66 72 77 80 75 78 80 83 84 78 76 81 83 82 85 83 80 81 83 85 88 90 87 90 91 93 98 92 91 88 86 89 90 89 92 90 91 94 93 101 106 102 91
69 66 68 68 76 80 83 87 87 82 82 83 77 73 79 82 85 92 92 94 95 99 94 97 98 96 94 94 94 93 93 93 96 94 100 98 98 101 104 105 97 92 90
61 66 68 76 74 75 80 83 81 82 77 77 83 92 96 98 95 96 97 103 103 102 99 99 103 102 104 96 101 98 99 102 100 99 102 104 104 108 107 97 97 93 98
70 75 76 79 83 83 83 88 81 78 82 87 90 95 94 98 100 100 98 103 107 104 108 112 110 103 106 105 98 102 101 103 102 103 108 111 104 100 97 97 99 101 106
69 70 74 76 79 82 86 82 88 93 99 100 100 98 101 102 104 103 108 107 105 106 113 110 105 102 109 109 106 106 101 102 102 106 101 102 103 100 101 101 105 109 116
74 80 81 80 81 80 86 87 91 93 98 97 104 104 108 109 102 107 111 105 99 105 103 105 109 111 111 108 110 106 107 101 103 107 108 105 105 107 109 118 122 118 119
77 75 78 79 80 80 83 93 99 102 101 103 105 106 108 115 115 114 114 119 117 117 121 115 113 112 109 110 109 112 109 109 111 108 110 110 111 114 122 124 126 121 123
72 77 79 79 85 92 95 96 102 107 112 113 110 113 119 121 124 123 124 123 121 120 114 115 113 121 113 119 120 120 115 116 118 117 119 115 119 125 125 124 125 130 127
70 75 79 85 90 94 97 102 107 112 115 118 119 122 126 129 132 130 126 127 128 126 123 121 118 118 119 121 124 124 129 122 124 126 126 127 124 127 127 128 131 127 119
89 89 91 94 100 104 107 114 121 126 131 132 134 136 140 141 140 142 141 139 138 136 135 133 132 130 130 133 129 133 133 136 133 134 138 128 129 130 126 126 118 109 103
82 88 91 95 102 108 114 117 118 123 128 136 140 142 146 149 154 151 155 154 150 152 148 144 142 143 140 138 136 131 126 131 124 118 111 115 114 113 113 107 103 101 95
88 91 92 87 88 90 81 98 108 111 110 119 132 138 140 140 136 134 136 137 131 134 137 135 132 128 124 126 123 124 117 105 105 107 106 105 111 101 99 99 96 96 89

GFSMA_250_spd_114.txt.gz
Wind_Speed
67 71 71 72 71 70 67 66 63 60 57 55 53 51 47 44 45 45 45 43 42 45 47 49 50 47 48 51 51 47 47 46 46 47 44 41 44 47 46 48 49 52 56
56 61 66 72 72 73 74 70 66 65 61 59 57 53 52 49 47 48 45 44 49 50 49 50 49 50 51 53 52 51 55 52 50 47 48 49 48 50 51 51 51 54 56
59 60 65 63 64 69 71 71 70 68 67 65 62 58 57 52 51 51 51 52 53 53 55 53 56 57 51 57 54 54 56 57 55 56 52 51 51 54 55 53 55 58 54
58 58 57 62 59 58 56 71 72 72 68 68 63 61 58 57 54 53 54 54 54 55 55 51 56 56 53 59 57 57 56 54 58 56 55 53 52 54 55 54 53 56 58
52 51 48 55 54 52 56 56 64 71 70 66 64 63 61 58 57 54 54 54 58 58 57 60 53 59 61 60 59 58 59 52 47 47 49 50 52 57 56 55 54 55 56
56 53 48 56 54 48 59 59 63 67 64 63 65 64 62 63 56 60 56 60 66 57 63 63 64 60 56 51 52 50 49 42 42 47 51 51 53 57 55 58 55 55 57
61 63 56 53 61 50 58 57 60 60 65 68 65 66 62 58 61 57 65 60 58 58 61 67 60 58 53 51 49 52 50 44 45 49 54 51 55 57 61 64 57 56 59
66 66 63 57 62 66 64 64 63 65 59 59 63 68 68 66 62 64 66 68 65 63 63 58 59 56 55 53 56 57 53 47 48 54 56 54 58 59 61 60 59 62 63
72 70 70 65 60 65 64 67 66 68 64 60 62 64 67 69 67 67 70 70 70 73 63 63 60 59 62 61 64 59 53 54 52 57 60 60 61 63 63 62 64 67 67
72 72 72 72 65 66 63 66 64 75 64 58 61 58 60 63 57 64 68 71 67 69 69 65 63 64 65 62 61 57 62 58 59 63 61 62 66 66 62 67 67 70 69
75 76 76 73 67 68 64 68 73 73 67 65 60 59 59 67 68 69 72 72 71 73 70 64 65 66 66 63 63 61 61 63 63 71 73 76 73 71 75 67 71 77 78
79 77 77 74 64 67 63 61 62 74 68 62 61 67 69 70 67 70 69 72 68 66 67 67 71 69 69 68 65 64 65 70 70 75 80 77 76 75 74 75 78 79 83
85 83 76 61 64 66 66 66 73 75 74 70 73 76 79 73 75 73 72 72 71 73 75 81 80 79 73 70 69 71 77 78 81 82 85 93 85 80 76 76 83 84 86
71 66 62 63 66 65 70 71 80 78 85 84 81 80 79 78 76 75 74 80 82 83 83 83 86 84 81 80 85 86 88 86 92 87 88 89 86 85 78 83 82 84 91
58 58 59 58 62 65 65 77 84 86 91 88 85 81 81 74 78 84 81 79 83 86 87 81 85 85 89 90 93 89 92 92 96 97 90 90 84 84 88 87 91 91 92
50 52 54 55 58 60 65 71 74 79 81 77 79 78 82 84 77 77 79 85 87 84 82 90 93 97 96 93 97 99 100 97 98 95 89 88 95 98 90 97 93 90 93
44 45 46 47 50 55 59 61 67 70 71 76 73 74 80 83 88 92 96 94 87 88 92 99 100 101 101 107 110 99 97 99 97 104 104 97 91 92 94 90 89 89 88
43 46 51 52 53 60 64 67 73 70 78 81 84 90 94 99 101 96 96 100 103 101 105 109 106 101 108 107 107 112 108 105 109 95 99 97 99 101 93 93 94 91 96
50 55 54 57 58 58 61 65 70 74 77 82 87 93 92 96 91 97 98 99 100 103 106 109 108 107 111 108 110 110 112 103 106 100 102 106 105 99 97 99 99 93 97
58 54 56 58 61 66 69 70 75 77 78 79 84 89 93 94 99 103 108 111 115 116 117 114 111 104 106 105 100 103 109 105 108 112 111 106 102 103 99 101 103 107 106
54 55 59 63 68 71 70 70 73 77 83 86 89 96 100 100 100 102 105 106 110 110 110 114 113 110 109 102 99 105 107 109 113 110 111 117 113 109 109 112 105 107 113
54 54 59 65 66 68 68 74 77 80 88 92 98 101 102 105 110 113 119 119 120 122 124 126 126 122 116 116 119 119 117 113 116 122 119 121 119 114 117 120 120 120 115
61 65 69 70 77 77 79 83 85 89 93 102 104 107 113 117 120 128 130 132 138 141 142 141 140 139 135 136 131 132 129 121 123 124 128 128 129 127 127 123 121 118 109
61 66 70 73 78 82 86 92 96 101 106 111 115 121 124 126 130 134 137 141 140 142 144 145 144 139 137 134 127 130 132 128 126 123 128 132 129 126 120 114 112 99 98
61 64 67 72 77 82 84 89 91 91 93 97 106 113 116 120 127 133 131 137 127 127 123 124 126 127 131 130 136 129 127 125 122 122 114 111 111 112 114 112 108 100 97
58 56 55 60 63 70 77 81 87 90 95 99 104 112 118 125 128 138 139 143 145 142 143 141 131 125 125 131 126 124 122 119 119 114 109 108 107 106 106 105 97 96 94

GFSMA_250_spd_117.txt.gz
Wind_Speed
45 46 47 55 60 62 63 64 65 65 64 61 63 60 57 56 54 52 47 46 46 44 43 41 44 42 45 44 43 48 50 49 49 45 44 47 45 46 45 47 47 47 47
45 40 37 42 49 57 64 65 67 68 67 69 68 64 62 60 58 56 52 52 48 46 47 46 46 44 47 47 49 49 53 52 53 56 51 47 45 42 42 43 42 47 48
38 38 39 42 44 45 45 54 59 62 69 73 71 69 69 65 62 59 57 54 50 49 47 48 48 46 49 54 54 55 52 51 46 44 46 43 36 34 37 41 42 45 48
47 47 44 42 45 48 53 59 52 54 55 59 62 67 68 68 66 62 60 57 56 53 50 51 52 53 54 58 61 55 52 47 44 42 43 41 40 38 41 42 43 46 45
58 55 50 51 47 50 47 48 47 43 48 51 50 51 61 68 69 66 62 59 60 58 55 56 57 52 49 54 65 57 48 47 45 46 45 46 44 47 46 42 45 47 51
64 62 61 60 57 52 51 44 48 46 42 45 49 56 54 59 66 68 66 62 62 63 61 61 60 64 61 63 55 48 51 51 48 49 48 51 48 47 49 46 47 51 55
68 65 63 61 61 57 55 53 45 48 47 52 57 56 55 52 57 62 65 66 67 67 65 63 67 64 67 65 61 53 54 58 52 55 57 51 48 53 53 53 51 56 56
67 65 66 64 63 61 57 60 54 49 48 47 51 60 60 55 53 57 62 66 68 71 71 65 66 70 67 64 60 60 62 56 59 61 58 51 58 54 56 55 55 58 58
69 68 66 65 64 61 60 63 62 58 54 55 63 66 61 58 59 56 62 62 60 64 61 61 64 71 70 67 65 62 59 59 61 60 55 62 58 55 56 57 61 66 69
71 69 69 68 65 65 67 67 66 62 64 64 59 67 64 57 63 58 57 60 60 63 65 66 73 73 67 64 59 60 61 63 64 65 62 62 60 53 56 64 69 72 74
72 72 71 70 72 72 73 71 71 70 65 67 65 65 68 64 68 63 62 62 62 62 68 71 70 67 67 66 68 66 66 66 71 66 63 63 61 65 68 71 76 77 79
74 73 72 71 72 73 74 77 80 77 72 72 68 64 69 72 69 73 77 67 67 71 73 72 75 74 73 71 71 74 75 74 72 73 72 70 71 74 78 81 84 85 88
78 77 77 77 78 81 81 81 82 84 77 73 68 62 68 67 70 74 71 69 76 79 78 82 80 77 74 78 76 81 82 78 77 74 74 79 79 79 85 87 90 89 92
82 82 82 80 81 86 89 88 83 76 71 69 65 64 75 79 75 76 78 82 80 82 84 81 85 82 82 84 87 88 88 86 87 85 80 85 90 94 96 96 95 85 79
85 85 88 90 90 88 82 74 69 66 67 64 61 71 72 76 79 83 81 82 86 82 85 89 90 89 83 84 86 91 95 97 100 97 93 97 93 92 96 89 83 85 89
87 85 82 78 75 69 65 61 61 61 62 63 70 74 75 80 80 84 83 81 83 86 81 86 84 84 84 90 95 99 99 95 95 97 101 104 104 96 90 95 97 101 99
68 66 64 58 55 54 52 53 56 59 60 63 69 74 77 83 77 85 84 87 90 91 88 91 92 95 98 100 104 103 103 103 106 110 110 107 107 105 102 109 104 99 100
48 48 49 47 45 43 45 45 47 50 52 57 61 67 70 72 76 79 85 92 93 94 98 102 105 106 109 110 112 112 109 111 111 109 106 108 114 117 113 103 104 97 97
40 41 41 40 41 42 45 46 47 50 55 58 63 68 73 78 82 87 93 99 102 105 110 114 114 113 114 116 118 115 114 114 113 118 122 122 115 116 113 105 98 101 102
38 38 40 41 43 46 47 51 56 58 61 67 71 75 78 82 87 93 96 98 104 107 108 113 114 116 118 121 119 122 120 121 117 112 107 110 107 108 109 107 108 109 109
37 36 41 42 47 53 53 57 62 63 64 68 71 76 80 85 89 88 95 98 102 106 111 117 115 118 119 119 120 120 119 120 117 116 114 109 113 116 122 117 114 116 116
34 39 47 51 52 53 56 62 64 67 68 70 74 79 85 91 94 98 103 110 112 116 120 125 129 133 134 137 138 138 142 138 137 130 128 125 129 121 124 127 122 122 123
39 43 48 51 58 60 64 65 66 72 77 82 87 91 94 99 104 106 111 113 117 122 125 126 129 130 136 137 136 136 129 129 128 126 122 110 109 107 102 110 115 112 114
40 45 48 51 54 56 60 64 68 71 74 79 82 87 89 91 94 96 102 107 113 119 123 129 129 130 130 133 134 133 125 121 119 119 121 125 127 127 117 112 111 108 108
44 45 48 51 55 53 56 62 65 65 67 71 75 79 86 90 96 100 106 107 109 115 123 126 128 127 130 131 134 128 118 113 115 110 118 116 120 117 114 116 115 110 106
49 52 50 50 51 48 52 55 59 62 65 72 76 79 81 78 81 89 95 101 105 109 109 110 116 119 120 117 114 111 103 101 100 95 94 96 101 107 109 108 107 106 100

GFSMA_250_spd_120.txt.gz
Wind_Speed
39 33 32 33 38 43 50 56 59 60 60 60 62 63 61 62 63 62 60 58 55 51 50 48 47 46 46 43 44 43 49 47 49 49 51 50 44 43 44 37 38 34 34
43 39 38 40 39 38 42 51 52 55 58 60 64 65 65 66 66 65 64 64 62 60 56 55 54 49 47 45 44 49 44 49 56 56 49 46 44 42 38 38 40 37 38
49 48 46 43 41 36 32 34 37 43 47 50 58 64 67 69 73 73 71 71 69 65 63 59 54 53 54 50 46 49 56 58 57 54 51 48 45 41 42 40 43 43 47
55 53 52 50 43 42 38 40 39 42 40 45 52 56 59 59 55 55 58 63 69 68 66 63 61 58 56 50 53 56 63 65 63 57 55 47 48 51 45 45 44 51 50
63 61 60 58 52 49 47 46 43 46 45 46 42 41 42 46 50 50 47 50 54 61 68 69 65 62 58 55 61 66 67 65 63 61 61 54 54 55 54 49 50 50 51
65 64 63 61 61 58 58 57 58 53 51 53 49 44 40 42 43 44 49 47 49 51 58 65 68 67 62 61 64 69 69 67 63 63 58 61 61 57 54 57 55 53 59
69 68 65 66 66 66 65 65 63 59 55 55 55 48 43 47 50 52 54 53 56 54 47 53 59 62 64 66 63 56 54 69 64 62 58 61 64 60 63 59 53 51 63
75 74 74 73 74 73 72 71 65 64 62 59 54 53 49 47 51 60 60 61 61 55 53 54 57 58 59 59 56 61 69 70 64 65 59 63 62 62 61 59 54 59 57
77 76 77 75 76 76 71 70 68 64 61 61 59 56 59 56 52 54 61 67 64 64 59 56 62 65 69 71 71 69 70 68 66 67 63 63 63 65 68 63 61 62 59
82 80 78 76 76 75 72 70 69 67 65 62 63 64 63 63 60 63 60 65 72 66 61 60 64 64 63 64 65 66 72 71 65 66 67 68 67 71 68 71 67 66 63
79 80 79 76 77 74 74 73 72 72 70 68 69 70 67 69 73 72 70 69 69 70 68 70 73 75 69 68 69 71 73 69 71 71 75 70 74 77 77 77 74 71 71
77 78 80 80 79 77 75 75 74 73 72 72 71 73 75 79 77 77 79 73 72 74 76 71 73 76 81 79 75 79 77 79 80 81 78 78 77 83 85 79 84 80 79
81 82 77 78 79 77 77 77 76 75 76 79 81 81 84 82 84 83 79 73 70 77 78 75 76 75 76 79 79 83 85 82 84 84 83 83 84 86 88 89 91 86 88
86 84 81 80 80 78 79 79 77 78 82 85 87 88 88 89 87 83 79 73 68 70 77 76 78 81 85 88 88 90 90 87 91 93 92 94 96 91 97 93 92 98 93
86 84 83 83 81 82 82 84 84 87 90 89 89 91 90 85 79 77 77 68 68 72 79 81 84 88 86 87 90 90 91 91 90 97 91 93 95 94 94 98 102 103 105
88 87 87 86 85 86 86 86 89 91 91 96 93 85 77 71 73 72 69 68 73 77 82 84 84 87 86 89 93 96 99 98 98 95 97 98 100 103 105 107 108 108 104
81 86 85 87 87 89 91 90 89 95 88 76 69 64 64 62 61 63 64 70 74 80 83 88 92 91 87 94 98 101 102 102 105 105 107 109 111 113 115 115 115 112 112
68 73 77 81 84 87 90 89 79 71 64 59 51 48 49 52 55 58 64 73 80 85 87 91 95 94 93 97 100 104 107 109 111 114 117 118 117 115 117 119 120 119 114
57 60 62 63 65 63 60 60 58 52 47 45 46 48 51 53 56 61 65 69 74 79 83 87 91 94 100 105 108 111 115 117 117 119 120 121 121 118 119 114 114 115 113
43 45 44 45 46 45 42 41 40 40 42 47 49 53 57 61 65 69 70 74 78 83 87 88 94 98 102 106 109 111 113 117 118 121 122 123 123 125 124 123 120 117 113
33 34 37 40 40 37 39 41 42 50 49 54 56 62 64 69 73 76 78 83 86 88 93 98 100 104 108 112 118 122 125 124 125 126 129 124 125 124 123 125 118 114 114
31 31 34 35 36 41 39 43 46 48 52 55 58 62 68 72 72 77 83 84 85 95 102 101 104 108 109 112 115 117 118 120 122 125 128 126 124 126 120 111 114 113 106
30 31 35 39 39 42 50 53 57 62 64 67 71 73 77 82 86 89 93 92 89 87 87 89 93 94 100 104 110 117 121 119 120 120 123 124 123 120 116 113 105 107 104
27 31 35 39 43 44 47 52 54 55 59 62 65 70 72 73 75 76 78 81 83 85 90 94 99 105 110 110 110 110 111 112 110 113 113 109 111 107 107 101 97 97 98
29 30 36 40 45 46 50 54 58 60 62 65 60 61 65 68 70 72 74 77 82 89 90 91 94 101 105 107 111 115 113 111 105 103 104 97 97 90 92 85 86 82 86
39 42 45 51 50 53 58 54 51 52 55 59 62 65 67 69 73 77 82 86 86 92 97 99 103 108 112 112 115 112 108 104 96 90 89 87 78 84 77 75 71 71 69

GFSMA_250_spd_123.txt.gz
Wind_Speed
45 39 37 34 30 32 36 38 42 46 47 50 55 61 61 59 58 58 60 60 60 60 60 57 58 58 58 56 55 53 51 46 43 41 48 57 57 56 54 49 46 42 43
51 40 36 36 35 34 35 34 36 39 41 46 51 53 52 56 57 61 61 63 63 63 62 62 64 68 63 62 61 56 54 53 49 47 56 59 60 54 53 51 47 46 43
56 53 43 43 40 38 39 35 36 36 33 30 34 37 41 42 44 49 54 57 65 68 70 69 62 59 60 64 64 61 58 57 56 55 59 60 62 60 55 54 51 48 52
64 61 57 51 50 45 47 47 42 44 40 38 38 35 37 38 42 40 45 49 51 57 54 46 49 50 52 56 58 61 62 60 56 59 65 66 66 63 61 57 53 55 56
68 68 63 60 60 59 55 53 51 50 47 47 48 48 48 50 50 49 46 44 44 48 48 47 46 45 46 46 50 58 62 62 58 58 60 59 66 66 61 60 56 57 57
75 73 71 69 66 67 64 61 59 57 55 54 54 55 55 54 54 52 51 45 46 48 51 49 51 49 50 52 50 43 46 54 59 61 65 65 66 65 67 60 59 56 57
80 78 75 71 68 68 69 68 64 61 60 59 60 63 62 60 58 60 56 46 49 50 53 59 56 59 62 62 56 53 54 56 56 61 61 65 64 69 65 60 58 59 58
83 80 78 76 71 69 71 70 68 66 64 65 65 68 66 69 61 63 63 55 56 53 54 53 59 66 69 67 63 59 61 63 65 65 68 71 72 69 67 66 61 60 60
85 81 82 82 78 75 75 75 72 71 71 69 73 71 71 63 67 62 63 61 62 62 61 58 64 64 70 75 73 65 66 66 61 65 69 71 71 69 69 62 63 66 68
84 83 83 84 83 80 79 79 78 78 76 75 76 74 70 67 66 67 68 66 65 66 67 69 70 69 71 73 77 76 71 70 68 66 70 66 68 72 71 73 74 71 73
86 84 85 83 84 84 81 80 80 80 79 77 75 75 71 72 71 71 69 70 69 70 73 75 79 79 78 78 78 79 76 75 78 80 79 79 75 72 75 80 79 79 76
89 86 84 83 81 81 83 82 80 79 78 76 76 75 76 76 76 74 72 74 75 78 81 84 85 86 85 81 81 80 78 78 78 77 75 79 80 80 80 84 83 83 83
91 87 84 84 84 81 79 77 75 77 79 79 79 79 79 78 79 79 79 80 81 84 88 89 92 91 86 79 79 81 82 82 84 83 82 82 84 87 87 87 85 88 89
86 85 81 83 86 87 86 81 81 79 78 77 76 79 80 80 81 82 85 85 88 90 92 95 90 85 78 73 75 76 84 85 86 86 91 93 90 93 94 93 93 94 95
79 79 80 81 85 87 88 89 86 85 83 83 82 84 84 83 85 87 90 92 93 93 91 85 77 75 70 68 71 74 81 84 88 88 87 88 89 91 92 95 97 97 98
72 74 78 81 83 86 88 88 89 87 87 88 88 89 87 88 90 91 93 89 96 83 68 64 63 62 65 70 74 77 84 88 92 95 99 100 101 103 105 104 103 104 105
65 67 72 77 84 90 93 93 92 91 90 89 90 90 88 93 92 92 94 85 71 64 55 56 58 62 68 73 75 79 84 87 91 96 100 102 105 106 107 108 110 111 111
58 61 63 67 72 77 83 88 91 92 91 90 86 87 88 89 90 82 72 66 55 54 53 53 58 62 66 72 76 81 86 90 91 94 98 102 104 108 112 115 115 114 115
51 54 56 59 62 66 71 75 79 82 85 86 83 83 75 70 64 58 53 53 55 58 61 64 66 70 73 77 82 85 89 92 96 100 105 108 112 114 119 122 120 118 117
41 42 45 49 50 54 57 61 65 65 67 65 60 56 53 51 50 52 53 57 60 62 64 67 72 76 77 83 88 93 95 98 101 107 109 107 109 109 108 111 111 110 112
30 31 33 36 38 41 43 45 46 45 45 48 50 50 50 50 54 53 60 64 69 75 75 78 78 83 87 90 92 97 104 101 99 103 104 105 106 112 116 119 120 117 117
20 23 27 29 33 34 36 39 39 41 43 44 48 52 54 57 61 65 71 74 75 79 78 80 90 90 99 94 94 94 96 94 96 97 104 106 114 112 109 111 113 111 109
19 17 25 26 26 29 30 36 43 46 48 52 57 59 64 66 68 70 73 77 80 87 93 95 89 85 86 87 88 89 96 96 99 104 108 110 117 116 113 107 104 102 99
22 26 35 34 37 43 45 49 52 54 56 59 62 66 71 71 71 73 77 83 84 83 78 77 81 81 84 87 90 95 99 104 107 116 119 117 116 111 104 100 96 95 92
30 34 35 39 40 44 48 52 55 60 60 63 64 68 70 71 71 69 68 69 71 75 78 82 84 89 91 98 103 105 111 104 107 114 120 121 109 99 95 92 89 82 78
35 40 41 42 46 48 49 51 56 61 65 67 68 71 68 64 66 69 71 72 75 78 83 87 91 94 100 106 109 113 115 116 118 122 116 109 98 92 85 81 76 73 71